<?xml version="1.0" encoding="UTF-8" standalone="no" ?>
<gpx xmlns="http://www.topografix.com/GPX/1/1" xmlns:xsi="http://www.w3.org/2001/XMLSchema-instance" xsi:schemaLocation="http://www.topografix.com/GPX/1/1 http://www.topografix.com/GPX/1/1/gpx.xsd" version="1.1" creator="VisuGPX - https://www.visugpx.com">
  <metadata>
    <name>Croix de Brertagne Briançon Francia</name>
    <desc><![CDATA[Croix de Bretagne]]></desc>
  </metadata>
  <wpt lat="44.86048" lon="6.65873">
    <ele>1958.31640625</ele>
    <name><![CDATA[001]]></name>
  </wpt>
  <wpt lat="44.84281" lon="6.66002">
    <ele>1758.1235351562</ele>
    <name><![CDATA[002]]></name>
  </wpt>
  <wpt lat="44.85791" lon="6.64061">
    <ele>1893.6682128906</ele>
    <name><![CDATA[003]]></name>
  </wpt>
  <trk>
    <name><![CDATA[ACTIVE LOG 003]]></name>
    <trkseg>
      <trkpt lat="44.88857" lon="6.63287">
        <ele>1182.5590820312</ele>
        <time>2010-07-06T06:31:00Z</time>
      </trkpt>
      <trkpt lat="44.88857" lon="6.63287">
        <ele>1184.0009765625</ele>
        <time>2010-07-06T06:31:36Z</time>
      </trkpt>
      <trkpt lat="44.88859" lon="6.63293">
        <ele>1187.3654785156</ele>
        <time>2010-07-06T06:35:24Z</time>
      </trkpt>
      <trkpt lat="44.88859" lon="6.63293">
        <ele>1187.8461914062</ele>
        <time>2010-07-06T06:35:38Z</time>
      </trkpt>
      <trkpt lat="44.88866" lon="6.63291">
        <ele>1188.3269042969</ele>
        <time>2010-07-06T06:35:45Z</time>
      </trkpt>
      <trkpt lat="44.88874" lon="6.63302">
        <ele>1188.8076171875</ele>
        <time>2010-07-06T06:35:52Z</time>
      </trkpt>
      <trkpt lat="44.88885" lon="6.63297">
        <ele>1188.3269042969</ele>
        <time>2010-07-06T06:36:03Z</time>
      </trkpt>
      <trkpt lat="44.88887" lon="6.63297">
        <ele>1187.8461914062</ele>
        <time>2010-07-06T06:36:07Z</time>
      </trkpt>
      <trkpt lat="44.88883" lon="6.63312">
        <ele>1188.3269042969</ele>
        <time>2010-07-06T06:36:18Z</time>
      </trkpt>
      <trkpt lat="44.88885" lon="6.63304">
        <ele>1187.8461914062</ele>
        <time>2010-07-06T06:36:22Z</time>
      </trkpt>
      <trkpt lat="44.88878" lon="6.63289">
        <ele>1188.8076171875</ele>
        <time>2010-07-06T06:36:27Z</time>
      </trkpt>
      <trkpt lat="44.88876" lon="6.63302">
        <ele>1189.2880859375</ele>
        <time>2010-07-06T06:36:34Z</time>
      </trkpt>
      <trkpt lat="44.88891" lon="6.63334">
        <ele>1189.7687988281</ele>
        <time>2010-07-06T06:36:48Z</time>
      </trkpt>
      <trkpt lat="44.88906" lon="6.63405">
        <ele>1190.2495117188</ele>
        <time>2010-07-06T06:37:06Z</time>
      </trkpt>
      <trkpt lat="44.88911" lon="6.63415">
        <ele>1190.2495117188</ele>
        <time>2010-07-06T06:37:09Z</time>
      </trkpt>
      <trkpt lat="44.88909" lon="6.63422">
        <ele>1190.2495117188</ele>
        <time>2010-07-06T06:37:12Z</time>
      </trkpt>
      <trkpt lat="44.88904" lon="6.63426">
        <ele>1190.2495117188</ele>
        <time>2010-07-06T06:37:16Z</time>
      </trkpt>
      <trkpt lat="44.88863" lon="6.63409">
        <ele>1192.6528320312</ele>
        <time>2010-07-06T06:37:33Z</time>
      </trkpt>
      <trkpt lat="44.88823" lon="6.63392">
        <ele>1196.017578125</ele>
        <time>2010-07-06T06:37:48Z</time>
      </trkpt>
      <trkpt lat="44.88793" lon="6.63379">
        <ele>1199.3820800781</ele>
        <time>2010-07-06T06:37:59Z</time>
      </trkpt>
      <trkpt lat="44.88741" lon="6.63357">
        <ele>1200.8239746094</ele>
        <time>2010-07-06T06:38:18Z</time>
      </trkpt>
      <trkpt lat="44.88707" lon="6.63349">
        <ele>1202.2658691406</ele>
        <time>2010-07-06T06:38:32Z</time>
      </trkpt>
      <trkpt lat="44.88692" lon="6.6337">
        <ele>1202.2658691406</ele>
        <time>2010-07-06T06:38:38Z</time>
      </trkpt>
      <trkpt lat="44.88657" lon="6.63392">
        <ele>1199.8627929688</ele>
        <time>2010-07-06T06:38:45Z</time>
      </trkpt>
      <trkpt lat="44.88595" lon="6.63426">
        <ele>1197.9401855469</ele>
        <time>2010-07-06T06:38:56Z</time>
      </trkpt>
      <trkpt lat="44.88574" lon="6.63422">
        <ele>1197.9401855469</ele>
        <time>2010-07-06T06:39:00Z</time>
      </trkpt>
      <trkpt lat="44.88503" lon="6.6336">
        <ele>1198.9013671875</ele>
        <time>2010-07-06T06:39:19Z</time>
      </trkpt>
      <trkpt lat="44.88482" lon="6.63312">
        <ele>1200.3435058594</ele>
        <time>2010-07-06T06:39:29Z</time>
      </trkpt>
      <trkpt lat="44.8846" lon="6.63295">
        <ele>1200.8239746094</ele>
        <time>2010-07-06T06:39:36Z</time>
      </trkpt>
      <trkpt lat="44.88389" lon="6.63287">
        <ele>1203.7080078125</ele>
        <time>2010-07-06T06:39:55Z</time>
      </trkpt>
      <trkpt lat="44.88306" lon="6.63287">
        <ele>1207.5532226562</ele>
        <time>2010-07-06T06:40:19Z</time>
      </trkpt>
      <trkpt lat="44.8828" lon="6.63295">
        <ele>1210.4370117188</ele>
        <time>2010-07-06T06:40:30Z</time>
      </trkpt>
      <trkpt lat="44.88267" lon="6.63336">
        <ele>1212.8405761719</ele>
        <time>2010-07-06T06:40:44Z</time>
      </trkpt>
      <trkpt lat="44.88265" lon="6.63338">
        <ele>1212.8405761719</ele>
        <time>2010-07-06T06:40:45Z</time>
      </trkpt>
      <trkpt lat="44.88245" lon="6.63373">
        <ele>1215.724609375</ele>
        <time>2010-07-06T06:40:57Z</time>
      </trkpt>
      <trkpt lat="44.88213" lon="6.63366">
        <ele>1217.6469726562</ele>
        <time>2010-07-06T06:41:10Z</time>
      </trkpt>
      <trkpt lat="44.88192" lon="6.63345">
        <ele>1221.01171875</ele>
        <time>2010-07-06T06:41:20Z</time>
      </trkpt>
      <trkpt lat="44.88155" lon="6.63315">
        <ele>1223.4150390625</ele>
        <time>2010-07-06T06:41:37Z</time>
      </trkpt>
      <trkpt lat="44.88121" lon="6.63315">
        <ele>1224.8569335938</ele>
        <time>2010-07-06T06:41:50Z</time>
      </trkpt>
      <trkpt lat="44.88117" lon="6.63319">
        <ele>1224.8569335938</ele>
        <time>2010-07-06T06:41:53Z</time>
      </trkpt>
      <trkpt lat="44.88115" lon="6.63319">
        <ele>1225.8181152344</ele>
        <time>2010-07-06T06:42:10Z</time>
      </trkpt>
      <trkpt lat="44.88115" lon="6.63319">
        <ele>1225.3374023438</ele>
        <time>2010-07-06T06:42:11Z</time>
      </trkpt>
      <trkpt lat="44.8808" lon="6.63325">
        <ele>1228.2216796875</ele>
        <time>2010-07-06T06:42:27Z</time>
      </trkpt>
      <trkpt lat="44.88029" lon="6.6333">
        <ele>1229.6635742188</ele>
        <time>2010-07-06T06:42:45Z</time>
      </trkpt>
      <trkpt lat="44.87992" lon="6.6333">
        <ele>1233.0280761719</ele>
        <time>2010-07-06T06:42:58Z</time>
      </trkpt>
      <trkpt lat="44.87945" lon="6.6337">
        <ele>1233.0280761719</ele>
        <time>2010-07-06T06:43:17Z</time>
      </trkpt>
      <trkpt lat="44.87921" lon="6.6339">
        <ele>1232.5476074219</ele>
        <time>2010-07-06T06:43:31Z</time>
      </trkpt>
      <trkpt lat="44.87924" lon="6.63392">
        <ele>1233.0280761719</ele>
        <time>2010-07-06T06:43:43Z</time>
      </trkpt>
      <trkpt lat="44.87921" lon="6.63392">
        <ele>1236.3928222656</ele>
        <time>2010-07-06T06:45:23Z</time>
      </trkpt>
      <trkpt lat="44.87924" lon="6.63392">
        <ele>1236.3928222656</ele>
        <time>2010-07-06T06:45:29Z</time>
      </trkpt>
      <trkpt lat="44.87921" lon="6.63388">
        <ele>1235.912109375</ele>
        <time>2010-07-06T06:45:36Z</time>
      </trkpt>
      <trkpt lat="44.87889" lon="6.63381">
        <ele>1235.912109375</ele>
        <time>2010-07-06T06:45:49Z</time>
      </trkpt>
      <trkpt lat="44.87885" lon="6.63379">
        <ele>1236.3928222656</ele>
        <time>2010-07-06T06:45:51Z</time>
      </trkpt>
      <trkpt lat="44.87876" lon="6.63383">
        <ele>1236.3928222656</ele>
        <time>2010-07-06T06:46:02Z</time>
      </trkpt>
      <trkpt lat="44.87876" lon="6.63383">
        <ele>1236.3928222656</ele>
        <time>2010-07-06T06:46:06Z</time>
      </trkpt>
      <trkpt lat="44.8787" lon="6.63381">
        <ele>1237.8347167969</ele>
        <time>2010-07-06T06:46:12Z</time>
      </trkpt>
      <trkpt lat="44.87846" lon="6.63396">
        <ele>1240.7185058594</ele>
        <time>2010-07-06T06:46:29Z</time>
      </trkpt>
      <trkpt lat="44.87823" lon="6.63403">
        <ele>1244.5639648438</ele>
        <time>2010-07-06T06:46:44Z</time>
      </trkpt>
      <trkpt lat="44.87806" lon="6.63415">
        <ele>1247.9287109375</ele>
        <time>2010-07-06T06:46:57Z</time>
      </trkpt>
      <trkpt lat="44.87806" lon="6.63418">
        <ele>1247.9287109375</ele>
        <time>2010-07-06T06:46:58Z</time>
      </trkpt>
      <trkpt lat="44.87793" lon="6.63433">
        <ele>1250.8125</ele>
        <time>2010-07-06T06:47:10Z</time>
      </trkpt>
      <trkpt lat="44.87788" lon="6.63439">
        <ele>1251.7739257812</ele>
        <time>2010-07-06T06:47:13Z</time>
      </trkpt>
      <trkpt lat="44.87778" lon="6.63454">
        <ele>1253.6965332031</ele>
        <time>2010-07-06T06:47:23Z</time>
      </trkpt>
      <trkpt lat="44.87767" lon="6.63469">
        <ele>1256.099609375</ele>
        <time>2010-07-06T06:47:33Z</time>
      </trkpt>
      <trkpt lat="44.8775" lon="6.63478">
        <ele>1258.9836425781</ele>
        <time>2010-07-06T06:47:48Z</time>
      </trkpt>
      <trkpt lat="44.87741" lon="6.63486">
        <ele>1262.3483886719</ele>
        <time>2010-07-06T06:47:58Z</time>
      </trkpt>
      <trkpt lat="44.87737" lon="6.63499">
        <ele>1264.2709960938</ele>
        <time>2010-07-06T06:48:06Z</time>
      </trkpt>
      <trkpt lat="44.87733" lon="6.63503">
        <ele>1266.1936035156</ele>
        <time>2010-07-06T06:48:11Z</time>
      </trkpt>
      <trkpt lat="44.87733" lon="6.63512">
        <ele>1266.6743164062</ele>
        <time>2010-07-06T06:48:16Z</time>
      </trkpt>
      <trkpt lat="44.87728" lon="6.63516">
        <ele>1267.1550292969</ele>
        <time>2010-07-06T06:48:33Z</time>
      </trkpt>
      <trkpt lat="44.87724" lon="6.63529">
        <ele>1269.0776367188</ele>
        <time>2010-07-06T06:49:16Z</time>
      </trkpt>
      <trkpt lat="44.87711" lon="6.63566">
        <ele>1272.4421386719</ele>
        <time>2010-07-06T06:49:33Z</time>
      </trkpt>
      <trkpt lat="44.87713" lon="6.63585">
        <ele>1274.3647460938</ele>
        <time>2010-07-06T06:49:41Z</time>
      </trkpt>
      <trkpt lat="44.87722" lon="6.63591">
        <ele>1274.8454589844</ele>
        <time>2010-07-06T06:49:46Z</time>
      </trkpt>
      <trkpt lat="44.87731" lon="6.63604">
        <ele>1276.2875976562</ele>
        <time>2010-07-06T06:49:52Z</time>
      </trkpt>
      <trkpt lat="44.87743" lon="6.63628">
        <ele>1279.6520996094</ele>
        <time>2010-07-06T06:50:03Z</time>
      </trkpt>
      <trkpt lat="44.87765" lon="6.63686">
        <ele>1281.5747070312</ele>
        <time>2010-07-06T06:50:24Z</time>
      </trkpt>
      <trkpt lat="44.87784" lon="6.63724">
        <ele>1284.939453125</ele>
        <time>2010-07-06T06:50:40Z</time>
      </trkpt>
      <trkpt lat="44.87803" lon="6.63757">
        <ele>1287.3425292969</ele>
        <time>2010-07-06T06:50:56Z</time>
      </trkpt>
      <trkpt lat="44.87831" lon="6.63791">
        <ele>1289.7458496094</ele>
        <time>2010-07-06T06:51:14Z</time>
      </trkpt>
      <trkpt lat="44.87861" lon="6.6383">
        <ele>1291.6684570312</ele>
        <time>2010-07-06T06:51:30Z</time>
      </trkpt>
      <trkpt lat="44.87883" lon="6.63866">
        <ele>1293.5913085938</ele>
        <time>2010-07-06T06:51:44Z</time>
      </trkpt>
      <trkpt lat="44.87887" lon="6.63875">
        <ele>1294.5524902344</ele>
        <time>2010-07-06T06:51:47Z</time>
      </trkpt>
      <trkpt lat="44.87911" lon="6.63922">
        <ele>1297.4365234375</ele>
        <time>2010-07-06T06:52:04Z</time>
      </trkpt>
      <trkpt lat="44.87939" lon="6.63973">
        <ele>1297.9172363281</ele>
        <time>2010-07-06T06:52:21Z</time>
      </trkpt>
      <trkpt lat="44.87952" lon="6.64001">
        <ele>1300.3205566406</ele>
        <time>2010-07-06T06:52:30Z</time>
      </trkpt>
      <trkpt lat="44.87958" lon="6.6401">
        <ele>1301.2817382812</ele>
        <time>2010-07-06T06:52:34Z</time>
      </trkpt>
      <trkpt lat="44.87969" lon="6.6404">
        <ele>1304.6462402344</ele>
        <time>2010-07-06T06:52:45Z</time>
      </trkpt>
      <trkpt lat="44.87979" lon="6.64081">
        <ele>1306.0881347656</ele>
        <time>2010-07-06T06:52:59Z</time>
      </trkpt>
      <trkpt lat="44.87997" lon="6.64109">
        <ele>1308.4916992188</ele>
        <time>2010-07-06T06:53:12Z</time>
      </trkpt>
      <trkpt lat="44.88014" lon="6.64132">
        <ele>1311.3757324219</ele>
        <time>2010-07-06T06:53:25Z</time>
      </trkpt>
      <trkpt lat="44.88035" lon="6.64166">
        <ele>1313.2983398438</ele>
        <time>2010-07-06T06:53:42Z</time>
      </trkpt>
      <trkpt lat="44.8805" lon="6.64201">
        <ele>1316.1821289062</ele>
        <time>2010-07-06T06:53:59Z</time>
      </trkpt>
      <trkpt lat="44.88063" lon="6.64231">
        <ele>1319.546875</ele>
        <time>2010-07-06T06:54:15Z</time>
      </trkpt>
      <trkpt lat="44.88067" lon="6.64263">
        <ele>1322.9113769531</ele>
        <time>2010-07-06T06:54:30Z</time>
      </trkpt>
      <trkpt lat="44.88067" lon="6.64265">
        <ele>1322.9113769531</ele>
        <time>2010-07-06T06:54:31Z</time>
      </trkpt>
      <trkpt lat="44.88076" lon="6.64302">
        <ele>1324.353515625</ele>
        <time>2010-07-06T06:54:48Z</time>
      </trkpt>
      <trkpt lat="44.88078" lon="6.64312">
        <ele>1325.7954101562</ele>
        <time>2010-07-06T06:54:53Z</time>
      </trkpt>
      <trkpt lat="44.88078" lon="6.64315">
        <ele>1326.2761230469</ele>
        <time>2010-07-06T06:54:55Z</time>
      </trkpt>
      <trkpt lat="44.88082" lon="6.64345">
        <ele>1328.1987304688</ele>
        <time>2010-07-06T06:55:11Z</time>
      </trkpt>
      <trkpt lat="44.88082" lon="6.64355">
        <ele>1329.1599121094</ele>
        <time>2010-07-06T06:55:16Z</time>
      </trkpt>
      <trkpt lat="44.88085" lon="6.64362">
        <ele>1329.640625</ele>
        <time>2010-07-06T06:55:32Z</time>
      </trkpt>
      <trkpt lat="44.88082" lon="6.64385">
        <ele>1332.5246582031</ele>
        <time>2010-07-06T06:55:45Z</time>
      </trkpt>
      <trkpt lat="44.88076" lon="6.64426">
        <ele>1334.9279785156</ele>
        <time>2010-07-06T06:56:03Z</time>
      </trkpt>
      <trkpt lat="44.88067" lon="6.64467">
        <ele>1338.2924804688</ele>
        <time>2010-07-06T06:56:22Z</time>
      </trkpt>
      <trkpt lat="44.8808" lon="6.64493">
        <ele>1340.6958007812</ele>
        <time>2010-07-06T06:56:36Z</time>
      </trkpt>
      <trkpt lat="44.881" lon="6.64527">
        <ele>1344.060546875</ele>
        <time>2010-07-06T06:56:54Z</time>
      </trkpt>
      <trkpt lat="44.88102" lon="6.64531">
        <ele>1344.541015625</ele>
        <time>2010-07-06T06:56:56Z</time>
      </trkpt>
      <trkpt lat="44.8811" lon="6.64544">
        <ele>1345.9831542969</ele>
        <time>2010-07-06T06:57:04Z</time>
      </trkpt>
      <trkpt lat="44.88119" lon="6.64561">
        <ele>1348.3862304688</ele>
        <time>2010-07-06T06:57:14Z</time>
      </trkpt>
      <trkpt lat="44.88127" lon="6.64591">
        <ele>1352.2314453125</ele>
        <time>2010-07-06T06:57:28Z</time>
      </trkpt>
      <trkpt lat="44.88145" lon="6.6463">
        <ele>1355.1154785156</ele>
        <time>2010-07-06T06:57:49Z</time>
      </trkpt>
      <trkpt lat="44.88153" lon="6.64649">
        <ele>1356.5576171875</ele>
        <time>2010-07-06T06:58:01Z</time>
      </trkpt>
      <trkpt lat="44.88149" lon="6.64654">
        <ele>1356.5576171875</ele>
        <time>2010-07-06T06:58:17Z</time>
      </trkpt>
      <trkpt lat="44.88151" lon="6.6466">
        <ele>1357.9997558594</ele>
        <time>2010-07-06T06:58:59Z</time>
      </trkpt>
      <trkpt lat="44.88149" lon="6.64658">
        <ele>1357.9997558594</ele>
        <time>2010-07-06T06:59:19Z</time>
      </trkpt>
      <trkpt lat="44.88125" lon="6.64626">
        <ele>1361.3642578125</ele>
        <time>2010-07-06T06:59:39Z</time>
      </trkpt>
      <trkpt lat="44.881" lon="6.64602">
        <ele>1364.248046875</ele>
        <time>2010-07-06T06:59:58Z</time>
      </trkpt>
      <trkpt lat="44.8808" lon="6.64581">
        <ele>1367.1320800781</ele>
        <time>2010-07-06T07:00:13Z</time>
      </trkpt>
      <trkpt lat="44.8805" lon="6.64551">
        <ele>1370.4965820312</ele>
        <time>2010-07-06T07:00:35Z</time>
      </trkpt>
      <trkpt lat="44.88024" lon="6.64533">
        <ele>1373.861328125</ele>
        <time>2010-07-06T07:00:51Z</time>
      </trkpt>
      <trkpt lat="44.88001" lon="6.64514">
        <ele>1377.2260742188</ele>
        <time>2010-07-06T07:01:08Z</time>
      </trkpt>
      <trkpt lat="44.87999" lon="6.64514">
        <ele>1377.2260742188</ele>
        <time>2010-07-06T07:01:09Z</time>
      </trkpt>
      <trkpt lat="44.87988" lon="6.64505">
        <ele>1379.6291503906</ele>
        <time>2010-07-06T07:01:18Z</time>
      </trkpt>
      <trkpt lat="44.87964" lon="6.6449">
        <ele>1382.5131835938</ele>
        <time>2010-07-06T07:01:35Z</time>
      </trkpt>
      <trkpt lat="44.87936" lon="6.64484">
        <ele>1385.8776855469</ele>
        <time>2010-07-06T07:01:53Z</time>
      </trkpt>
      <trkpt lat="44.8793" lon="6.64486">
        <ele>1385.8776855469</ele>
        <time>2010-07-06T07:01:57Z</time>
      </trkpt>
      <trkpt lat="44.87917" lon="6.6446">
        <ele>1388.7619628906</ele>
        <time>2010-07-06T07:02:10Z</time>
      </trkpt>
      <trkpt lat="44.87896" lon="6.64435">
        <ele>1392.1264648438</ele>
        <time>2010-07-06T07:02:28Z</time>
      </trkpt>
      <trkpt lat="44.87874" lon="6.64413">
        <ele>1395.4909667969</ele>
        <time>2010-07-06T07:02:43Z</time>
      </trkpt>
      <trkpt lat="44.87859" lon="6.64405">
        <ele>1396.9328613281</ele>
        <time>2010-07-06T07:02:55Z</time>
      </trkpt>
      <trkpt lat="44.87855" lon="6.64405">
        <ele>1396.9328613281</ele>
        <time>2010-07-06T07:02:57Z</time>
      </trkpt>
      <trkpt lat="44.87844" lon="6.64398">
        <ele>1397.8942871094</ele>
        <time>2010-07-06T07:03:06Z</time>
      </trkpt>
      <trkpt lat="44.8784" lon="6.64405">
        <ele>1398.3747558594</ele>
        <time>2010-07-06T07:03:10Z</time>
      </trkpt>
      <trkpt lat="44.8784" lon="6.64407">
        <ele>1398.3747558594</ele>
        <time>2010-07-06T07:03:12Z</time>
      </trkpt>
      <trkpt lat="44.87851" lon="6.64415">
        <ele>1399.8168945312</ele>
        <time>2010-07-06T07:03:22Z</time>
      </trkpt>
      <trkpt lat="44.87853" lon="6.64415">
        <ele>1399.8168945312</ele>
        <time>2010-07-06T07:03:24Z</time>
      </trkpt>
      <trkpt lat="44.87857" lon="6.64418">
        <ele>1400.7780761719</ele>
        <time>2010-07-06T07:03:30Z</time>
      </trkpt>
      <trkpt lat="44.87872" lon="6.64441">
        <ele>1403.662109375</ele>
        <time>2010-07-06T07:03:48Z</time>
      </trkpt>
      <trkpt lat="44.87876" lon="6.64454">
        <ele>1404.6235351562</ele>
        <time>2010-07-06T07:04:06Z</time>
      </trkpt>
      <trkpt lat="44.87883" lon="6.64478">
        <ele>1407.0268554688</ele>
        <time>2010-07-06T07:04:53Z</time>
      </trkpt>
      <trkpt lat="44.87894" lon="6.64516">
        <ele>1410.3913574219</ele>
        <time>2010-07-06T07:05:12Z</time>
      </trkpt>
      <trkpt lat="44.87896" lon="6.64523">
        <ele>1410.8720703125</ele>
        <time>2010-07-06T07:05:15Z</time>
      </trkpt>
      <trkpt lat="44.87911" lon="6.64548">
        <ele>1414.2365722656</ele>
        <time>2010-07-06T07:05:30Z</time>
      </trkpt>
      <trkpt lat="44.87934" lon="6.64576">
        <ele>1417.1206054688</ele>
        <time>2010-07-06T07:05:52Z</time>
      </trkpt>
      <trkpt lat="44.87956" lon="6.64587">
        <ele>1420.4853515625</ele>
        <time>2010-07-06T07:06:08Z</time>
      </trkpt>
      <trkpt lat="44.87977" lon="6.64604">
        <ele>1423.3693847656</ele>
        <time>2010-07-06T07:06:25Z</time>
      </trkpt>
      <trkpt lat="44.87994" lon="6.64615">
        <ele>1425.2917480469</ele>
        <time>2010-07-06T07:06:40Z</time>
      </trkpt>
      <trkpt lat="44.87999" lon="6.64619">
        <ele>1426.7338867188</ele>
        <time>2010-07-06T07:06:49Z</time>
      </trkpt>
      <trkpt lat="44.87992" lon="6.64617">
        <ele>1424.8112792969</ele>
        <time>2010-07-06T07:07:00Z</time>
      </trkpt>
      <trkpt lat="44.87992" lon="6.64613">
        <ele>1425.2917480469</ele>
        <time>2010-07-06T07:07:16Z</time>
      </trkpt>
      <trkpt lat="44.87994" lon="6.64615">
        <ele>1424.3305664062</ele>
        <time>2010-07-06T07:07:23Z</time>
      </trkpt>
      <trkpt lat="44.87999" lon="6.64617">
        <ele>1425.7724609375</ele>
        <time>2010-07-06T07:07:29Z</time>
      </trkpt>
      <trkpt lat="44.88014" lon="6.64636">
        <ele>1427.6950683594</ele>
        <time>2010-07-06T07:07:48Z</time>
      </trkpt>
      <trkpt lat="44.8802" lon="6.64645">
        <ele>1429.6176757812</ele>
        <time>2010-07-06T07:07:55Z</time>
      </trkpt>
      <trkpt lat="44.88037" lon="6.64641">
        <ele>1432.9821777344</ele>
        <time>2010-07-06T07:08:08Z</time>
      </trkpt>
      <trkpt lat="44.88046" lon="6.64634">
        <ele>1433.9436035156</ele>
        <time>2010-07-06T07:08:14Z</time>
      </trkpt>
      <trkpt lat="44.88052" lon="6.64634">
        <ele>1436.3471679688</ele>
        <time>2010-07-06T07:08:36Z</time>
      </trkpt>
      <trkpt lat="44.88055" lon="6.64634">
        <ele>1436.3471679688</ele>
        <time>2010-07-06T07:08:49Z</time>
      </trkpt>
      <trkpt lat="44.8805" lon="6.64632">
        <ele>1438.2697753906</ele>
        <time>2010-07-06T07:11:47Z</time>
      </trkpt>
      <trkpt lat="44.88046" lon="6.64632">
        <ele>1436.8276367188</ele>
        <time>2010-07-06T07:12:02Z</time>
      </trkpt>
      <trkpt lat="44.8805" lon="6.64632">
        <ele>1438.2697753906</ele>
        <time>2010-07-06T07:12:22Z</time>
      </trkpt>
      <trkpt lat="44.88048" lon="6.64632">
        <ele>1438.7504882812</ele>
        <time>2010-07-06T07:12:26Z</time>
      </trkpt>
      <trkpt lat="44.88044" lon="6.64632">
        <ele>1436.8276367188</ele>
        <time>2010-07-06T07:12:41Z</time>
      </trkpt>
      <trkpt lat="44.88044" lon="6.64632">
        <ele>1436.3471679688</ele>
        <time>2010-07-06T07:13:00Z</time>
      </trkpt>
      <trkpt lat="44.88042" lon="6.64634">
        <ele>1435.8662109375</ele>
        <time>2010-07-06T07:13:24Z</time>
      </trkpt>
      <trkpt lat="44.88039" lon="6.64636">
        <ele>1434.4243164062</ele>
        <time>2010-07-06T07:13:29Z</time>
      </trkpt>
      <trkpt lat="44.88029" lon="6.64649">
        <ele>1433.462890625</ele>
        <time>2010-07-06T07:13:34Z</time>
      </trkpt>
      <trkpt lat="44.88031" lon="6.64658">
        <ele>1433.462890625</ele>
        <time>2010-07-06T07:13:38Z</time>
      </trkpt>
      <trkpt lat="44.88044" lon="6.64694">
        <ele>1436.8276367188</ele>
        <time>2010-07-06T07:13:57Z</time>
      </trkpt>
      <trkpt lat="44.88048" lon="6.64726">
        <ele>1439.2309570312</ele>
        <time>2010-07-06T07:14:15Z</time>
      </trkpt>
      <trkpt lat="44.88024" lon="6.64767">
        <ele>1443.076171875</ele>
        <time>2010-07-06T07:14:37Z</time>
      </trkpt>
      <trkpt lat="44.88005" lon="6.64791">
        <ele>1446.4409179688</ele>
        <time>2010-07-06T07:14:53Z</time>
      </trkpt>
      <trkpt lat="44.88005" lon="6.64817">
        <ele>1447.8828125</ele>
        <time>2010-07-06T07:15:06Z</time>
      </trkpt>
      <trkpt lat="44.88005" lon="6.64836">
        <ele>1449.3247070312</ele>
        <time>2010-07-06T07:15:15Z</time>
      </trkpt>
      <trkpt lat="44.88007" lon="6.64851">
        <ele>1451.2473144531</ele>
        <time>2010-07-06T07:15:23Z</time>
      </trkpt>
      <trkpt lat="44.88016" lon="6.64862">
        <ele>1452.2087402344</ele>
        <time>2010-07-06T07:15:29Z</time>
      </trkpt>
      <trkpt lat="44.88005" lon="6.64896">
        <ele>1455.0927734375</ele>
        <time>2010-07-06T07:15:46Z</time>
      </trkpt>
      <trkpt lat="44.88001" lon="6.649">
        <ele>1456.0539550781</ele>
        <time>2010-07-06T07:15:50Z</time>
      </trkpt>
      <trkpt lat="44.87997" lon="6.64907">
        <ele>1456.5346679688</ele>
        <time>2010-07-06T07:15:54Z</time>
      </trkpt>
      <trkpt lat="44.87999" lon="6.64939">
        <ele>1459.4187011719</ele>
        <time>2010-07-06T07:16:07Z</time>
      </trkpt>
      <trkpt lat="44.87999" lon="6.64956">
        <ele>1461.3413085938</ele>
        <time>2010-07-06T07:16:16Z</time>
      </trkpt>
      <trkpt lat="44.87994" lon="6.64973">
        <ele>1462.3024902344</ele>
        <time>2010-07-06T07:16:25Z</time>
      </trkpt>
      <trkpt lat="44.87988" lon="6.64969">
        <ele>1463.7443847656</ele>
        <time>2010-07-06T07:16:34Z</time>
      </trkpt>
      <trkpt lat="44.87986" lon="6.64952">
        <ele>1466.6284179688</ele>
        <time>2010-07-06T07:16:43Z</time>
      </trkpt>
      <trkpt lat="44.87979" lon="6.64902">
        <ele>1468.5512695312</ele>
        <time>2010-07-06T07:17:05Z</time>
      </trkpt>
      <trkpt lat="44.87971" lon="6.64864">
        <ele>1471.4350585938</ele>
        <time>2010-07-06T07:17:24Z</time>
      </trkpt>
      <trkpt lat="44.8796" lon="6.64832">
        <ele>1474.7998046875</ele>
        <time>2010-07-06T07:17:42Z</time>
      </trkpt>
      <trkpt lat="44.87952" lon="6.64806">
        <ele>1478.1643066406</ele>
        <time>2010-07-06T07:17:56Z</time>
      </trkpt>
      <trkpt lat="44.87945" lon="6.64759">
        <ele>1480.5676269531</ele>
        <time>2010-07-06T07:18:19Z</time>
      </trkpt>
      <trkpt lat="44.87939" lon="6.6472">
        <ele>1482.970703125</ele>
        <time>2010-07-06T07:18:41Z</time>
      </trkpt>
      <trkpt lat="44.87936" lon="6.6472">
        <ele>1483.4514160156</ele>
        <time>2010-07-06T07:18:42Z</time>
      </trkpt>
      <trkpt lat="44.8793" lon="6.64722">
        <ele>1483.9321289062</ele>
        <time>2010-07-06T07:18:47Z</time>
      </trkpt>
      <trkpt lat="44.8793" lon="6.64735">
        <ele>1484.4130859375</ele>
        <time>2010-07-06T07:18:58Z</time>
      </trkpt>
      <trkpt lat="44.8793" lon="6.64746">
        <ele>1485.8549804688</ele>
        <time>2010-07-06T07:19:04Z</time>
      </trkpt>
      <trkpt lat="44.87928" lon="6.64767">
        <ele>1487.296875</ele>
        <time>2010-07-06T07:19:14Z</time>
      </trkpt>
      <trkpt lat="44.87926" lon="6.64808">
        <ele>1490.1809082031</ele>
        <time>2010-07-06T07:19:32Z</time>
      </trkpt>
      <trkpt lat="44.87926" lon="6.64834">
        <ele>1493.5454101562</ele>
        <time>2010-07-06T07:19:44Z</time>
      </trkpt>
      <trkpt lat="44.8793" lon="6.64868">
        <ele>1496.9099121094</ele>
        <time>2010-07-06T07:20:01Z</time>
      </trkpt>
      <trkpt lat="44.87932" lon="6.64909">
        <ele>1499.7939453125</ele>
        <time>2010-07-06T07:20:18Z</time>
      </trkpt>
      <trkpt lat="44.8793" lon="6.64952">
        <ele>1503.1586914062</ele>
        <time>2010-07-06T07:20:39Z</time>
      </trkpt>
      <trkpt lat="44.87943" lon="6.64995">
        <ele>1506.0424804688</ele>
        <time>2010-07-06T07:21:02Z</time>
      </trkpt>
      <trkpt lat="44.87945" lon="6.65003">
        <ele>1506.5231933594</ele>
        <time>2010-07-06T07:21:07Z</time>
      </trkpt>
      <trkpt lat="44.87949" lon="6.65012">
        <ele>1507.9653320312</ele>
        <time>2010-07-06T07:21:13Z</time>
      </trkpt>
      <trkpt lat="44.87943" lon="6.65014">
        <ele>1507.9653320312</ele>
        <time>2010-07-06T07:21:17Z</time>
      </trkpt>
      <trkpt lat="44.87928" lon="6.64986">
        <ele>1510.8491210938</ele>
        <time>2010-07-06T07:21:37Z</time>
      </trkpt>
      <trkpt lat="44.87921" lon="6.64965">
        <ele>1513.7329101562</ele>
        <time>2010-07-06T07:21:50Z</time>
      </trkpt>
      <trkpt lat="44.87913" lon="6.64928">
        <ele>1517.0979003906</ele>
        <time>2010-07-06T07:22:10Z</time>
      </trkpt>
      <trkpt lat="44.879" lon="6.64892">
        <ele>1519.9816894531</ele>
        <time>2010-07-06T07:22:31Z</time>
      </trkpt>
      <trkpt lat="44.87883" lon="6.6486">
        <ele>1523.3464355469</ele>
        <time>2010-07-06T07:22:52Z</time>
      </trkpt>
      <trkpt lat="44.87868" lon="6.64825">
        <ele>1526.2302246094</ele>
        <time>2010-07-06T07:23:13Z</time>
      </trkpt>
      <trkpt lat="44.87861" lon="6.64802">
        <ele>1529.5947265625</ele>
        <time>2010-07-06T07:23:29Z</time>
      </trkpt>
      <trkpt lat="44.87849" lon="6.6478">
        <ele>1531.0368652344</ele>
        <time>2010-07-06T07:23:45Z</time>
      </trkpt>
      <trkpt lat="44.87823" lon="6.64776">
        <ele>1535.3627929688</ele>
        <time>2010-07-06T07:24:02Z</time>
      </trkpt>
      <trkpt lat="44.87797" lon="6.64748">
        <ele>1538.7275390625</ele>
        <time>2010-07-06T07:24:24Z</time>
      </trkpt>
      <trkpt lat="44.87797" lon="6.64718">
        <ele>1541.611328125</ele>
        <time>2010-07-06T07:24:38Z</time>
      </trkpt>
      <trkpt lat="44.87786" lon="6.6469">
        <ele>1544.0146484375</ele>
        <time>2010-07-06T07:24:55Z</time>
      </trkpt>
      <trkpt lat="44.8778" lon="6.6469">
        <ele>1544.4951171875</ele>
        <time>2010-07-06T07:25:00Z</time>
      </trkpt>
      <trkpt lat="44.87782" lon="6.64718">
        <ele>1546.41796875</ele>
        <time>2010-07-06T07:25:20Z</time>
      </trkpt>
      <trkpt lat="44.87784" lon="6.64752">
        <ele>1549.7827148438</ele>
        <time>2010-07-06T07:25:37Z</time>
      </trkpt>
      <trkpt lat="44.87782" lon="6.64784">
        <ele>1552.1857910156</ele>
        <time>2010-07-06T07:25:56Z</time>
      </trkpt>
      <trkpt lat="44.87782" lon="6.64804">
        <ele>1553.6279296875</ele>
        <time>2010-07-06T07:26:07Z</time>
      </trkpt>
      <trkpt lat="44.87799" lon="6.6481">
        <ele>1555.5505371094</ele>
        <time>2010-07-06T07:26:17Z</time>
      </trkpt>
      <trkpt lat="44.87808" lon="6.64819">
        <ele>1556.51171875</ele>
        <time>2010-07-06T07:26:23Z</time>
      </trkpt>
      <trkpt lat="44.87806" lon="6.6486">
        <ele>1560.3569335938</ele>
        <time>2010-07-06T07:26:43Z</time>
      </trkpt>
      <trkpt lat="44.87808" lon="6.649">
        <ele>1563.2409667969</ele>
        <time>2010-07-06T07:27:04Z</time>
      </trkpt>
      <trkpt lat="44.87814" lon="6.64915">
        <ele>1563.7214355469</ele>
        <time>2010-07-06T07:27:13Z</time>
      </trkpt>
      <trkpt lat="44.87808" lon="6.64922">
        <ele>1564.2023925781</ele>
        <time>2010-07-06T07:27:21Z</time>
      </trkpt>
      <trkpt lat="44.87806" lon="6.64915">
        <ele>1565.1638183594</ele>
        <time>2010-07-06T07:27:27Z</time>
      </trkpt>
      <trkpt lat="44.87793" lon="6.64883">
        <ele>1568.0476074219</ele>
        <time>2010-07-06T07:27:46Z</time>
      </trkpt>
      <trkpt lat="44.87791" lon="6.64851">
        <ele>1571.8928222656</ele>
        <time>2010-07-06T07:28:04Z</time>
      </trkpt>
      <trkpt lat="44.87761" lon="6.64821">
        <ele>1574.2961425781</ele>
        <time>2010-07-06T07:28:30Z</time>
      </trkpt>
      <trkpt lat="44.8775" lon="6.64787">
        <ele>1577.1801757812</ele>
        <time>2010-07-06T07:28:48Z</time>
      </trkpt>
      <trkpt lat="44.87737" lon="6.64757">
        <ele>1578.6220703125</ele>
        <time>2010-07-06T07:29:04Z</time>
      </trkpt>
      <trkpt lat="44.87735" lon="6.64772">
        <ele>1580.544921875</ele>
        <time>2010-07-06T07:29:14Z</time>
      </trkpt>
      <trkpt lat="44.87739" lon="6.64791">
        <ele>1583.4287109375</ele>
        <time>2010-07-06T07:29:28Z</time>
      </trkpt>
      <trkpt lat="44.87741" lon="6.64797">
        <ele>1583.4287109375</ele>
        <time>2010-07-06T07:29:32Z</time>
      </trkpt>
      <trkpt lat="44.87737" lon="6.64847">
        <ele>1587.2739257812</ele>
        <time>2010-07-06T07:29:59Z</time>
      </trkpt>
      <trkpt lat="44.87737" lon="6.64851">
        <ele>1587.2739257812</ele>
        <time>2010-07-06T07:30:01Z</time>
      </trkpt>
      <trkpt lat="44.87752" lon="6.64864">
        <ele>1588.7160644531</ele>
        <time>2010-07-06T07:30:11Z</time>
      </trkpt>
      <trkpt lat="44.87756" lon="6.64898">
        <ele>1592.0805664062</ele>
        <time>2010-07-06T07:30:28Z</time>
      </trkpt>
      <trkpt lat="44.87763" lon="6.64943">
        <ele>1595.92578125</ele>
        <time>2010-07-06T07:30:50Z</time>
      </trkpt>
      <trkpt lat="44.87771" lon="6.64975">
        <ele>1598.8098144531</ele>
        <time>2010-07-06T07:31:06Z</time>
      </trkpt>
      <trkpt lat="44.8778" lon="6.65012">
        <ele>1602.1743164062</ele>
        <time>2010-07-06T07:31:23Z</time>
      </trkpt>
      <trkpt lat="44.87778" lon="6.65027">
        <ele>1603.1357421875</ele>
        <time>2010-07-06T07:31:31Z</time>
      </trkpt>
      <trkpt lat="44.87786" lon="6.6507">
        <ele>1606.01953125</ele>
        <time>2010-07-06T07:31:52Z</time>
      </trkpt>
      <trkpt lat="44.87788" lon="6.65072">
        <ele>1606.01953125</ele>
        <time>2010-07-06T07:31:54Z</time>
      </trkpt>
      <trkpt lat="44.87776" lon="6.65057">
        <ele>1607.9423828125</ele>
        <time>2010-07-06T07:32:08Z</time>
      </trkpt>
      <trkpt lat="44.87773" lon="6.6502">
        <ele>1610.826171875</ele>
        <time>2010-07-06T07:32:26Z</time>
      </trkpt>
      <trkpt lat="44.87758" lon="6.6498">
        <ele>1613.7102050781</ele>
        <time>2010-07-06T07:32:48Z</time>
      </trkpt>
      <trkpt lat="44.8775" lon="6.64965">
        <ele>1615.6330566406</ele>
        <time>2010-07-06T07:32:59Z</time>
      </trkpt>
      <trkpt lat="44.87737" lon="6.64939">
        <ele>1618.5168457031</ele>
        <time>2010-07-06T07:33:14Z</time>
      </trkpt>
      <trkpt lat="44.87722" lon="6.64911">
        <ele>1621.8813476562</ele>
        <time>2010-07-06T07:33:31Z</time>
      </trkpt>
      <trkpt lat="44.87705" lon="6.64872">
        <ele>1624.2846679688</ele>
        <time>2010-07-06T07:33:51Z</time>
      </trkpt>
      <trkpt lat="44.87698" lon="6.64842">
        <ele>1627.6491699219</ele>
        <time>2010-07-06T07:34:07Z</time>
      </trkpt>
      <trkpt lat="44.8769" lon="6.64814">
        <ele>1631.0141601562</ele>
        <time>2010-07-06T07:34:24Z</time>
      </trkpt>
      <trkpt lat="44.8767" lon="6.64789">
        <ele>1634.3786621094</ele>
        <time>2010-07-06T07:34:42Z</time>
      </trkpt>
      <trkpt lat="44.87653" lon="6.64754">
        <ele>1637.7431640625</ele>
        <time>2010-07-06T07:35:02Z</time>
      </trkpt>
      <trkpt lat="44.87649" lon="6.64729">
        <ele>1638.7045898438</ele>
        <time>2010-07-06T07:35:13Z</time>
      </trkpt>
      <trkpt lat="44.87647" lon="6.64731">
        <ele>1640.146484375</ele>
        <time>2010-07-06T07:35:24Z</time>
      </trkpt>
      <trkpt lat="44.87647" lon="6.64761">
        <ele>1642.0690917969</ele>
        <time>2010-07-06T07:35:42Z</time>
      </trkpt>
      <trkpt lat="44.87651" lon="6.64778">
        <ele>1643.9916992188</ele>
        <time>2010-07-06T07:35:58Z</time>
      </trkpt>
      <trkpt lat="44.87655" lon="6.64802">
        <ele>1646.8757324219</ele>
        <time>2010-07-06T07:36:12Z</time>
      </trkpt>
      <trkpt lat="44.87662" lon="6.64838">
        <ele>1649.759765625</ele>
        <time>2010-07-06T07:36:31Z</time>
      </trkpt>
      <trkpt lat="44.87666" lon="6.64864">
        <ele>1652.1628417969</ele>
        <time>2010-07-06T07:36:48Z</time>
      </trkpt>
      <trkpt lat="44.87666" lon="6.64868">
        <ele>1652.1628417969</ele>
        <time>2010-07-06T07:36:51Z</time>
      </trkpt>
      <trkpt lat="44.87664" lon="6.6487">
        <ele>1652.6435546875</ele>
        <time>2010-07-06T07:37:06Z</time>
      </trkpt>
      <trkpt lat="44.87666" lon="6.64866">
        <ele>1652.6435546875</ele>
        <time>2010-07-06T07:37:42Z</time>
      </trkpt>
      <trkpt lat="44.87662" lon="6.64857">
        <ele>1654.0856933594</ele>
        <time>2010-07-06T07:37:49Z</time>
      </trkpt>
      <trkpt lat="44.87655" lon="6.64829">
        <ele>1656.9694824219</ele>
        <time>2010-07-06T07:38:05Z</time>
      </trkpt>
      <trkpt lat="44.87638" lon="6.64791">
        <ele>1659.3728027344</ele>
        <time>2010-07-06T07:38:25Z</time>
      </trkpt>
      <trkpt lat="44.87628" lon="6.64763">
        <ele>1662.2568359375</ele>
        <time>2010-07-06T07:38:40Z</time>
      </trkpt>
      <trkpt lat="44.87615" lon="6.64737">
        <ele>1663.6987304688</ele>
        <time>2010-07-06T07:38:58Z</time>
      </trkpt>
      <trkpt lat="44.87608" lon="6.64731">
        <ele>1664.1794433594</ele>
        <time>2010-07-06T07:39:04Z</time>
      </trkpt>
      <trkpt lat="44.87591" lon="6.64707">
        <ele>1667.5439453125</ele>
        <time>2010-07-06T07:39:19Z</time>
      </trkpt>
      <trkpt lat="44.87574" lon="6.6469">
        <ele>1670.9086914062</ele>
        <time>2010-07-06T07:39:33Z</time>
      </trkpt>
      <trkpt lat="44.87572" lon="6.64688">
        <ele>1670.9086914062</ele>
        <time>2010-07-06T07:39:36Z</time>
      </trkpt>
      <trkpt lat="44.87546" lon="6.64686">
        <ele>1674.2731933594</ele>
        <time>2010-07-06T07:39:53Z</time>
      </trkpt>
      <trkpt lat="44.87544" lon="6.64686">
        <ele>1674.75390625</ele>
        <time>2010-07-06T07:39:55Z</time>
      </trkpt>
      <trkpt lat="44.87505" lon="6.64677">
        <ele>1677.1574707031</ele>
        <time>2010-07-06T07:40:22Z</time>
      </trkpt>
      <trkpt lat="44.8749" lon="6.64673">
        <ele>1679.560546875</ele>
        <time>2010-07-06T07:40:33Z</time>
      </trkpt>
      <trkpt lat="44.87479" lon="6.64671">
        <ele>1679.560546875</ele>
        <time>2010-07-06T07:40:40Z</time>
      </trkpt>
      <trkpt lat="44.87471" lon="6.64669">
        <ele>1681.0026855469</ele>
        <time>2010-07-06T07:40:58Z</time>
      </trkpt>
      <trkpt lat="44.87467" lon="6.64662">
        <ele>1681.9638671875</ele>
        <time>2010-07-06T07:43:07Z</time>
      </trkpt>
      <trkpt lat="44.8746" lon="6.64662">
        <ele>1682.4445800781</ele>
        <time>2010-07-06T07:43:12Z</time>
      </trkpt>
      <trkpt lat="44.87432" lon="6.64662">
        <ele>1684.8479003906</ele>
        <time>2010-07-06T07:43:28Z</time>
      </trkpt>
      <trkpt lat="44.87432" lon="6.64664">
        <ele>1685.3283691406</ele>
        <time>2010-07-06T07:43:48Z</time>
      </trkpt>
      <trkpt lat="44.87406" lon="6.64658">
        <ele>1689.1735839844</ele>
        <time>2010-07-06T07:44:04Z</time>
      </trkpt>
      <trkpt lat="44.87385" lon="6.64658">
        <ele>1691.0961914062</ele>
        <time>2010-07-06T07:44:19Z</time>
      </trkpt>
      <trkpt lat="44.87366" lon="6.64675">
        <ele>1692.0578613281</ele>
        <time>2010-07-06T07:44:33Z</time>
      </trkpt>
      <trkpt lat="44.87336" lon="6.64673">
        <ele>1693.98046875</ele>
        <time>2010-07-06T07:44:49Z</time>
      </trkpt>
      <trkpt lat="44.87308" lon="6.64662">
        <ele>1694.9416503906</ele>
        <time>2010-07-06T07:45:04Z</time>
      </trkpt>
      <trkpt lat="44.8728" lon="6.64658">
        <ele>1695.9030761719</ele>
        <time>2010-07-06T07:45:20Z</time>
      </trkpt>
      <trkpt lat="44.87254" lon="6.64658">
        <ele>1698.3061523438</ele>
        <time>2010-07-06T07:45:37Z</time>
      </trkpt>
      <trkpt lat="44.8725" lon="6.64656">
        <ele>1698.7868652344</ele>
        <time>2010-07-06T07:45:40Z</time>
      </trkpt>
      <trkpt lat="44.87228" lon="6.64654">
        <ele>1701.6708984375</ele>
        <time>2010-07-06T07:45:55Z</time>
      </trkpt>
      <trkpt lat="44.87216" lon="6.6466">
        <ele>1705.0354003906</ele>
        <time>2010-07-06T07:46:04Z</time>
      </trkpt>
      <trkpt lat="44.87211" lon="6.64662">
        <ele>1705.0354003906</ele>
        <time>2010-07-06T07:46:07Z</time>
      </trkpt>
      <trkpt lat="44.87207" lon="6.64669">
        <ele>1705.5161132812</ele>
        <time>2010-07-06T07:46:11Z</time>
      </trkpt>
      <trkpt lat="44.87192" lon="6.64686">
        <ele>1707.9194335938</ele>
        <time>2010-07-06T07:46:26Z</time>
      </trkpt>
      <trkpt lat="44.87185" lon="6.64692">
        <ele>1708.4001464844</ele>
        <time>2010-07-06T07:46:31Z</time>
      </trkpt>
      <trkpt lat="44.87183" lon="6.64692">
        <ele>1708.4001464844</ele>
        <time>2010-07-06T07:46:51Z</time>
      </trkpt>
      <trkpt lat="44.87181" lon="6.64692">
        <ele>1708.4001464844</ele>
        <time>2010-07-06T07:47:02Z</time>
      </trkpt>
      <trkpt lat="44.87185" lon="6.64699">
        <ele>1708.4001464844</ele>
        <time>2010-07-06T07:47:08Z</time>
      </trkpt>
      <trkpt lat="44.8719" lon="6.64699">
        <ele>1708.4001464844</ele>
        <time>2010-07-06T07:47:10Z</time>
      </trkpt>
      <trkpt lat="44.87205" lon="6.64684">
        <ele>1710.8034667969</ele>
        <time>2010-07-06T07:47:22Z</time>
      </trkpt>
      <trkpt lat="44.87222" lon="6.64677">
        <ele>1712.7260742188</ele>
        <time>2010-07-06T07:47:33Z</time>
      </trkpt>
      <trkpt lat="44.8725" lon="6.64679">
        <ele>1714.6486816406</ele>
        <time>2010-07-06T07:47:51Z</time>
      </trkpt>
      <trkpt lat="44.8725" lon="6.64677">
        <ele>1715.1293945312</ele>
        <time>2010-07-06T07:48:11Z</time>
      </trkpt>
      <trkpt lat="44.87263" lon="6.64681">
        <ele>1717.5324707031</ele>
        <time>2010-07-06T07:48:34Z</time>
      </trkpt>
      <trkpt lat="44.87282" lon="6.6469">
        <ele>1720.8972167969</ele>
        <time>2010-07-06T07:48:48Z</time>
      </trkpt>
      <trkpt lat="44.8728" lon="6.64692">
        <ele>1719.9357910156</ele>
        <time>2010-07-06T07:49:37Z</time>
      </trkpt>
      <trkpt lat="44.87288" lon="6.64694">
        <ele>1720.8972167969</ele>
        <time>2010-07-06T07:50:26Z</time>
      </trkpt>
      <trkpt lat="44.8731" lon="6.64705">
        <ele>1723.7810058594</ele>
        <time>2010-07-06T07:50:39Z</time>
      </trkpt>
      <trkpt lat="44.87323" lon="6.64711">
        <ele>1727.1459960938</ele>
        <time>2010-07-06T07:50:48Z</time>
      </trkpt>
      <trkpt lat="44.87323" lon="6.64714">
        <ele>1722.3391113281</ele>
        <time>2010-07-06T07:50:49Z</time>
      </trkpt>
      <trkpt lat="44.87325" lon="6.64714">
        <ele>1727.1459960938</ele>
        <time>2010-07-06T07:50:50Z</time>
      </trkpt>
      <trkpt lat="44.87351" lon="6.6472">
        <ele>1728.1071777344</ele>
        <time>2010-07-06T07:51:06Z</time>
      </trkpt>
      <trkpt lat="44.87359" lon="6.64722">
        <ele>1729.068359375</ele>
        <time>2010-07-06T07:51:12Z</time>
      </trkpt>
      <trkpt lat="44.87381" lon="6.64716">
        <ele>1731.9523925781</ele>
        <time>2010-07-06T07:51:27Z</time>
      </trkpt>
      <trkpt lat="44.874" lon="6.64709">
        <ele>1734.8364257812</ele>
        <time>2010-07-06T07:51:40Z</time>
      </trkpt>
      <trkpt lat="44.87404" lon="6.64709">
        <ele>1735.7976074219</ele>
        <time>2010-07-06T07:51:43Z</time>
      </trkpt>
      <trkpt lat="44.87402" lon="6.64724">
        <ele>1735.7976074219</ele>
        <time>2010-07-06T07:51:55Z</time>
      </trkpt>
      <trkpt lat="44.87398" lon="6.64724">
        <ele>1736.2783203125</ele>
        <time>2010-07-06T07:51:58Z</time>
      </trkpt>
      <trkpt lat="44.87396" lon="6.64724">
        <ele>1736.2783203125</ele>
        <time>2010-07-06T07:52:00Z</time>
      </trkpt>
      <trkpt lat="44.87381" lon="6.64739">
        <ele>1739.6428222656</ele>
        <time>2010-07-06T07:52:17Z</time>
      </trkpt>
      <trkpt lat="44.87361" lon="6.64746">
        <ele>1742.0463867188</ele>
        <time>2010-07-06T07:52:36Z</time>
      </trkpt>
      <trkpt lat="44.87344" lon="6.6475">
        <ele>1744.9301757812</ele>
        <time>2010-07-06T07:52:52Z</time>
      </trkpt>
      <trkpt lat="44.87319" lon="6.6475">
        <ele>1748.775390625</ele>
        <time>2010-07-06T07:53:14Z</time>
      </trkpt>
      <trkpt lat="44.87301" lon="6.64742">
        <ele>1751.6594238281</ele>
        <time>2010-07-06T07:53:31Z</time>
      </trkpt>
      <trkpt lat="44.87297" lon="6.64742">
        <ele>1752.6206054688</ele>
        <time>2010-07-06T07:53:35Z</time>
      </trkpt>
      <trkpt lat="44.87291" lon="6.6475">
        <ele>1753.1013183594</ele>
        <time>2010-07-06T07:53:41Z</time>
      </trkpt>
      <trkpt lat="44.87282" lon="6.64763">
        <ele>1754.0627441406</ele>
        <time>2010-07-06T07:53:49Z</time>
      </trkpt>
      <trkpt lat="44.87276" lon="6.64776">
        <ele>1755.9851074219</ele>
        <time>2010-07-06T07:53:58Z</time>
      </trkpt>
      <trkpt lat="44.87263" lon="6.64787">
        <ele>1757.4274902344</ele>
        <time>2010-07-06T07:54:08Z</time>
      </trkpt>
      <trkpt lat="44.87269" lon="6.64791">
        <ele>1757.908203125</ele>
        <time>2010-07-06T07:54:13Z</time>
      </trkpt>
      <trkpt lat="44.87297" lon="6.64778">
        <ele>1761.7534179688</ele>
        <time>2010-07-06T07:54:33Z</time>
      </trkpt>
      <trkpt lat="44.87312" lon="6.64778">
        <ele>1764.1564941406</ele>
        <time>2010-07-06T07:54:44Z</time>
      </trkpt>
      <trkpt lat="44.87314" lon="6.64784">
        <ele>1765.1179199219</ele>
        <time>2010-07-06T07:54:48Z</time>
      </trkpt>
      <trkpt lat="44.87314" lon="6.64789">
        <ele>1765.1179199219</ele>
        <time>2010-07-06T07:54:50Z</time>
      </trkpt>
      <trkpt lat="44.87303" lon="6.64802">
        <ele>1767.5209960938</ele>
        <time>2010-07-06T07:55:00Z</time>
      </trkpt>
      <trkpt lat="44.87297" lon="6.64819">
        <ele>1767.0405273438</ele>
        <time>2010-07-06T07:55:10Z</time>
      </trkpt>
      <trkpt lat="44.87293" lon="6.64821">
        <ele>1767.5209960938</ele>
        <time>2010-07-06T07:55:14Z</time>
      </trkpt>
      <trkpt lat="44.8728" lon="6.64838">
        <ele>1771.3662109375</ele>
        <time>2010-07-06T07:55:27Z</time>
      </trkpt>
      <trkpt lat="44.87284" lon="6.64857">
        <ele>1771.3662109375</ele>
        <time>2010-07-06T07:55:38Z</time>
      </trkpt>
      <trkpt lat="44.8731" lon="6.64849">
        <ele>1773.7697753906</ele>
        <time>2010-07-06T07:55:54Z</time>
      </trkpt>
      <trkpt lat="44.87329" lon="6.64845">
        <ele>1777.1345214844</ele>
        <time>2010-07-06T07:56:07Z</time>
      </trkpt>
      <trkpt lat="44.87351" lon="6.64829">
        <ele>1779.0568847656</ele>
        <time>2010-07-06T07:56:23Z</time>
      </trkpt>
      <trkpt lat="44.87381" lon="6.64829">
        <ele>1781.4602050781</ele>
        <time>2010-07-06T07:56:43Z</time>
      </trkpt>
      <trkpt lat="44.87413" lon="6.64823">
        <ele>1784.3442382812</ele>
        <time>2010-07-06T07:57:05Z</time>
      </trkpt>
      <trkpt lat="44.8743" lon="6.64823">
        <ele>1786.7473144531</ele>
        <time>2010-07-06T07:57:16Z</time>
      </trkpt>
      <trkpt lat="44.87434" lon="6.64829">
        <ele>1787.2280273438</ele>
        <time>2010-07-06T07:57:20Z</time>
      </trkpt>
      <trkpt lat="44.87441" lon="6.64838">
        <ele>1787.7087402344</ele>
        <time>2010-07-06T07:57:27Z</time>
      </trkpt>
      <trkpt lat="44.87458" lon="6.6486">
        <ele>1791.0734863281</ele>
        <time>2010-07-06T07:57:45Z</time>
      </trkpt>
      <trkpt lat="44.87462" lon="6.64862">
        <ele>1792.0349121094</ele>
        <time>2010-07-06T07:57:48Z</time>
      </trkpt>
      <trkpt lat="44.87479" lon="6.6487">
        <ele>1794.9187011719</ele>
        <time>2010-07-06T07:58:05Z</time>
      </trkpt>
      <trkpt lat="44.87488" lon="6.6487">
        <ele>1795.8801269531</ele>
        <time>2010-07-06T07:58:12Z</time>
      </trkpt>
      <trkpt lat="44.87499" lon="6.64866">
        <ele>1796.8413085938</ele>
        <time>2010-07-06T07:58:22Z</time>
      </trkpt>
      <trkpt lat="44.87507" lon="6.64866">
        <ele>1797.802734375</ele>
        <time>2010-07-06T07:58:29Z</time>
      </trkpt>
      <trkpt lat="44.87512" lon="6.64864">
        <ele>1797.802734375</ele>
        <time>2010-07-06T07:58:46Z</time>
      </trkpt>
      <trkpt lat="44.87512" lon="6.6487">
        <ele>1798.283203125</ele>
        <time>2010-07-06T07:59:07Z</time>
      </trkpt>
      <trkpt lat="44.87509" lon="6.64868">
        <ele>1798.283203125</ele>
        <time>2010-07-06T07:59:12Z</time>
      </trkpt>
      <trkpt lat="44.87509" lon="6.64866">
        <ele>1798.283203125</ele>
        <time>2010-07-06T07:59:31Z</time>
      </trkpt>
      <trkpt lat="44.87507" lon="6.64868">
        <ele>1798.283203125</ele>
        <time>2010-07-06T07:59:38Z</time>
      </trkpt>
      <trkpt lat="44.87503" lon="6.64877">
        <ele>1798.7639160156</ele>
        <time>2010-07-06T07:59:45Z</time>
      </trkpt>
      <trkpt lat="44.87497" lon="6.64879">
        <ele>1798.7639160156</ele>
        <time>2010-07-06T07:59:51Z</time>
      </trkpt>
      <trkpt lat="44.87473" lon="6.64879">
        <ele>1801.6479492188</ele>
        <time>2010-07-06T08:00:12Z</time>
      </trkpt>
      <trkpt lat="44.87467" lon="6.64881">
        <ele>1802.6091308594</ele>
        <time>2010-07-06T08:00:16Z</time>
      </trkpt>
      <trkpt lat="44.87443" lon="6.64879">
        <ele>1805.4934082031</ele>
        <time>2010-07-06T08:00:35Z</time>
      </trkpt>
      <trkpt lat="44.87415" lon="6.64877">
        <ele>1807.8967285156</ele>
        <time>2010-07-06T08:00:56Z</time>
      </trkpt>
      <trkpt lat="44.87387" lon="6.64887">
        <ele>1811.7419433594</ele>
        <time>2010-07-06T08:01:16Z</time>
      </trkpt>
      <trkpt lat="44.87387" lon="6.64887">
        <ele>1811.2612304688</ele>
        <time>2010-07-06T08:01:17Z</time>
      </trkpt>
      <trkpt lat="44.87383" lon="6.6489">
        <ele>1811.7419433594</ele>
        <time>2010-07-06T08:01:21Z</time>
      </trkpt>
      <trkpt lat="44.87357" lon="6.64894">
        <ele>1815.5871582031</ele>
        <time>2010-07-06T08:01:39Z</time>
      </trkpt>
      <trkpt lat="44.87344" lon="6.64907">
        <ele>1816.5483398438</ele>
        <time>2010-07-06T08:01:49Z</time>
      </trkpt>
      <trkpt lat="44.87338" lon="6.64907">
        <ele>1817.5095214844</ele>
        <time>2010-07-06T08:01:54Z</time>
      </trkpt>
      <trkpt lat="44.87316" lon="6.64941">
        <ele>1819.9128417969</ele>
        <time>2010-07-06T08:02:14Z</time>
      </trkpt>
      <trkpt lat="44.87301" lon="6.64965">
        <ele>1823.7583007812</ele>
        <time>2010-07-06T08:02:28Z</time>
      </trkpt>
      <trkpt lat="44.87286" lon="6.64988">
        <ele>1825.6809082031</ele>
        <time>2010-07-06T08:02:44Z</time>
      </trkpt>
      <trkpt lat="44.87269" lon="6.65014">
        <ele>1829.0454101562</ele>
        <time>2010-07-06T08:03:00Z</time>
      </trkpt>
      <trkpt lat="44.8725" lon="6.65027">
        <ele>1830.9682617188</ele>
        <time>2010-07-06T08:03:16Z</time>
      </trkpt>
      <trkpt lat="44.87239" lon="6.65038">
        <ele>1831.9294433594</ele>
        <time>2010-07-06T08:03:25Z</time>
      </trkpt>
      <trkpt lat="44.87211" lon="6.65053">
        <ele>1832.890625</ele>
        <time>2010-07-06T08:03:47Z</time>
      </trkpt>
      <trkpt lat="44.87209" lon="6.65063">
        <ele>1833.8520507812</ele>
        <time>2010-07-06T08:03:52Z</time>
      </trkpt>
      <trkpt lat="44.87218" lon="6.65068">
        <ele>1835.7746582031</ele>
        <time>2010-07-06T08:03:58Z</time>
      </trkpt>
      <trkpt lat="44.87228" lon="6.6507">
        <ele>1838.6589355469</ele>
        <time>2010-07-06T08:04:05Z</time>
      </trkpt>
      <trkpt lat="44.87235" lon="6.65068">
        <ele>1838.6589355469</ele>
        <time>2010-07-06T08:04:09Z</time>
      </trkpt>
      <trkpt lat="44.87254" lon="6.65066">
        <ele>1840.5812988281</ele>
        <time>2010-07-06T08:04:24Z</time>
      </trkpt>
      <trkpt lat="44.87271" lon="6.65063">
        <ele>1843.9460449219</ele>
        <time>2010-07-06T08:04:38Z</time>
      </trkpt>
      <trkpt lat="44.87291" lon="6.65055">
        <ele>1846.8298339844</ele>
        <time>2010-07-06T08:04:54Z</time>
      </trkpt>
      <trkpt lat="44.87295" lon="6.65053">
        <ele>1847.7912597656</ele>
        <time>2010-07-06T08:04:57Z</time>
      </trkpt>
      <trkpt lat="44.87308" lon="6.65027">
        <ele>1849.7138671875</ele>
        <time>2010-07-06T08:05:12Z</time>
      </trkpt>
      <trkpt lat="44.87312" lon="6.6502">
        <ele>1850.6750488281</ele>
        <time>2010-07-06T08:05:17Z</time>
      </trkpt>
      <trkpt lat="44.87312" lon="6.65042">
        <ele>1852.1171875</ele>
        <time>2010-07-06T08:05:28Z</time>
      </trkpt>
      <trkpt lat="44.87299" lon="6.6507">
        <ele>1854.0400390625</ele>
        <time>2010-07-06T08:05:45Z</time>
      </trkpt>
      <trkpt lat="44.87273" lon="6.65089">
        <ele>1856.923828125</ele>
        <time>2010-07-06T08:06:06Z</time>
      </trkpt>
      <trkpt lat="44.87256" lon="6.65106">
        <ele>1860.2883300781</ele>
        <time>2010-07-06T08:06:22Z</time>
      </trkpt>
      <trkpt lat="44.87239" lon="6.65121">
        <ele>1861.73046875</ele>
        <time>2010-07-06T08:06:39Z</time>
      </trkpt>
      <trkpt lat="44.87222" lon="6.65134">
        <ele>1865.0949707031</ele>
        <time>2010-07-06T08:06:54Z</time>
      </trkpt>
      <trkpt lat="44.87211" lon="6.65149">
        <ele>1867.9787597656</ele>
        <time>2010-07-06T08:07:06Z</time>
      </trkpt>
      <trkpt lat="44.87198" lon="6.65169">
        <ele>1870.3823242188</ele>
        <time>2010-07-06T08:07:21Z</time>
      </trkpt>
      <trkpt lat="44.87192" lon="6.65175">
        <ele>1870.3823242188</ele>
        <time>2010-07-06T08:07:26Z</time>
      </trkpt>
      <trkpt lat="44.87181" lon="6.65186">
        <ele>1871.82421875</ele>
        <time>2010-07-06T08:07:35Z</time>
      </trkpt>
      <trkpt lat="44.87153" lon="6.65218">
        <ele>1875.1887207031</ele>
        <time>2010-07-06T08:07:58Z</time>
      </trkpt>
      <trkpt lat="44.8714" lon="6.65229">
        <ele>1876.1501464844</ele>
        <time>2010-07-06T08:08:08Z</time>
      </trkpt>
      <trkpt lat="44.87138" lon="6.65233">
        <ele>1877.1115722656</ele>
        <time>2010-07-06T08:08:11Z</time>
      </trkpt>
      <trkpt lat="44.87149" lon="6.65231">
        <ele>1878.5534667969</ele>
        <time>2010-07-06T08:08:22Z</time>
      </trkpt>
      <trkpt lat="44.87147" lon="6.65224">
        <ele>1879.9953613281</ele>
        <time>2010-07-06T08:09:15Z</time>
      </trkpt>
      <trkpt lat="44.87162" lon="6.65218">
        <ele>1882.8791503906</ele>
        <time>2010-07-06T08:09:27Z</time>
      </trkpt>
      <trkpt lat="44.87164" lon="6.65216">
        <ele>1882.3986816406</ele>
        <time>2010-07-06T08:09:29Z</time>
      </trkpt>
      <trkpt lat="44.87188" lon="6.65207">
        <ele>1883.8405761719</ele>
        <time>2010-07-06T08:09:46Z</time>
      </trkpt>
      <trkpt lat="44.87211" lon="6.65192">
        <ele>1887.2053222656</ele>
        <time>2010-07-06T08:10:03Z</time>
      </trkpt>
      <trkpt lat="44.87233" lon="6.65173">
        <ele>1889.1279296875</ele>
        <time>2010-07-06T08:10:19Z</time>
      </trkpt>
      <trkpt lat="44.87256" lon="6.6516">
        <ele>1892.0119628906</ele>
        <time>2010-07-06T08:10:36Z</time>
      </trkpt>
      <trkpt lat="44.87263" lon="6.65156">
        <ele>1893.4538574219</ele>
        <time>2010-07-06T08:10:41Z</time>
      </trkpt>
      <trkpt lat="44.87308" lon="6.65134">
        <ele>1895.3764648438</ele>
        <time>2010-07-06T08:11:03Z</time>
      </trkpt>
      <trkpt lat="44.87336" lon="6.65132">
        <ele>1898.7409667969</ele>
        <time>2010-07-06T08:11:20Z</time>
      </trkpt>
      <trkpt lat="44.87355" lon="6.65128">
        <ele>1901.14453125</ele>
        <time>2010-07-06T08:11:32Z</time>
      </trkpt>
      <trkpt lat="44.87359" lon="6.65121">
        <ele>1902.1057128906</ele>
        <time>2010-07-06T08:11:37Z</time>
      </trkpt>
      <trkpt lat="44.87394" lon="6.65108">
        <ele>1906.431640625</ele>
        <time>2010-07-06T08:12:01Z</time>
      </trkpt>
      <trkpt lat="44.87417" lon="6.65096">
        <ele>1908.3542480469</ele>
        <time>2010-07-06T08:12:18Z</time>
      </trkpt>
      <trkpt lat="44.87422" lon="6.65098">
        <ele>1908.8349609375</ele>
        <time>2010-07-06T08:12:21Z</time>
      </trkpt>
      <trkpt lat="44.87419" lon="6.65113">
        <ele>1909.7961425781</ele>
        <time>2010-07-06T08:12:44Z</time>
      </trkpt>
      <trkpt lat="44.87419" lon="6.65113">
        <ele>1909.7961425781</ele>
        <time>2010-07-06T08:12:46Z</time>
      </trkpt>
      <trkpt lat="44.87413" lon="6.65121">
        <ele>1909.7961425781</ele>
        <time>2010-07-06T08:12:51Z</time>
      </trkpt>
      <trkpt lat="44.874" lon="6.65134">
        <ele>1913.1608886719</ele>
        <time>2010-07-06T08:13:02Z</time>
      </trkpt>
      <trkpt lat="44.874" lon="6.65136">
        <ele>1912.6801757812</ele>
        <time>2010-07-06T08:13:03Z</time>
      </trkpt>
      <trkpt lat="44.87372" lon="6.65156">
        <ele>1914.1220703125</ele>
        <time>2010-07-06T08:13:23Z</time>
      </trkpt>
      <trkpt lat="44.87359" lon="6.65181">
        <ele>1917.9675292969</ele>
        <time>2010-07-06T08:13:39Z</time>
      </trkpt>
      <trkpt lat="44.87338" lon="6.65194">
        <ele>1920.3708496094</ele>
        <time>2010-07-06T08:13:54Z</time>
      </trkpt>
      <trkpt lat="44.87319" lon="6.65196">
        <ele>1923.7353515625</ele>
        <time>2010-07-06T08:14:09Z</time>
      </trkpt>
      <trkpt lat="44.87284" lon="6.65218">
        <ele>1926.6193847656</ele>
        <time>2010-07-06T08:14:32Z</time>
      </trkpt>
      <trkpt lat="44.87263" lon="6.6525">
        <ele>1929.5031738281</ele>
        <time>2010-07-06T08:14:53Z</time>
      </trkpt>
      <trkpt lat="44.87241" lon="6.65282">
        <ele>1931.9064941406</ele>
        <time>2010-07-06T08:15:14Z</time>
      </trkpt>
      <trkpt lat="44.87224" lon="6.65304">
        <ele>1934.7907714844</ele>
        <time>2010-07-06T08:15:29Z</time>
      </trkpt>
      <trkpt lat="44.87209" lon="6.65327">
        <ele>1938.1552734375</ele>
        <time>2010-07-06T08:15:45Z</time>
      </trkpt>
      <trkpt lat="44.87194" lon="6.6534">
        <ele>1940.0778808594</ele>
        <time>2010-07-06T08:16:00Z</time>
      </trkpt>
      <trkpt lat="44.87196" lon="6.65351">
        <ele>1939.5971679688</ele>
        <time>2010-07-06T08:16:09Z</time>
      </trkpt>
      <trkpt lat="44.87213" lon="6.65342">
        <ele>1942.4812011719</ele>
        <time>2010-07-06T08:16:18Z</time>
      </trkpt>
      <trkpt lat="44.87235" lon="6.65325">
        <ele>1945.3649902344</ele>
        <time>2010-07-06T08:16:35Z</time>
      </trkpt>
      <trkpt lat="44.8725" lon="6.65314">
        <ele>1946.8068847656</ele>
        <time>2010-07-06T08:16:46Z</time>
      </trkpt>
      <trkpt lat="44.87267" lon="6.65299">
        <ele>1948.7297363281</ele>
        <time>2010-07-06T08:17:01Z</time>
      </trkpt>
      <trkpt lat="44.87293" lon="6.65282">
        <ele>1950.65234375</ele>
        <time>2010-07-06T08:17:19Z</time>
      </trkpt>
      <trkpt lat="44.87319" lon="6.65265">
        <ele>1954.9782714844</ele>
        <time>2010-07-06T08:17:39Z</time>
      </trkpt>
      <trkpt lat="44.87321" lon="6.65265">
        <ele>1954.9782714844</ele>
        <time>2010-07-06T08:17:40Z</time>
      </trkpt>
      <trkpt lat="44.87346" lon="6.65265">
        <ele>1957.3815917969</ele>
        <time>2010-07-06T08:17:56Z</time>
      </trkpt>
      <trkpt lat="44.87353" lon="6.65263">
        <ele>1956.9008789062</ele>
        <time>2010-07-06T08:18:00Z</time>
      </trkpt>
      <trkpt lat="44.87357" lon="6.65263">
        <ele>1957.8623046875</ele>
        <time>2010-07-06T08:18:03Z</time>
      </trkpt>
      <trkpt lat="44.87381" lon="6.65261">
        <ele>1959.3041992188</ele>
        <time>2010-07-06T08:18:21Z</time>
      </trkpt>
      <trkpt lat="44.87383" lon="6.65263">
        <ele>1959.7846679688</ele>
        <time>2010-07-06T08:18:23Z</time>
      </trkpt>
      <trkpt lat="44.87391" lon="6.65282">
        <ele>1961.2268066406</ele>
        <time>2010-07-06T08:18:41Z</time>
      </trkpt>
      <trkpt lat="44.87389" lon="6.6528">
        <ele>1961.7075195312</ele>
        <time>2010-07-06T08:19:15Z</time>
      </trkpt>
      <trkpt lat="44.87383" lon="6.65278">
        <ele>1961.7075195312</ele>
        <time>2010-07-06T08:19:22Z</time>
      </trkpt>
      <trkpt lat="44.87396" lon="6.65291">
        <ele>1963.6298828125</ele>
        <time>2010-07-06T08:19:35Z</time>
      </trkpt>
      <trkpt lat="44.874" lon="6.65302">
        <ele>1964.5915527344</ele>
        <time>2010-07-06T08:19:47Z</time>
      </trkpt>
      <trkpt lat="44.87402" lon="6.65317">
        <ele>1966.5141601562</ele>
        <time>2010-07-06T08:19:58Z</time>
      </trkpt>
      <trkpt lat="44.87389" lon="6.65332">
        <ele>1966.5141601562</ele>
        <time>2010-07-06T08:20:20Z</time>
      </trkpt>
      <trkpt lat="44.87387" lon="6.65329">
        <ele>1966.9948730469</ele>
        <time>2010-07-06T08:21:04Z</time>
      </trkpt>
      <trkpt lat="44.87394" lon="6.65325">
        <ele>1966.0334472656</ele>
        <time>2010-07-06T08:22:04Z</time>
      </trkpt>
      <trkpt lat="44.87396" lon="6.65334">
        <ele>1966.9948730469</ele>
        <time>2010-07-06T08:22:10Z</time>
      </trkpt>
      <trkpt lat="44.87372" lon="6.65314">
        <ele>1969.3981933594</ele>
        <time>2010-07-06T08:22:23Z</time>
      </trkpt>
      <trkpt lat="44.8737" lon="6.65308">
        <ele>1969.3981933594</ele>
        <time>2010-07-06T08:22:26Z</time>
      </trkpt>
      <trkpt lat="44.87338" lon="6.65314">
        <ele>1971.3205566406</ele>
        <time>2010-07-06T08:22:41Z</time>
      </trkpt>
      <trkpt lat="44.87325" lon="6.65317">
        <ele>1971.3205566406</ele>
        <time>2010-07-06T08:22:48Z</time>
      </trkpt>
      <trkpt lat="44.87321" lon="6.65325">
        <ele>1973.2434082031</ele>
        <time>2010-07-06T08:22:53Z</time>
      </trkpt>
      <trkpt lat="44.87334" lon="6.65321">
        <ele>1974.2045898438</ele>
        <time>2010-07-06T08:22:58Z</time>
      </trkpt>
      <trkpt lat="44.87344" lon="6.65327">
        <ele>1975.1657714844</ele>
        <time>2010-07-06T08:23:06Z</time>
      </trkpt>
      <trkpt lat="44.87321" lon="6.65332">
        <ele>1977.0886230469</ele>
        <time>2010-07-06T08:23:16Z</time>
      </trkpt>
      <trkpt lat="44.87319" lon="6.65329">
        <ele>1978.0498046875</ele>
        <time>2010-07-06T08:23:30Z</time>
      </trkpt>
      <trkpt lat="44.87316" lon="6.65323">
        <ele>1980.4533691406</ele>
        <time>2010-07-06T08:27:33Z</time>
      </trkpt>
      <trkpt lat="44.87321" lon="6.65332">
        <ele>1981.8952636719</ele>
        <time>2010-07-06T08:27:39Z</time>
      </trkpt>
      <trkpt lat="44.87353" lon="6.65334">
        <ele>1983.8178710938</ele>
        <time>2010-07-06T08:27:55Z</time>
      </trkpt>
      <trkpt lat="44.87357" lon="6.65334">
        <ele>1984.2985839844</ele>
        <time>2010-07-06T08:27:57Z</time>
      </trkpt>
      <trkpt lat="44.87359" lon="6.65327">
        <ele>1985.7404785156</ele>
        <time>2010-07-06T08:28:02Z</time>
      </trkpt>
      <trkpt lat="44.87366" lon="6.65319">
        <ele>1985.259765625</ele>
        <time>2010-07-06T08:28:09Z</time>
      </trkpt>
      <trkpt lat="44.8737" lon="6.65321">
        <ele>1986.7016601562</ele>
        <time>2010-07-06T08:28:25Z</time>
      </trkpt>
      <trkpt lat="44.8737" lon="6.65319">
        <ele>1986.2211914062</ele>
        <time>2010-07-06T08:29:00Z</time>
      </trkpt>
      <trkpt lat="44.87361" lon="6.65314">
        <ele>1985.259765625</ele>
        <time>2010-07-06T08:29:08Z</time>
      </trkpt>
      <trkpt lat="44.87361" lon="6.65317">
        <ele>1985.7404785156</ele>
        <time>2010-07-06T08:29:25Z</time>
      </trkpt>
      <trkpt lat="44.87361" lon="6.65319">
        <ele>1985.7404785156</ele>
        <time>2010-07-06T08:30:26Z</time>
      </trkpt>
      <trkpt lat="44.87357" lon="6.65329">
        <ele>1986.2211914062</ele>
        <time>2010-07-06T08:30:32Z</time>
      </trkpt>
      <trkpt lat="44.87355" lon="6.65338">
        <ele>1985.7404785156</ele>
        <time>2010-07-06T08:30:37Z</time>
      </trkpt>
      <trkpt lat="44.87359" lon="6.65342">
        <ele>1985.259765625</ele>
        <time>2010-07-06T08:30:44Z</time>
      </trkpt>
      <trkpt lat="44.87349" lon="6.65368">
        <ele>1984.779296875</ele>
        <time>2010-07-06T08:31:11Z</time>
      </trkpt>
      <trkpt lat="44.87357" lon="6.65372">
        <ele>1986.2211914062</ele>
        <time>2010-07-06T08:31:22Z</time>
      </trkpt>
      <trkpt lat="44.87359" lon="6.65366">
        <ele>1985.7404785156</ele>
        <time>2010-07-06T08:31:39Z</time>
      </trkpt>
      <trkpt lat="44.87364" lon="6.65366">
        <ele>1986.7016601562</ele>
        <time>2010-07-06T08:31:48Z</time>
      </trkpt>
      <trkpt lat="44.87374" lon="6.65383">
        <ele>1989.1049804688</ele>
        <time>2010-07-06T08:32:04Z</time>
      </trkpt>
      <trkpt lat="44.87372" lon="6.65383">
        <ele>1988.6245117188</ele>
        <time>2010-07-06T08:32:08Z</time>
      </trkpt>
      <trkpt lat="44.87368" lon="6.65381">
        <ele>1989.1049804688</ele>
        <time>2010-07-06T08:32:11Z</time>
      </trkpt>
      <trkpt lat="44.87368" lon="6.65375">
        <ele>1989.1049804688</ele>
        <time>2010-07-06T08:32:15Z</time>
      </trkpt>
      <trkpt lat="44.87364" lon="6.65366">
        <ele>1989.5856933594</ele>
        <time>2010-07-06T08:32:22Z</time>
      </trkpt>
      <trkpt lat="44.87357" lon="6.65364">
        <ele>1990.546875</ele>
        <time>2010-07-06T08:32:28Z</time>
      </trkpt>
      <trkpt lat="44.87353" lon="6.65364">
        <ele>1991.0275878906</ele>
        <time>2010-07-06T08:32:32Z</time>
      </trkpt>
      <trkpt lat="44.87346" lon="6.65362">
        <ele>1991.0275878906</ele>
        <time>2010-07-06T08:32:38Z</time>
      </trkpt>
      <trkpt lat="44.87342" lon="6.65366">
        <ele>1991.9890136719</ele>
        <time>2010-07-06T08:32:43Z</time>
      </trkpt>
      <trkpt lat="44.87319" lon="6.65357">
        <ele>1992.9501953125</ele>
        <time>2010-07-06T08:32:56Z</time>
      </trkpt>
      <trkpt lat="44.87319" lon="6.65357">
        <ele>1992.9501953125</ele>
        <time>2010-07-06T08:32:57Z</time>
      </trkpt>
      <trkpt lat="44.8731" lon="6.65357">
        <ele>1992.9501953125</ele>
        <time>2010-07-06T08:33:03Z</time>
      </trkpt>
      <trkpt lat="44.87312" lon="6.65359">
        <ele>1993.4309082031</ele>
        <time>2010-07-06T08:33:07Z</time>
      </trkpt>
      <trkpt lat="44.87321" lon="6.65355">
        <ele>1993.4309082031</ele>
        <time>2010-07-06T08:33:14Z</time>
      </trkpt>
      <trkpt lat="44.87327" lon="6.65359">
        <ele>1993.4309082031</ele>
        <time>2010-07-06T08:33:32Z</time>
      </trkpt>
      <trkpt lat="44.87349" lon="6.65377">
        <ele>1994.3920898438</ele>
        <time>2010-07-06T08:33:45Z</time>
      </trkpt>
      <trkpt lat="44.87359" lon="6.65394">
        <ele>1996.3151855469</ele>
        <time>2010-07-06T08:33:55Z</time>
      </trkpt>
      <trkpt lat="44.87364" lon="6.65405">
        <ele>1996.7956542969</ele>
        <time>2010-07-06T08:34:00Z</time>
      </trkpt>
      <trkpt lat="44.87374" lon="6.65411">
        <ele>1997.7570800781</ele>
        <time>2010-07-06T08:34:08Z</time>
      </trkpt>
      <trkpt lat="44.87381" lon="6.65413">
        <ele>1998.2375488281</ele>
        <time>2010-07-06T08:34:14Z</time>
      </trkpt>
      <trkpt lat="44.87381" lon="6.65426">
        <ele>1998.7182617188</ele>
        <time>2010-07-06T08:34:20Z</time>
      </trkpt>
      <trkpt lat="44.87364" lon="6.65435">
        <ele>2002.5634765625</ele>
        <time>2010-07-06T08:34:34Z</time>
      </trkpt>
      <trkpt lat="44.87349" lon="6.65441">
        <ele>2004.966796875</ele>
        <time>2010-07-06T08:34:48Z</time>
      </trkpt>
      <trkpt lat="44.87346" lon="6.65443">
        <ele>2004.966796875</ele>
        <time>2010-07-06T08:34:50Z</time>
      </trkpt>
      <trkpt lat="44.87342" lon="6.65447">
        <ele>2005.9279785156</ele>
        <time>2010-07-06T08:34:54Z</time>
      </trkpt>
      <trkpt lat="44.87338" lon="6.65471">
        <ele>2007.8508300781</ele>
        <time>2010-07-06T08:35:09Z</time>
      </trkpt>
      <trkpt lat="44.87346" lon="6.65488">
        <ele>2009.2927246094</ele>
        <time>2010-07-06T08:35:24Z</time>
      </trkpt>
      <trkpt lat="44.87351" lon="6.65497">
        <ele>2011.2153320312</ele>
        <time>2010-07-06T08:35:39Z</time>
      </trkpt>
      <trkpt lat="44.87353" lon="6.65495">
        <ele>2010.7346191406</ele>
        <time>2010-07-06T08:35:42Z</time>
      </trkpt>
      <trkpt lat="44.87357" lon="6.6549">
        <ele>2011.2153320312</ele>
        <time>2010-07-06T08:35:46Z</time>
      </trkpt>
      <trkpt lat="44.87366" lon="6.65488">
        <ele>2011.2153320312</ele>
        <time>2010-07-06T08:36:00Z</time>
      </trkpt>
      <trkpt lat="44.87368" lon="6.6549">
        <ele>2012.6574707031</ele>
        <time>2010-07-06T08:36:36Z</time>
      </trkpt>
      <trkpt lat="44.87344" lon="6.65499">
        <ele>2012.6574707031</ele>
        <time>2010-07-06T08:36:53Z</time>
      </trkpt>
      <trkpt lat="44.87338" lon="6.65499">
        <ele>2013.6186523438</ele>
        <time>2010-07-06T08:37:07Z</time>
      </trkpt>
      <trkpt lat="44.87338" lon="6.65499">
        <ele>2014.0993652344</ele>
        <time>2010-07-06T08:37:22Z</time>
      </trkpt>
      <trkpt lat="44.8734" lon="6.65497">
        <ele>2013.6186523438</ele>
        <time>2010-07-06T08:37:25Z</time>
      </trkpt>
      <trkpt lat="44.87338" lon="6.65478">
        <ele>2010.7346191406</ele>
        <time>2010-07-06T08:37:31Z</time>
      </trkpt>
      <trkpt lat="44.87338" lon="6.65465">
        <ele>2009.2927246094</ele>
        <time>2010-07-06T08:37:34Z</time>
      </trkpt>
      <trkpt lat="44.87342" lon="6.65445">
        <ele>2005.4475097656</ele>
        <time>2010-07-06T08:37:38Z</time>
      </trkpt>
      <trkpt lat="44.87355" lon="6.6543">
        <ele>2004.0056152344</ele>
        <time>2010-07-06T08:37:42Z</time>
      </trkpt>
      <trkpt lat="44.87372" lon="6.65422">
        <ele>2001.6022949219</ele>
        <time>2010-07-06T08:37:47Z</time>
      </trkpt>
      <trkpt lat="44.87372" lon="6.65411">
        <ele>1999.6796875</ele>
        <time>2010-07-06T08:37:50Z</time>
      </trkpt>
      <trkpt lat="44.87368" lon="6.65409">
        <ele>1998.7182617188</ele>
        <time>2010-07-06T08:37:52Z</time>
      </trkpt>
      <trkpt lat="44.87353" lon="6.65392">
        <ele>1998.7182617188</ele>
        <time>2010-07-06T08:37:56Z</time>
      </trkpt>
      <trkpt lat="44.87342" lon="6.65368">
        <ele>1996.3151855469</ele>
        <time>2010-07-06T08:38:00Z</time>
      </trkpt>
      <trkpt lat="44.8734" lon="6.65362">
        <ele>1995.353515625</ele>
        <time>2010-07-06T08:38:01Z</time>
      </trkpt>
      <trkpt lat="44.87342" lon="6.65357">
        <ele>1995.353515625</ele>
        <time>2010-07-06T08:38:05Z</time>
      </trkpt>
      <trkpt lat="44.87372" lon="6.6537">
        <ele>1991.9890136719</ele>
        <time>2010-07-06T08:38:15Z</time>
      </trkpt>
      <trkpt lat="44.87374" lon="6.65372">
        <ele>1991.9890136719</ele>
        <time>2010-07-06T08:38:16Z</time>
      </trkpt>
      <trkpt lat="44.87368" lon="6.65359">
        <ele>1988.1437988281</ele>
        <time>2010-07-06T08:38:24Z</time>
      </trkpt>
      <trkpt lat="44.87364" lon="6.65355">
        <ele>1987.6630859375</ele>
        <time>2010-07-06T08:38:26Z</time>
      </trkpt>
      <trkpt lat="44.87359" lon="6.65349">
        <ele>1986.7016601562</ele>
        <time>2010-07-06T08:38:28Z</time>
      </trkpt>
      <trkpt lat="44.87351" lon="6.65336">
        <ele>1986.2211914062</ele>
        <time>2010-07-06T08:38:32Z</time>
      </trkpt>
      <trkpt lat="44.87338" lon="6.65334">
        <ele>1984.779296875</ele>
        <time>2010-07-06T08:38:35Z</time>
      </trkpt>
      <trkpt lat="44.87316" lon="6.65332">
        <ele>1982.8564453125</ele>
        <time>2010-07-06T08:38:41Z</time>
      </trkpt>
      <trkpt lat="44.87344" lon="6.65325">
        <ele>1980.9340820312</ele>
        <time>2010-07-06T08:38:50Z</time>
      </trkpt>
      <trkpt lat="44.8734" lon="6.65319">
        <ele>1981.4145507812</ele>
        <time>2010-07-06T08:38:53Z</time>
      </trkpt>
      <trkpt lat="44.87327" lon="6.65321">
        <ele>1979.9724121094</ele>
        <time>2010-07-06T08:38:57Z</time>
      </trkpt>
      <trkpt lat="44.87331" lon="6.6531">
        <ele>1978.0498046875</ele>
        <time>2010-07-06T08:39:03Z</time>
      </trkpt>
      <trkpt lat="44.87346" lon="6.65304">
        <ele>1976.6079101562</ele>
        <time>2010-07-06T08:39:12Z</time>
      </trkpt>
      <trkpt lat="44.87346" lon="6.65304">
        <ele>1976.6079101562</ele>
        <time>2010-07-06T08:39:15Z</time>
      </trkpt>
      <trkpt lat="44.87372" lon="6.65312">
        <ele>1976.1271972656</ele>
        <time>2010-07-06T08:39:27Z</time>
      </trkpt>
      <trkpt lat="44.87391" lon="6.65327">
        <ele>1976.1271972656</ele>
        <time>2010-07-06T08:39:39Z</time>
      </trkpt>
      <trkpt lat="44.874" lon="6.65325">
        <ele>1974.6853027344</ele>
        <time>2010-07-06T08:39:43Z</time>
      </trkpt>
      <trkpt lat="44.87398" lon="6.65304">
        <ele>1972.7626953125</ele>
        <time>2010-07-06T08:39:54Z</time>
      </trkpt>
      <trkpt lat="44.87394" lon="6.65299">
        <ele>1972.2819824219</ele>
        <time>2010-07-06T08:40:11Z</time>
      </trkpt>
      <trkpt lat="44.87396" lon="6.65293">
        <ele>1970.8400878906</ele>
        <time>2010-07-06T08:40:20Z</time>
      </trkpt>
      <trkpt lat="44.87396" lon="6.65293">
        <ele>1970.8400878906</ele>
        <time>2010-07-06T08:40:47Z</time>
      </trkpt>
      <trkpt lat="44.87387" lon="6.6528">
        <ele>1969.8786621094</ele>
        <time>2010-07-06T08:40:53Z</time>
      </trkpt>
      <trkpt lat="44.87357" lon="6.65293">
        <ele>1969.3981933594</ele>
        <time>2010-07-06T08:41:04Z</time>
      </trkpt>
      <trkpt lat="44.87338" lon="6.65295">
        <ele>1972.2819824219</ele>
        <time>2010-07-06T08:41:13Z</time>
      </trkpt>
      <trkpt lat="44.87316" lon="6.65297">
        <ele>1972.7626953125</ele>
        <time>2010-07-06T08:41:28Z</time>
      </trkpt>
      <trkpt lat="44.87295" lon="6.65314">
        <ele>1972.2819824219</ele>
        <time>2010-07-06T08:42:26Z</time>
      </trkpt>
      <trkpt lat="44.87256" lon="6.65368">
        <ele>1971.3205566406</ele>
        <time>2010-07-06T08:42:43Z</time>
      </trkpt>
      <trkpt lat="44.87216" lon="6.65415">
        <ele>1970.8400878906</ele>
        <time>2010-07-06T08:43:00Z</time>
      </trkpt>
      <trkpt lat="44.87211" lon="6.65417">
        <ele>1970.8400878906</ele>
        <time>2010-07-06T08:43:01Z</time>
      </trkpt>
      <trkpt lat="44.87205" lon="6.65437">
        <ele>1971.3205566406</ele>
        <time>2010-07-06T08:43:06Z</time>
      </trkpt>
      <trkpt lat="44.87196" lon="6.65482">
        <ele>1971.3205566406</ele>
        <time>2010-07-06T08:43:18Z</time>
      </trkpt>
      <trkpt lat="44.87147" lon="6.65473">
        <ele>1973.7238769531</ele>
        <time>2010-07-06T08:43:41Z</time>
      </trkpt>
      <trkpt lat="44.87108" lon="6.65475">
        <ele>1976.6079101562</ele>
        <time>2010-07-06T08:44:00Z</time>
      </trkpt>
      <trkpt lat="44.87059" lon="6.6549">
        <ele>1978.5305175781</ele>
        <time>2010-07-06T08:44:25Z</time>
      </trkpt>
      <trkpt lat="44.87018" lon="6.65503">
        <ele>1979.4916992188</ele>
        <time>2010-07-06T08:44:43Z</time>
      </trkpt>
      <trkpt lat="44.86973" lon="6.65503">
        <ele>1981.8952636719</ele>
        <time>2010-07-06T08:45:05Z</time>
      </trkpt>
      <trkpt lat="44.86928" lon="6.65535">
        <ele>1984.2985839844</ele>
        <time>2010-07-06T08:45:26Z</time>
      </trkpt>
      <trkpt lat="44.86885" lon="6.65557">
        <ele>1987.6630859375</ele>
        <time>2010-07-06T08:45:44Z</time>
      </trkpt>
      <trkpt lat="44.86831" lon="6.6557">
        <ele>1988.1437988281</ele>
        <time>2010-07-06T08:46:05Z</time>
      </trkpt>
      <trkpt lat="44.86765" lon="6.65585">
        <ele>1989.5856933594</ele>
        <time>2010-07-06T08:46:30Z</time>
      </trkpt>
      <trkpt lat="44.86737" lon="6.65581">
        <ele>1990.546875</ele>
        <time>2010-07-06T08:46:49Z</time>
      </trkpt>
      <trkpt lat="44.86731" lon="6.65581">
        <ele>1991.0275878906</ele>
        <time>2010-07-06T08:47:10Z</time>
      </trkpt>
      <trkpt lat="44.86718" lon="6.65585">
        <ele>1991.9890136719</ele>
        <time>2010-07-06T08:47:17Z</time>
      </trkpt>
      <trkpt lat="44.86688" lon="6.65591">
        <ele>1995.353515625</ele>
        <time>2010-07-06T08:47:31Z</time>
      </trkpt>
      <trkpt lat="44.86664" lon="6.65615">
        <ele>1998.2375488281</ele>
        <time>2010-07-06T08:47:49Z</time>
      </trkpt>
      <trkpt lat="44.86634" lon="6.65628">
        <ele>2001.1215820312</ele>
        <time>2010-07-06T08:48:08Z</time>
      </trkpt>
      <trkpt lat="44.86615" lon="6.6566">
        <ele>2004.4860839844</ele>
        <time>2010-07-06T08:48:27Z</time>
      </trkpt>
      <trkpt lat="44.86598" lon="6.65688">
        <ele>2007.3701171875</ele>
        <time>2010-07-06T08:48:45Z</time>
      </trkpt>
      <trkpt lat="44.86591" lon="6.65696">
        <ele>2009.2927246094</ele>
        <time>2010-07-06T08:48:51Z</time>
      </trkpt>
      <trkpt lat="44.8657" lon="6.65729">
        <ele>2011.6960449219</ele>
        <time>2010-07-06T08:49:12Z</time>
      </trkpt>
      <trkpt lat="44.8654" lon="6.6575">
        <ele>2014.580078125</ele>
        <time>2010-07-06T08:49:34Z</time>
      </trkpt>
      <trkpt lat="44.86522" lon="6.65765">
        <ele>2016.5026855469</ele>
        <time>2010-07-06T08:49:47Z</time>
      </trkpt>
      <trkpt lat="44.86516" lon="6.65767">
        <ele>2016.9833984375</ele>
        <time>2010-07-06T08:49:51Z</time>
      </trkpt>
      <trkpt lat="44.86516" lon="6.65771">
        <ele>2017.4638671875</ele>
        <time>2010-07-06T08:49:53Z</time>
      </trkpt>
      <trkpt lat="44.86529" lon="6.65767">
        <ele>2018.4252929688</ele>
        <time>2010-07-06T08:50:05Z</time>
      </trkpt>
      <trkpt lat="44.86555" lon="6.65759">
        <ele>2020.3479003906</ele>
        <time>2010-07-06T08:50:24Z</time>
      </trkpt>
      <trkpt lat="44.8657" lon="6.65754">
        <ele>2021.7897949219</ele>
        <time>2010-07-06T08:50:37Z</time>
      </trkpt>
      <trkpt lat="44.86587" lon="6.65748">
        <ele>2023.7124023438</ele>
        <time>2010-07-06T08:50:51Z</time>
      </trkpt>
      <trkpt lat="44.86608" lon="6.65741">
        <ele>2027.5576171875</ele>
        <time>2010-07-06T08:51:08Z</time>
      </trkpt>
      <trkpt lat="44.86615" lon="6.65733">
        <ele>2028.0385742188</ele>
        <time>2010-07-06T08:51:14Z</time>
      </trkpt>
      <trkpt lat="44.86634" lon="6.65714">
        <ele>2029.9611816406</ele>
        <time>2010-07-06T08:51:31Z</time>
      </trkpt>
      <trkpt lat="44.86655" lon="6.65709">
        <ele>2033.3256835938</ele>
        <time>2010-07-06T08:51:47Z</time>
      </trkpt>
      <trkpt lat="44.86662" lon="6.65707">
        <ele>2034.287109375</ele>
        <time>2010-07-06T08:51:52Z</time>
      </trkpt>
      <trkpt lat="44.86668" lon="6.65701">
        <ele>2035.2482910156</ele>
        <time>2010-07-06T08:51:58Z</time>
      </trkpt>
      <trkpt lat="44.86677" lon="6.65692">
        <ele>2036.6901855469</ele>
        <time>2010-07-06T08:52:05Z</time>
      </trkpt>
      <trkpt lat="44.86701" lon="6.65684">
        <ele>2040.0549316406</ele>
        <time>2010-07-06T08:52:22Z</time>
      </trkpt>
      <trkpt lat="44.8672" lon="6.65671">
        <ele>2041.4968261719</ele>
        <time>2010-07-06T08:52:35Z</time>
      </trkpt>
      <trkpt lat="44.86739" lon="6.65645">
        <ele>2042.9387207031</ele>
        <time>2010-07-06T08:52:54Z</time>
      </trkpt>
      <trkpt lat="44.86743" lon="6.65641">
        <ele>2042.9387207031</ele>
        <time>2010-07-06T08:52:58Z</time>
      </trkpt>
      <trkpt lat="44.86769" lon="6.65656">
        <ele>2045.8229980469</ele>
        <time>2010-07-06T08:53:16Z</time>
      </trkpt>
      <trkpt lat="44.86793" lon="6.65673">
        <ele>2047.7456054688</ele>
        <time>2010-07-06T08:53:33Z</time>
      </trkpt>
      <trkpt lat="44.86795" lon="6.65673">
        <ele>2048.2260742188</ele>
        <time>2010-07-06T08:53:34Z</time>
      </trkpt>
      <trkpt lat="44.86827" lon="6.65679">
        <ele>2051.1101074219</ele>
        <time>2010-07-06T08:53:57Z</time>
      </trkpt>
      <trkpt lat="44.86853" lon="6.65701">
        <ele>2054.474609375</ele>
        <time>2010-07-06T08:54:19Z</time>
      </trkpt>
      <trkpt lat="44.86881" lon="6.65718">
        <ele>2057.8393554688</ele>
        <time>2010-07-06T08:54:39Z</time>
      </trkpt>
      <trkpt lat="44.86911" lon="6.65716">
        <ele>2060.7233886719</ele>
        <time>2010-07-06T08:54:58Z</time>
      </trkpt>
      <trkpt lat="44.86932" lon="6.65718">
        <ele>2062.6459960938</ele>
        <time>2010-07-06T08:55:13Z</time>
      </trkpt>
      <trkpt lat="44.86958" lon="6.65709">
        <ele>2064.5686035156</ele>
        <time>2010-07-06T08:55:31Z</time>
      </trkpt>
      <trkpt lat="44.86973" lon="6.65703">
        <ele>2066.0104980469</ele>
        <time>2010-07-06T08:55:44Z</time>
      </trkpt>
      <trkpt lat="44.86977" lon="6.65703">
        <ele>2066.9719238281</ele>
        <time>2010-07-06T08:56:02Z</time>
      </trkpt>
      <trkpt lat="44.86977" lon="6.65701">
        <ele>2066.9719238281</ele>
        <time>2010-07-06T08:56:17Z</time>
      </trkpt>
      <trkpt lat="44.86984" lon="6.65701">
        <ele>2067.4523925781</ele>
        <time>2010-07-06T08:56:22Z</time>
      </trkpt>
      <trkpt lat="44.86982" lon="6.65711">
        <ele>2067.9331054688</ele>
        <time>2010-07-06T08:56:30Z</time>
      </trkpt>
      <trkpt lat="44.86977" lon="6.65714">
        <ele>2067.9331054688</ele>
        <time>2010-07-06T08:56:45Z</time>
      </trkpt>
      <trkpt lat="44.86967" lon="6.65718">
        <ele>2069.3752441406</ele>
        <time>2010-07-06T08:57:13Z</time>
      </trkpt>
      <trkpt lat="44.86945" lon="6.65735">
        <ele>2073.2204589844</ele>
        <time>2010-07-06T08:57:30Z</time>
      </trkpt>
      <trkpt lat="44.86924" lon="6.65754">
        <ele>2076.1044921875</ele>
        <time>2010-07-06T08:57:49Z</time>
      </trkpt>
      <trkpt lat="44.86902" lon="6.65778">
        <ele>2078.0270996094</ele>
        <time>2010-07-06T08:58:09Z</time>
      </trkpt>
      <trkpt lat="44.86883" lon="6.65789">
        <ele>2081.3916015625</ele>
        <time>2010-07-06T08:58:23Z</time>
      </trkpt>
      <trkpt lat="44.86859" lon="6.65795">
        <ele>2084.2756347656</ele>
        <time>2010-07-06T08:58:39Z</time>
      </trkpt>
      <trkpt lat="44.86831" lon="6.65791">
        <ele>2085.2368164062</ele>
        <time>2010-07-06T08:59:00Z</time>
      </trkpt>
      <trkpt lat="44.86823" lon="6.65784">
        <ele>2086.1982421875</ele>
        <time>2010-07-06T08:59:07Z</time>
      </trkpt>
      <trkpt lat="44.86816" lon="6.65793">
        <ele>2086.6787109375</ele>
        <time>2010-07-06T08:59:15Z</time>
      </trkpt>
      <trkpt lat="44.86823" lon="6.65806">
        <ele>2089.08203125</ele>
        <time>2010-07-06T08:59:26Z</time>
      </trkpt>
      <trkpt lat="44.86836" lon="6.6581">
        <ele>2090.5239257812</ele>
        <time>2010-07-06T08:59:43Z</time>
      </trkpt>
      <trkpt lat="44.86859" lon="6.65823">
        <ele>2093.408203125</ele>
        <time>2010-07-06T09:00:08Z</time>
      </trkpt>
      <trkpt lat="44.86864" lon="6.65823">
        <ele>2094.3693847656</ele>
        <time>2010-07-06T09:00:10Z</time>
      </trkpt>
      <trkpt lat="44.8687" lon="6.65827">
        <ele>2094.3693847656</ele>
        <time>2010-07-06T09:00:16Z</time>
      </trkpt>
      <trkpt lat="44.86876" lon="6.65825">
        <ele>2094.8500976562</ele>
        <time>2010-07-06T09:00:21Z</time>
      </trkpt>
      <trkpt lat="44.86881" lon="6.65838">
        <ele>2095.8115234375</ele>
        <time>2010-07-06T09:00:34Z</time>
      </trkpt>
      <trkpt lat="44.86879" lon="6.65838">
        <ele>2095.8115234375</ele>
        <time>2010-07-06T09:00:35Z</time>
      </trkpt>
      <trkpt lat="44.86842" lon="6.65823">
        <ele>2097.7341308594</ele>
        <time>2010-07-06T09:01:00Z</time>
      </trkpt>
      <trkpt lat="44.86823" lon="6.65827">
        <ele>2099.1760253906</ele>
        <time>2010-07-06T09:01:13Z</time>
      </trkpt>
      <trkpt lat="44.86791" lon="6.65812">
        <ele>2101.0986328125</ele>
        <time>2010-07-06T09:01:36Z</time>
      </trkpt>
      <trkpt lat="44.86769" lon="6.65808">
        <ele>2104.4631347656</ele>
        <time>2010-07-06T09:01:53Z</time>
      </trkpt>
      <trkpt lat="44.86748" lon="6.65814">
        <ele>2107.3471679688</ele>
        <time>2010-07-06T09:02:11Z</time>
      </trkpt>
      <trkpt lat="44.86731" lon="6.65844">
        <ele>2110.7119140625</ele>
        <time>2010-07-06T09:02:32Z</time>
      </trkpt>
      <trkpt lat="44.86718" lon="6.65877">
        <ele>2113.595703125</ele>
        <time>2010-07-06T09:02:50Z</time>
      </trkpt>
      <trkpt lat="44.86705" lon="6.65907">
        <ele>2115.9990234375</ele>
        <time>2010-07-06T09:03:08Z</time>
      </trkpt>
      <trkpt lat="44.86692" lon="6.65924">
        <ele>2116.4797363281</ele>
        <time>2010-07-06T09:03:20Z</time>
      </trkpt>
      <trkpt lat="44.86692" lon="6.65924">
        <ele>2120.3249511719</ele>
        <time>2010-07-06T09:03:21Z</time>
      </trkpt>
      <trkpt lat="44.8669" lon="6.65926">
        <ele>2118.8830566406</ele>
        <time>2010-07-06T09:03:22Z</time>
      </trkpt>
      <trkpt lat="44.8667" lon="6.65952">
        <ele>2121.2861328125</ele>
        <time>2010-07-06T09:03:41Z</time>
      </trkpt>
      <trkpt lat="44.8666" lon="6.65977">
        <ele>2124.1704101562</ele>
        <time>2010-07-06T09:03:57Z</time>
      </trkpt>
      <trkpt lat="44.86643" lon="6.6601">
        <ele>2127.5349121094</ele>
        <time>2010-07-06T09:04:19Z</time>
      </trkpt>
      <trkpt lat="44.86619" lon="6.66035">
        <ele>2130.4189453125</ele>
        <time>2010-07-06T09:04:40Z</time>
      </trkpt>
      <trkpt lat="44.86598" lon="6.66048">
        <ele>2133.7834472656</ele>
        <time>2010-07-06T09:04:56Z</time>
      </trkpt>
      <trkpt lat="44.86595" lon="6.6605">
        <ele>2133.7834472656</ele>
        <time>2010-07-06T09:04:58Z</time>
      </trkpt>
      <trkpt lat="44.86583" lon="6.66087">
        <ele>2135.7060546875</ele>
        <time>2010-07-06T09:05:19Z</time>
      </trkpt>
      <trkpt lat="44.86583" lon="6.66095">
        <ele>2135.7060546875</ele>
        <time>2010-07-06T09:05:23Z</time>
      </trkpt>
      <trkpt lat="44.86585" lon="6.661">
        <ele>2136.6672363281</ele>
        <time>2010-07-06T09:05:39Z</time>
      </trkpt>
      <trkpt lat="44.86587" lon="6.66108">
        <ele>2136.6672363281</ele>
        <time>2010-07-06T09:06:13Z</time>
      </trkpt>
      <trkpt lat="44.86589" lon="6.66106">
        <ele>2139.5512695312</ele>
        <time>2010-07-06T09:07:53Z</time>
      </trkpt>
      <trkpt lat="44.86589" lon="6.66104">
        <ele>2140.5126953125</ele>
        <time>2010-07-06T09:10:29Z</time>
      </trkpt>
      <trkpt lat="44.86593" lon="6.66102">
        <ele>2139.5512695312</ele>
        <time>2010-07-06T09:10:38Z</time>
      </trkpt>
      <trkpt lat="44.86598" lon="6.66102">
        <ele>2139.5512695312</ele>
        <time>2010-07-06T09:10:42Z</time>
      </trkpt>
      <trkpt lat="44.86621" lon="6.66102">
        <ele>2141.4741210938</ele>
        <time>2010-07-06T09:11:01Z</time>
      </trkpt>
      <trkpt lat="44.8664" lon="6.66087">
        <ele>2143.8774414062</ele>
        <time>2010-07-06T09:11:19Z</time>
      </trkpt>
      <trkpt lat="44.86658" lon="6.6607">
        <ele>2147.2419433594</ele>
        <time>2010-07-06T09:11:35Z</time>
      </trkpt>
      <trkpt lat="44.86677" lon="6.66057">
        <ele>2151.0871582031</ele>
        <time>2010-07-06T09:11:55Z</time>
      </trkpt>
      <trkpt lat="44.8669" lon="6.66055">
        <ele>2150.1259765625</ele>
        <time>2010-07-06T09:12:04Z</time>
      </trkpt>
      <trkpt lat="44.86705" lon="6.66072">
        <ele>2153.4904785156</ele>
        <time>2010-07-06T09:12:18Z</time>
      </trkpt>
      <trkpt lat="44.86728" lon="6.66093">
        <ele>2156.8552246094</ele>
        <time>2010-07-06T09:12:37Z</time>
      </trkpt>
      <trkpt lat="44.86746" lon="6.66123">
        <ele>2159.7390136719</ele>
        <time>2010-07-06T09:12:58Z</time>
      </trkpt>
      <trkpt lat="44.86756" lon="6.66143">
        <ele>2160.7004394531</ele>
        <time>2010-07-06T09:13:11Z</time>
      </trkpt>
      <trkpt lat="44.86748" lon="6.66145">
        <ele>2161.6618652344</ele>
        <time>2010-07-06T09:13:21Z</time>
      </trkpt>
      <trkpt lat="44.8672" lon="6.66134">
        <ele>2164.5456542969</ele>
        <time>2010-07-06T09:13:41Z</time>
      </trkpt>
      <trkpt lat="44.8672" lon="6.66134">
        <ele>2164.5456542969</ele>
        <time>2010-07-06T09:13:42Z</time>
      </trkpt>
      <trkpt lat="44.86707" lon="6.66145">
        <ele>2165.0263671875</ele>
        <time>2010-07-06T09:13:52Z</time>
      </trkpt>
      <trkpt lat="44.86681" lon="6.66173">
        <ele>2165.9875488281</ele>
        <time>2010-07-06T09:14:12Z</time>
      </trkpt>
      <trkpt lat="44.8666" lon="6.66198">
        <ele>2169.3522949219</ele>
        <time>2010-07-06T09:14:32Z</time>
      </trkpt>
      <trkpt lat="44.86636" lon="6.66235">
        <ele>2172.7170410156</ele>
        <time>2010-07-06T09:14:55Z</time>
      </trkpt>
      <trkpt lat="44.86634" lon="6.66237">
        <ele>2172.7170410156</ele>
        <time>2010-07-06T09:14:56Z</time>
      </trkpt>
      <trkpt lat="44.86619" lon="6.66274">
        <ele>2176.0815429688</ele>
        <time>2010-07-06T09:15:17Z</time>
      </trkpt>
      <trkpt lat="44.86604" lon="6.66301">
        <ele>2179.9267578125</ele>
        <time>2010-07-06T09:15:33Z</time>
      </trkpt>
      <trkpt lat="44.86587" lon="6.66323">
        <ele>2181.3686523438</ele>
        <time>2010-07-06T09:15:47Z</time>
      </trkpt>
      <trkpt lat="44.86578" lon="6.6634">
        <ele>2181.8493652344</ele>
        <time>2010-07-06T09:15:56Z</time>
      </trkpt>
      <trkpt lat="44.86567" lon="6.66374">
        <ele>2185.6945800781</ele>
        <time>2010-07-06T09:16:16Z</time>
      </trkpt>
      <trkpt lat="44.86546" lon="6.66398">
        <ele>2189.0593261719</ele>
        <time>2010-07-06T09:16:35Z</time>
      </trkpt>
      <trkpt lat="44.86516" lon="6.66413">
        <ele>2192.4240722656</ele>
        <time>2010-07-06T09:16:57Z</time>
      </trkpt>
      <trkpt lat="44.86514" lon="6.66415">
        <ele>2191.943359375</ele>
        <time>2010-07-06T09:16:59Z</time>
      </trkpt>
      <trkpt lat="44.86505" lon="6.6642">
        <ele>2194.3464355469</ele>
        <time>2010-07-06T09:17:05Z</time>
      </trkpt>
      <trkpt lat="44.86462" lon="6.6642">
        <ele>2196.2692871094</ele>
        <time>2010-07-06T09:17:31Z</time>
      </trkpt>
      <trkpt lat="44.86445" lon="6.6643">
        <ele>2199.6337890625</ele>
        <time>2010-07-06T09:17:44Z</time>
      </trkpt>
      <trkpt lat="44.86419" lon="6.6645">
        <ele>2202.517578125</ele>
        <time>2010-07-06T09:18:06Z</time>
      </trkpt>
      <trkpt lat="44.86409" lon="6.66469">
        <ele>2205.8823242188</ele>
        <time>2010-07-06T09:18:20Z</time>
      </trkpt>
      <trkpt lat="44.86389" lon="6.66495">
        <ele>2209.2470703125</ele>
        <time>2010-07-06T09:18:39Z</time>
      </trkpt>
      <trkpt lat="44.86366" lon="6.66512">
        <ele>2210.6889648438</ele>
        <time>2010-07-06T09:18:56Z</time>
      </trkpt>
      <trkpt lat="44.86338" lon="6.66548">
        <ele>2212.6115722656</ele>
        <time>2010-07-06T09:19:17Z</time>
      </trkpt>
      <trkpt lat="44.86319" lon="6.66593">
        <ele>2215.4956054688</ele>
        <time>2010-07-06T09:19:37Z</time>
      </trkpt>
      <trkpt lat="44.86306" lon="6.6666">
        <ele>2217.8986816406</ele>
        <time>2010-07-06T09:20:05Z</time>
      </trkpt>
      <trkpt lat="44.86284" lon="6.66692">
        <ele>2221.2634277344</ele>
        <time>2010-07-06T09:20:25Z</time>
      </trkpt>
      <trkpt lat="44.86271" lon="6.6672">
        <ele>2223.1862792969</ele>
        <time>2010-07-06T09:20:41Z</time>
      </trkpt>
      <trkpt lat="44.86263" lon="6.66722">
        <ele>2224.6281738281</ele>
        <time>2010-07-06T09:20:46Z</time>
      </trkpt>
      <trkpt lat="44.86233" lon="6.66726">
        <ele>2227.5119628906</ele>
        <time>2010-07-06T09:21:06Z</time>
      </trkpt>
      <trkpt lat="44.86231" lon="6.66731">
        <ele>2227.9926757812</ele>
        <time>2010-07-06T09:21:09Z</time>
      </trkpt>
      <trkpt lat="44.8622" lon="6.66737">
        <ele>2228.9538574219</ele>
        <time>2010-07-06T09:21:18Z</time>
      </trkpt>
      <trkpt lat="44.86201" lon="6.66767">
        <ele>2232.7990722656</ele>
        <time>2010-07-06T09:21:41Z</time>
      </trkpt>
      <trkpt lat="44.86179" lon="6.66795">
        <ele>2234.7219238281</ele>
        <time>2010-07-06T09:22:00Z</time>
      </trkpt>
      <trkpt lat="44.86171" lon="6.66838">
        <ele>2237.6059570312</ele>
        <time>2010-07-06T09:22:22Z</time>
      </trkpt>
      <trkpt lat="44.86143" lon="6.66857">
        <ele>2240.4897460938</ele>
        <time>2010-07-06T09:22:42Z</time>
      </trkpt>
      <trkpt lat="44.86132" lon="6.66859">
        <ele>2241.9318847656</ele>
        <time>2010-07-06T09:22:48Z</time>
      </trkpt>
      <trkpt lat="44.86128" lon="6.66859">
        <ele>2243.3737792969</ele>
        <time>2010-07-06T09:22:51Z</time>
      </trkpt>
      <trkpt lat="44.86102" lon="6.66842">
        <ele>2246.2578125</ele>
        <time>2010-07-06T09:23:10Z</time>
      </trkpt>
      <trkpt lat="44.861" lon="6.66844">
        <ele>2246.73828125</ele>
        <time>2010-07-06T09:23:12Z</time>
      </trkpt>
      <trkpt lat="44.86098" lon="6.66849">
        <ele>2247.2189941406</ele>
        <time>2010-07-06T09:23:16Z</time>
      </trkpt>
      <trkpt lat="44.86098" lon="6.66853">
        <ele>2246.73828125</ele>
        <time>2010-07-06T09:23:18Z</time>
      </trkpt>
      <trkpt lat="44.86095" lon="6.66862">
        <ele>2247.2189941406</ele>
        <time>2010-07-06T09:23:33Z</time>
      </trkpt>
      <trkpt lat="44.86091" lon="6.66862">
        <ele>2248.1801757812</ele>
        <time>2010-07-06T09:23:55Z</time>
      </trkpt>
      <trkpt lat="44.8608" lon="6.66862">
        <ele>2245.7770996094</ele>
        <time>2010-07-06T09:24:03Z</time>
      </trkpt>
      <trkpt lat="44.86059" lon="6.66872">
        <ele>2245.2963867188</ele>
        <time>2010-07-06T09:24:13Z</time>
      </trkpt>
      <trkpt lat="44.86042" lon="6.66864">
        <ele>2243.3737792969</ele>
        <time>2010-07-06T09:24:26Z</time>
      </trkpt>
      <trkpt lat="44.86035" lon="6.66864">
        <ele>2244.3349609375</ele>
        <time>2010-07-06T09:24:40Z</time>
      </trkpt>
      <trkpt lat="44.86029" lon="6.66864">
        <ele>2244.8156738281</ele>
        <time>2010-07-06T09:24:46Z</time>
      </trkpt>
      <trkpt lat="44.86014" lon="6.66866">
        <ele>2244.8156738281</ele>
        <time>2010-07-06T09:25:00Z</time>
      </trkpt>
      <trkpt lat="44.86014" lon="6.6687">
        <ele>2248.1801757812</ele>
        <time>2010-07-06T09:26:42Z</time>
      </trkpt>
      <trkpt lat="44.86014" lon="6.6687">
        <ele>2248.1801757812</ele>
        <time>2010-07-06T09:26:43Z</time>
      </trkpt>
      <trkpt lat="44.86014" lon="6.66868">
        <ele>2247.6997070312</ele>
        <time>2010-07-06T09:26:46Z</time>
      </trkpt>
      <trkpt lat="44.86044" lon="6.66868">
        <ele>2244.8156738281</ele>
        <time>2010-07-06T09:26:58Z</time>
      </trkpt>
      <trkpt lat="44.86046" lon="6.6687">
        <ele>2244.8156738281</ele>
        <time>2010-07-06T09:26:59Z</time>
      </trkpt>
      <trkpt lat="44.86059" lon="6.66877">
        <ele>2245.2963867188</ele>
        <time>2010-07-06T09:27:08Z</time>
      </trkpt>
      <trkpt lat="44.86074" lon="6.66868">
        <ele>2245.7770996094</ele>
        <time>2010-07-06T09:27:20Z</time>
      </trkpt>
      <trkpt lat="44.86076" lon="6.6687">
        <ele>2246.2578125</ele>
        <time>2010-07-06T09:28:02Z</time>
      </trkpt>
      <trkpt lat="44.8608" lon="6.66868">
        <ele>2247.6997070312</ele>
        <time>2010-07-06T09:28:07Z</time>
      </trkpt>
      <trkpt lat="44.86083" lon="6.66866">
        <ele>2247.2189941406</ele>
        <time>2010-07-06T09:28:11Z</time>
      </trkpt>
      <trkpt lat="44.861" lon="6.66866">
        <ele>2248.6608886719</ele>
        <time>2010-07-06T09:28:26Z</time>
      </trkpt>
      <trkpt lat="44.86117" lon="6.66881">
        <ele>2251.544921875</ele>
        <time>2010-07-06T09:28:43Z</time>
      </trkpt>
      <trkpt lat="44.86121" lon="6.66885">
        <ele>2251.544921875</ele>
        <time>2010-07-06T09:28:47Z</time>
      </trkpt>
      <trkpt lat="44.86125" lon="6.66887">
        <ele>2252.0256347656</ele>
        <time>2010-07-06T09:28:51Z</time>
      </trkpt>
      <trkpt lat="44.86145" lon="6.669">
        <ele>2253.4677734375</ele>
        <time>2010-07-06T09:29:09Z</time>
      </trkpt>
      <trkpt lat="44.86164" lon="6.669">
        <ele>2255.3903808594</ele>
        <time>2010-07-06T09:29:25Z</time>
      </trkpt>
      <trkpt lat="44.86188" lon="6.66883">
        <ele>2258.2741699219</ele>
        <time>2010-07-06T09:29:47Z</time>
      </trkpt>
      <trkpt lat="44.86203" lon="6.66864">
        <ele>2261.6389160156</ele>
        <time>2010-07-06T09:30:04Z</time>
      </trkpt>
      <trkpt lat="44.86231" lon="6.66842">
        <ele>2264.5227050781</ele>
        <time>2010-07-06T09:30:25Z</time>
      </trkpt>
      <trkpt lat="44.86252" lon="6.6684">
        <ele>2267.8872070312</ele>
        <time>2010-07-06T09:30:40Z</time>
      </trkpt>
      <trkpt lat="44.86276" lon="6.66836">
        <ele>2269.3295898438</ele>
        <time>2010-07-06T09:30:57Z</time>
      </trkpt>
      <trkpt lat="44.86297" lon="6.66829">
        <ele>2272.2133789062</ele>
        <time>2010-07-06T09:31:14Z</time>
      </trkpt>
      <trkpt lat="44.86323" lon="6.66812">
        <ele>2275.0971679688</ele>
        <time>2010-07-06T09:31:35Z</time>
      </trkpt>
      <trkpt lat="44.86344" lon="6.66795">
        <ele>2276.05859375</ele>
        <time>2010-07-06T09:31:53Z</time>
      </trkpt>
      <trkpt lat="44.86351" lon="6.66791">
        <ele>2277.9812011719</ele>
        <time>2010-07-06T09:31:58Z</time>
      </trkpt>
      <trkpt lat="44.86368" lon="6.66767">
        <ele>2280.865234375</ele>
        <time>2010-07-06T09:32:18Z</time>
      </trkpt>
      <trkpt lat="44.86385" lon="6.66748">
        <ele>2284.7106933594</ele>
        <time>2010-07-06T09:32:36Z</time>
      </trkpt>
      <trkpt lat="44.86419" lon="6.66709">
        <ele>2286.6330566406</ele>
        <time>2010-07-06T09:33:07Z</time>
      </trkpt>
      <trkpt lat="44.86443" lon="6.66694">
        <ele>2289.5170898438</ele>
        <time>2010-07-06T09:33:25Z</time>
      </trkpt>
      <trkpt lat="44.86465" lon="6.66688">
        <ele>2291.9204101562</ele>
        <time>2010-07-06T09:33:39Z</time>
      </trkpt>
      <trkpt lat="44.86471" lon="6.6669">
        <ele>2293.3623046875</ele>
        <time>2010-07-06T09:33:43Z</time>
      </trkpt>
      <trkpt lat="44.86477" lon="6.6669">
        <ele>2294.3234863281</ele>
        <time>2010-07-06T09:33:48Z</time>
      </trkpt>
      <trkpt lat="44.86482" lon="6.6669">
        <ele>2294.8041992188</ele>
        <time>2010-07-06T09:33:52Z</time>
      </trkpt>
      <trkpt lat="44.8649" lon="6.6669">
        <ele>2294.8041992188</ele>
        <time>2010-07-06T09:34:00Z</time>
      </trkpt>
      <trkpt lat="44.86499" lon="6.66688">
        <ele>2296.2463378906</ele>
        <time>2010-07-06T09:34:14Z</time>
      </trkpt>
      <trkpt lat="44.86514" lon="6.66681">
        <ele>2297.2075195312</ele>
        <time>2010-07-06T09:34:39Z</time>
      </trkpt>
      <trkpt lat="44.86535" lon="6.66679">
        <ele>2299.1301269531</ele>
        <time>2010-07-06T09:34:55Z</time>
      </trkpt>
      <trkpt lat="44.8655" lon="6.66671">
        <ele>2302.0141601562</ele>
        <time>2010-07-06T09:35:05Z</time>
      </trkpt>
      <trkpt lat="44.86555" lon="6.66671">
        <ele>2302.0141601562</ele>
        <time>2010-07-06T09:35:10Z</time>
      </trkpt>
      <trkpt lat="44.86572" lon="6.66662">
        <ele>2303.9370117188</ele>
        <time>2010-07-06T09:35:26Z</time>
      </trkpt>
      <trkpt lat="44.86578" lon="6.66662">
        <ele>2304.8981933594</ele>
        <time>2010-07-06T09:35:31Z</time>
      </trkpt>
      <trkpt lat="44.86574" lon="6.66673">
        <ele>2306.3400878906</ele>
        <time>2010-07-06T09:35:43Z</time>
      </trkpt>
      <trkpt lat="44.86559" lon="6.66683">
        <ele>2308.7434082031</ele>
        <time>2010-07-06T09:36:00Z</time>
      </trkpt>
      <trkpt lat="44.86557" lon="6.66688">
        <ele>2308.7434082031</ele>
        <time>2010-07-06T09:36:16Z</time>
      </trkpt>
      <trkpt lat="44.86544" lon="6.66696">
        <ele>2310.1853027344</ele>
        <time>2010-07-06T09:36:35Z</time>
      </trkpt>
      <trkpt lat="44.86522" lon="6.66707">
        <ele>2312.5886230469</ele>
        <time>2010-07-06T09:36:53Z</time>
      </trkpt>
      <trkpt lat="44.86503" lon="6.6672">
        <ele>2313.5498046875</ele>
        <time>2010-07-06T09:37:09Z</time>
      </trkpt>
      <trkpt lat="44.86488" lon="6.66739">
        <ele>2316.9147949219</ele>
        <time>2010-07-06T09:37:27Z</time>
      </trkpt>
      <trkpt lat="44.86458" lon="6.66763">
        <ele>2318.8374023438</ele>
        <time>2010-07-06T09:37:50Z</time>
      </trkpt>
      <trkpt lat="44.86434" lon="6.66786">
        <ele>2320.7600097656</ele>
        <time>2010-07-06T09:38:07Z</time>
      </trkpt>
      <trkpt lat="44.86411" lon="6.66831">
        <ele>2322.6826171875</ele>
        <time>2010-07-06T09:38:29Z</time>
      </trkpt>
      <trkpt lat="44.86404" lon="6.66849">
        <ele>2324.1245117188</ele>
        <time>2010-07-06T09:38:39Z</time>
      </trkpt>
      <trkpt lat="44.86415" lon="6.66836">
        <ele>2326.0471191406</ele>
        <time>2010-07-06T09:38:50Z</time>
      </trkpt>
      <trkpt lat="44.86432" lon="6.66814">
        <ele>2327.9697265625</ele>
        <time>2010-07-06T09:39:08Z</time>
      </trkpt>
      <trkpt lat="44.86458" lon="6.66795">
        <ele>2331.3342285156</ele>
        <time>2010-07-06T09:39:31Z</time>
      </trkpt>
      <trkpt lat="44.86484" lon="6.66789">
        <ele>2334.2185058594</ele>
        <time>2010-07-06T09:39:49Z</time>
      </trkpt>
      <trkpt lat="44.8651" lon="6.66789">
        <ele>2337.1022949219</ele>
        <time>2010-07-06T09:40:07Z</time>
      </trkpt>
      <trkpt lat="44.86522" lon="6.66791">
        <ele>2338.0637207031</ele>
        <time>2010-07-06T09:40:16Z</time>
      </trkpt>
      <trkpt lat="44.86516" lon="6.66797">
        <ele>2338.5444335938</ele>
        <time>2010-07-06T09:40:23Z</time>
      </trkpt>
      <trkpt lat="44.86497" lon="6.66797">
        <ele>2340.9475097656</ele>
        <time>2010-07-06T09:40:41Z</time>
      </trkpt>
      <trkpt lat="44.8648" lon="6.66808">
        <ele>2343.8315429688</ele>
        <time>2010-07-06T09:40:57Z</time>
      </trkpt>
      <trkpt lat="44.86471" lon="6.66825">
        <ele>2344.7927246094</ele>
        <time>2010-07-06T09:41:13Z</time>
      </trkpt>
      <trkpt lat="44.86471" lon="6.66825">
        <ele>2345.2734375</ele>
        <time>2010-07-06T09:41:27Z</time>
      </trkpt>
      <trkpt lat="44.86467" lon="6.66831">
        <ele>2345.7541503906</ele>
        <time>2010-07-06T09:41:32Z</time>
      </trkpt>
      <trkpt lat="44.86465" lon="6.66851">
        <ele>2348.6381835938</ele>
        <time>2010-07-06T09:41:42Z</time>
      </trkpt>
      <trkpt lat="44.8646" lon="6.66881">
        <ele>2350.5607910156</ele>
        <time>2010-07-06T09:41:59Z</time>
      </trkpt>
      <trkpt lat="44.86443" lon="6.669">
        <ele>2352.9641113281</ele>
        <time>2010-07-06T09:42:17Z</time>
      </trkpt>
      <trkpt lat="44.86426" lon="6.66922">
        <ele>2355.8479003906</ele>
        <time>2010-07-06T09:42:37Z</time>
      </trkpt>
      <trkpt lat="44.86411" lon="6.66943">
        <ele>2359.2126464844</ele>
        <time>2010-07-06T09:42:55Z</time>
      </trkpt>
      <trkpt lat="44.86396" lon="6.66967">
        <ele>2361.6159667969</ele>
        <time>2010-07-06T09:43:15Z</time>
      </trkpt>
      <trkpt lat="44.86385" lon="6.66988">
        <ele>2363.5383300781</ele>
        <time>2010-07-06T09:43:30Z</time>
      </trkpt>
      <trkpt lat="44.86374" lon="6.6701">
        <ele>2365.9418945312</ele>
        <time>2010-07-06T09:43:45Z</time>
      </trkpt>
      <trkpt lat="44.8637" lon="6.67022">
        <ele>2366.4226074219</ele>
        <time>2010-07-06T09:43:54Z</time>
      </trkpt>
      <trkpt lat="44.86362" lon="6.67046">
        <ele>2369.787109375</ele>
        <time>2010-07-06T09:44:08Z</time>
      </trkpt>
      <trkpt lat="44.86346" lon="6.67065">
        <ele>2370.7485351562</ele>
        <time>2010-07-06T09:44:23Z</time>
      </trkpt>
      <trkpt lat="44.86344" lon="6.6707">
        <ele>2371.7097167969</ele>
        <time>2010-07-06T09:44:35Z</time>
      </trkpt>
      <trkpt lat="44.86342" lon="6.67076">
        <ele>2372.1904296875</ele>
        <time>2010-07-06T09:44:57Z</time>
      </trkpt>
      <trkpt lat="44.8634" lon="6.6708">
        <ele>2372.6711425781</ele>
        <time>2010-07-06T09:45:15Z</time>
      </trkpt>
      <trkpt lat="44.8634" lon="6.6708">
        <ele>2372.1904296875</ele>
        <time>2010-07-06T09:46:23Z</time>
      </trkpt>
      <trkpt lat="44.86334" lon="6.67087">
        <ele>2373.1518554688</ele>
        <time>2010-07-06T09:46:29Z</time>
      </trkpt>
      <trkpt lat="44.86308" lon="6.671">
        <ele>2375.5549316406</ele>
        <time>2010-07-06T09:46:48Z</time>
      </trkpt>
      <trkpt lat="44.86284" lon="6.6711">
        <ele>2378.9194335938</ele>
        <time>2010-07-06T09:47:06Z</time>
      </trkpt>
      <trkpt lat="44.86265" lon="6.67125">
        <ele>2381.3229980469</ele>
        <time>2010-07-06T09:47:23Z</time>
      </trkpt>
      <trkpt lat="44.86241" lon="6.67143">
        <ele>2383.7263183594</ele>
        <time>2010-07-06T09:47:42Z</time>
      </trkpt>
      <trkpt lat="44.8622" lon="6.67162">
        <ele>2386.1296386719</ele>
        <time>2010-07-06T09:48:00Z</time>
      </trkpt>
      <trkpt lat="44.86205" lon="6.67183">
        <ele>2389.494140625</ele>
        <time>2010-07-06T09:48:17Z</time>
      </trkpt>
      <trkpt lat="44.86175" lon="6.67192">
        <ele>2389.9748535156</ele>
        <time>2010-07-06T09:48:34Z</time>
      </trkpt>
      <trkpt lat="44.86153" lon="6.67213">
        <ele>2392.3781738281</ele>
        <time>2010-07-06T09:48:50Z</time>
      </trkpt>
      <trkpt lat="44.86123" lon="6.67228">
        <ele>2395.2619628906</ele>
        <time>2010-07-06T09:49:09Z</time>
      </trkpt>
      <trkpt lat="44.861" lon="6.67237">
        <ele>2396.7041015625</ele>
        <time>2010-07-06T09:49:28Z</time>
      </trkpt>
      <trkpt lat="44.86098" lon="6.67235">
        <ele>2397.6655273438</ele>
        <time>2010-07-06T09:49:48Z</time>
      </trkpt>
      <trkpt lat="44.86091" lon="6.67237">
        <ele>2398.1459960938</ele>
        <time>2010-07-06T09:50:24Z</time>
      </trkpt>
      <trkpt lat="44.86057" lon="6.67239">
        <ele>2401.0300292969</ele>
        <time>2010-07-06T09:50:42Z</time>
      </trkpt>
      <trkpt lat="44.86022" lon="6.67228">
        <ele>2403.9140625</ele>
        <time>2010-07-06T09:51:04Z</time>
      </trkpt>
      <trkpt lat="44.85995" lon="6.67226">
        <ele>2406.7978515625</ele>
        <time>2010-07-06T09:51:23Z</time>
      </trkpt>
      <trkpt lat="44.85967" lon="6.67228">
        <ele>2408.7204589844</ele>
        <time>2010-07-06T09:51:42Z</time>
      </trkpt>
      <trkpt lat="44.85939" lon="6.67233">
        <ele>2410.6430664062</ele>
        <time>2010-07-06T09:52:01Z</time>
      </trkpt>
      <trkpt lat="44.85911" lon="6.67235">
        <ele>2413.5270996094</ele>
        <time>2010-07-06T09:52:20Z</time>
      </trkpt>
      <trkpt lat="44.85904" lon="6.67235">
        <ele>2414.4885253906</ele>
        <time>2010-07-06T09:52:25Z</time>
      </trkpt>
      <trkpt lat="44.85879" lon="6.67243">
        <ele>2417.8530273438</ele>
        <time>2010-07-06T09:52:43Z</time>
      </trkpt>
      <trkpt lat="44.85851" lon="6.6725">
        <ele>2419.2951660156</ele>
        <time>2010-07-06T09:53:02Z</time>
      </trkpt>
      <trkpt lat="44.85825" lon="6.67261">
        <ele>2422.6596679688</ele>
        <time>2010-07-06T09:53:19Z</time>
      </trkpt>
      <trkpt lat="44.85799" lon="6.67274">
        <ele>2425.5434570312</ele>
        <time>2010-07-06T09:53:36Z</time>
      </trkpt>
      <trkpt lat="44.85774" lon="6.67265">
        <ele>2426.0241699219</ele>
        <time>2010-07-06T09:53:51Z</time>
      </trkpt>
      <trkpt lat="44.85767" lon="6.67261">
        <ele>2425.5434570312</ele>
        <time>2010-07-06T09:54:04Z</time>
      </trkpt>
      <trkpt lat="44.85765" lon="6.67263">
        <ele>2426.0241699219</ele>
        <time>2010-07-06T09:54:32Z</time>
      </trkpt>
      <trkpt lat="44.85756" lon="6.67252">
        <ele>2426.0241699219</ele>
        <time>2010-07-06T09:54:39Z</time>
      </trkpt>
      <trkpt lat="44.85731" lon="6.67218">
        <ele>2426.0241699219</ele>
        <time>2010-07-06T09:54:52Z</time>
      </trkpt>
      <trkpt lat="44.85709" lon="6.67192">
        <ele>2426.0241699219</ele>
        <time>2010-07-06T09:55:05Z</time>
      </trkpt>
      <trkpt lat="44.85692" lon="6.67171">
        <ele>2426.5048828125</ele>
        <time>2010-07-06T09:55:37Z</time>
      </trkpt>
      <trkpt lat="44.8566" lon="6.67168">
        <ele>2427.4660644531</ele>
        <time>2010-07-06T09:55:49Z</time>
      </trkpt>
      <trkpt lat="44.85613" lon="6.67183">
        <ele>2429.8696289062</ele>
        <time>2010-07-06T09:56:06Z</time>
      </trkpt>
      <trkpt lat="44.85572" lon="6.67198">
        <ele>2431.7922363281</ele>
        <time>2010-07-06T09:56:23Z</time>
      </trkpt>
      <trkpt lat="44.85568" lon="6.67203">
        <ele>2430.8310546875</ele>
        <time>2010-07-06T09:56:25Z</time>
      </trkpt>
      <trkpt lat="44.85568" lon="6.67209">
        <ele>2431.3115234375</ele>
        <time>2010-07-06T09:56:38Z</time>
      </trkpt>
      <trkpt lat="44.85568" lon="6.67207">
        <ele>2431.7922363281</ele>
        <time>2010-07-06T09:56:39Z</time>
      </trkpt>
      <trkpt lat="44.85561" lon="6.67207">
        <ele>2431.7922363281</ele>
        <time>2010-07-06T09:56:43Z</time>
      </trkpt>
      <trkpt lat="44.85553" lon="6.67213">
        <ele>2432.2729492188</ele>
        <time>2010-07-06T09:56:47Z</time>
      </trkpt>
      <trkpt lat="44.85535" lon="6.67241">
        <ele>2435.6374511719</ele>
        <time>2010-07-06T09:57:00Z</time>
      </trkpt>
      <trkpt lat="44.85533" lon="6.67248">
        <ele>2434.1955566406</ele>
        <time>2010-07-06T09:57:03Z</time>
      </trkpt>
      <trkpt lat="44.85516" lon="6.67274">
        <ele>2436.5986328125</ele>
        <time>2010-07-06T09:57:15Z</time>
      </trkpt>
      <trkpt lat="44.85492" lon="6.67301">
        <ele>2438.0407714844</ele>
        <time>2010-07-06T09:57:32Z</time>
      </trkpt>
      <trkpt lat="44.8546" lon="6.67327">
        <ele>2439.9633789062</ele>
        <time>2010-07-06T09:57:51Z</time>
      </trkpt>
      <trkpt lat="44.85443" lon="6.67331">
        <ele>2438.521484375</ele>
        <time>2010-07-06T09:58:06Z</time>
      </trkpt>
      <trkpt lat="44.85441" lon="6.67338">
        <ele>2441.8859863281</ele>
        <time>2010-07-06T09:59:51Z</time>
      </trkpt>
      <trkpt lat="44.85439" lon="6.6734">
        <ele>2444.2893066406</ele>
        <time>2010-07-06T10:00:06Z</time>
      </trkpt>
      <trkpt lat="44.85439" lon="6.67336">
        <ele>2443.3278808594</ele>
        <time>2010-07-06T10:00:58Z</time>
      </trkpt>
      <trkpt lat="44.85441" lon="6.67336">
        <ele>2442.3666992188</ele>
        <time>2010-07-06T10:02:16Z</time>
      </trkpt>
      <trkpt lat="44.85443" lon="6.67334">
        <ele>2443.3278808594</ele>
        <time>2010-07-06T10:02:29Z</time>
      </trkpt>
      <trkpt lat="44.85441" lon="6.67336">
        <ele>2443.3278808594</ele>
        <time>2010-07-06T10:03:15Z</time>
      </trkpt>
      <trkpt lat="44.85441" lon="6.67331">
        <ele>2442.3666992188</ele>
        <time>2010-07-06T10:04:09Z</time>
      </trkpt>
      <trkpt lat="44.85439" lon="6.67329">
        <ele>2440.4438476562</ele>
        <time>2010-07-06T10:04:13Z</time>
      </trkpt>
      <trkpt lat="44.85417" lon="6.67329">
        <ele>2441.8859863281</ele>
        <time>2010-07-06T10:04:27Z</time>
      </trkpt>
      <trkpt lat="44.85372" lon="6.67319">
        <ele>2443.3278808594</ele>
        <time>2010-07-06T10:04:45Z</time>
      </trkpt>
      <trkpt lat="44.85327" lon="6.67316">
        <ele>2444.7700195312</ele>
        <time>2010-07-06T10:05:04Z</time>
      </trkpt>
      <trkpt lat="44.85304" lon="6.67325">
        <ele>2446.6926269531</ele>
        <time>2010-07-06T10:05:19Z</time>
      </trkpt>
      <trkpt lat="44.85284" lon="6.67325">
        <ele>2449.5766601562</ele>
        <time>2010-07-06T10:05:33Z</time>
      </trkpt>
      <trkpt lat="44.85263" lon="6.67314">
        <ele>2450.0573730469</ele>
        <time>2010-07-06T10:05:50Z</time>
      </trkpt>
      <trkpt lat="44.85252" lon="6.67306">
        <ele>2451.4992675781</ele>
        <time>2010-07-06T10:06:00Z</time>
      </trkpt>
      <trkpt lat="44.85248" lon="6.67308">
        <ele>2452.9411621094</ele>
        <time>2010-07-06T10:06:03Z</time>
      </trkpt>
      <trkpt lat="44.85246" lon="6.67306">
        <ele>2452.4604492188</ele>
        <time>2010-07-06T10:06:04Z</time>
      </trkpt>
      <trkpt lat="44.85244" lon="6.67306">
        <ele>2453.421875</ele>
        <time>2010-07-06T10:06:06Z</time>
      </trkpt>
      <trkpt lat="44.85222" lon="6.67314">
        <ele>2456.7863769531</ele>
        <time>2010-07-06T10:06:23Z</time>
      </trkpt>
      <trkpt lat="44.85214" lon="6.67323">
        <ele>2458.2282714844</ele>
        <time>2010-07-06T10:06:38Z</time>
      </trkpt>
      <trkpt lat="44.85209" lon="6.67329">
        <ele>2459.6701660156</ele>
        <time>2010-07-06T10:07:00Z</time>
      </trkpt>
      <trkpt lat="44.85194" lon="6.67342">
        <ele>2460.6318359375</ele>
        <time>2010-07-06T10:07:16Z</time>
      </trkpt>
      <trkpt lat="44.85188" lon="6.67349">
        <ele>2462.0737304688</ele>
        <time>2010-07-06T10:07:31Z</time>
      </trkpt>
      <trkpt lat="44.85177" lon="6.67357">
        <ele>2463.515625</ele>
        <time>2010-07-06T10:07:43Z</time>
      </trkpt>
      <trkpt lat="44.85168" lon="6.67366">
        <ele>2463.9963378906</ele>
        <time>2010-07-06T10:08:03Z</time>
      </trkpt>
      <trkpt lat="44.85153" lon="6.67374">
        <ele>2464.9577636719</ele>
        <time>2010-07-06T10:08:23Z</time>
      </trkpt>
      <trkpt lat="44.85147" lon="6.67379">
        <ele>2465.9189453125</ele>
        <time>2010-07-06T10:08:58Z</time>
      </trkpt>
      <trkpt lat="44.85128" lon="6.67389">
        <ele>2467.8415527344</ele>
        <time>2010-07-06T10:09:15Z</time>
      </trkpt>
      <trkpt lat="44.85121" lon="6.67396">
        <ele>2470.7255859375</ele>
        <time>2010-07-06T10:09:26Z</time>
      </trkpt>
      <trkpt lat="44.85121" lon="6.67396">
        <ele>2470.7255859375</ele>
        <time>2010-07-06T10:09:27Z</time>
      </trkpt>
      <trkpt lat="44.85123" lon="6.67396">
        <ele>2471.2060546875</ele>
        <time>2010-07-06T10:09:28Z</time>
      </trkpt>
      <trkpt lat="44.85147" lon="6.67389">
        <ele>2472.1674804688</ele>
        <time>2010-07-06T10:09:48Z</time>
      </trkpt>
      <trkpt lat="44.85164" lon="6.67387">
        <ele>2474.0900878906</ele>
        <time>2010-07-06T10:10:03Z</time>
      </trkpt>
      <trkpt lat="44.85181" lon="6.67381">
        <ele>2475.5319824219</ele>
        <time>2010-07-06T10:10:19Z</time>
      </trkpt>
      <trkpt lat="44.85183" lon="6.67385">
        <ele>2476.0129394531</ele>
        <time>2010-07-06T10:10:25Z</time>
      </trkpt>
      <trkpt lat="44.85164" lon="6.674">
        <ele>2477.935546875</ele>
        <time>2010-07-06T10:10:46Z</time>
      </trkpt>
      <trkpt lat="44.85147" lon="6.67407">
        <ele>2479.8581542969</ele>
        <time>2010-07-06T10:11:05Z</time>
      </trkpt>
      <trkpt lat="44.85128" lon="6.67415">
        <ele>2481.3000488281</ele>
        <time>2010-07-06T10:11:24Z</time>
      </trkpt>
      <trkpt lat="44.85115" lon="6.67422">
        <ele>2483.7033691406</ele>
        <time>2010-07-06T10:11:40Z</time>
      </trkpt>
      <trkpt lat="44.85117" lon="6.67422">
        <ele>2484.1840820312</ele>
        <time>2010-07-06T10:11:47Z</time>
      </trkpt>
      <trkpt lat="44.85128" lon="6.67424">
        <ele>2487.0678710938</ele>
        <time>2010-07-06T10:11:59Z</time>
      </trkpt>
      <trkpt lat="44.8513" lon="6.67422">
        <ele>2486.1066894531</ele>
        <time>2010-07-06T10:12:02Z</time>
      </trkpt>
      <trkpt lat="44.85134" lon="6.67424">
        <ele>2487.0678710938</ele>
        <time>2010-07-06T10:12:19Z</time>
      </trkpt>
      <trkpt lat="44.85138" lon="6.67424">
        <ele>2488.029296875</ele>
        <time>2010-07-06T10:13:10Z</time>
      </trkpt>
      <trkpt lat="44.85141" lon="6.67424">
        <ele>2488.029296875</ele>
        <time>2010-07-06T10:13:37Z</time>
      </trkpt>
      <trkpt lat="44.85141" lon="6.67428">
        <ele>2490.9130859375</ele>
        <time>2010-07-06T10:13:50Z</time>
      </trkpt>
      <trkpt lat="44.85128" lon="6.67432">
        <ele>2492.8359375</ele>
        <time>2010-07-06T10:14:06Z</time>
      </trkpt>
      <trkpt lat="44.85115" lon="6.67439">
        <ele>2493.3166503906</ele>
        <time>2010-07-06T10:14:19Z</time>
      </trkpt>
      <trkpt lat="44.851" lon="6.67447">
        <ele>2494.7585449219</ele>
        <time>2010-07-06T10:14:35Z</time>
      </trkpt>
      <trkpt lat="44.85087" lon="6.67452">
        <ele>2496.6811523438</ele>
        <time>2010-07-06T10:14:52Z</time>
      </trkpt>
      <trkpt lat="44.85078" lon="6.67456">
        <ele>2498.123046875</ele>
        <time>2010-07-06T10:15:07Z</time>
      </trkpt>
      <trkpt lat="44.85083" lon="6.67456">
        <ele>2498.6037597656</ele>
        <time>2010-07-06T10:15:19Z</time>
      </trkpt>
      <trkpt lat="44.85096" lon="6.67454">
        <ele>2499.0844726562</ele>
        <time>2010-07-06T10:15:33Z</time>
      </trkpt>
      <trkpt lat="44.85098" lon="6.67454">
        <ele>2498.6037597656</ele>
        <time>2010-07-06T10:15:35Z</time>
      </trkpt>
      <trkpt lat="44.85113" lon="6.67445">
        <ele>2499.0844726562</ele>
        <time>2010-07-06T10:15:50Z</time>
      </trkpt>
      <trkpt lat="44.85113" lon="6.67447">
        <ele>2499.0844726562</ele>
        <time>2010-07-06T10:15:54Z</time>
      </trkpt>
      <trkpt lat="44.85098" lon="6.6746">
        <ele>2501.4877929688</ele>
        <time>2010-07-06T10:16:12Z</time>
      </trkpt>
      <trkpt lat="44.85085" lon="6.67469">
        <ele>2503.4104003906</ele>
        <time>2010-07-06T10:16:29Z</time>
      </trkpt>
      <trkpt lat="44.8508" lon="6.67477">
        <ele>2506.7749023438</ele>
        <time>2010-07-06T10:16:40Z</time>
      </trkpt>
      <trkpt lat="44.85083" lon="6.67477">
        <ele>2507.736328125</ele>
        <time>2010-07-06T10:16:43Z</time>
      </trkpt>
      <trkpt lat="44.85102" lon="6.67471">
        <ele>2508.6977539062</ele>
        <time>2010-07-06T10:17:03Z</time>
      </trkpt>
      <trkpt lat="44.85115" lon="6.67473">
        <ele>2510.6203613281</ele>
        <time>2010-07-06T10:17:21Z</time>
      </trkpt>
      <trkpt lat="44.85115" lon="6.67475">
        <ele>2510.1396484375</ele>
        <time>2010-07-06T10:17:39Z</time>
      </trkpt>
      <trkpt lat="44.85128" lon="6.67467">
        <ele>2510.1396484375</ele>
        <time>2010-07-06T10:17:50Z</time>
      </trkpt>
      <trkpt lat="44.85132" lon="6.67462">
        <ele>2510.6203613281</ele>
        <time>2010-07-06T10:18:06Z</time>
      </trkpt>
      <trkpt lat="44.85132" lon="6.6746">
        <ele>2513.5041503906</ele>
        <time>2010-07-06T10:22:26Z</time>
      </trkpt>
      <trkpt lat="44.85132" lon="6.67462">
        <ele>2510.6203613281</ele>
        <time>2010-07-06T10:24:42Z</time>
      </trkpt>
      <trkpt lat="44.85132" lon="6.67464">
        <ele>2513.0236816406</ele>
        <time>2010-07-06T10:26:15Z</time>
      </trkpt>
      <trkpt lat="44.85132" lon="6.67467">
        <ele>2510.1396484375</ele>
        <time>2010-07-06T10:29:22Z</time>
      </trkpt>
      <trkpt lat="44.8513" lon="6.67467">
        <ele>2511.1010742188</ele>
        <time>2010-07-06T10:29:46Z</time>
      </trkpt>
      <trkpt lat="44.85132" lon="6.67464">
        <ele>2514.4655761719</ele>
        <time>2010-07-06T10:41:51Z</time>
      </trkpt>
      <trkpt lat="44.8513" lon="6.67469">
        <ele>2515.4270019531</ele>
        <time>2010-07-06T10:45:33Z</time>
      </trkpt>
      <trkpt lat="44.85128" lon="6.67473">
        <ele>2515.4270019531</ele>
        <time>2010-07-06T10:45:37Z</time>
      </trkpt>
      <trkpt lat="44.85121" lon="6.67473">
        <ele>2515.4270019531</ele>
        <time>2010-07-06T10:45:41Z</time>
      </trkpt>
      <trkpt lat="44.85104" lon="6.67475">
        <ele>2514.9462890625</ele>
        <time>2010-07-06T10:45:49Z</time>
      </trkpt>
      <trkpt lat="44.85091" lon="6.67475">
        <ele>2511.5817871094</ele>
        <time>2010-07-06T10:45:52Z</time>
      </trkpt>
      <trkpt lat="44.85074" lon="6.6749">
        <ele>2512.0622558594</ele>
        <time>2010-07-06T10:45:58Z</time>
      </trkpt>
      <trkpt lat="44.85063" lon="6.67501">
        <ele>2513.5041503906</ele>
        <time>2010-07-06T10:46:11Z</time>
      </trkpt>
      <trkpt lat="44.85063" lon="6.67501">
        <ele>2513.5041503906</ele>
        <time>2010-07-06T10:46:23Z</time>
      </trkpt>
      <trkpt lat="44.85065" lon="6.67497">
        <ele>2513.0236816406</ele>
        <time>2010-07-06T10:46:43Z</time>
      </trkpt>
      <trkpt lat="44.85065" lon="6.67497">
        <ele>2513.5041503906</ele>
        <time>2010-07-06T10:46:45Z</time>
      </trkpt>
      <trkpt lat="44.85078" lon="6.67486">
        <ele>2512.0622558594</ele>
        <time>2010-07-06T10:46:52Z</time>
      </trkpt>
      <trkpt lat="44.85091" lon="6.67475">
        <ele>2512.54296875</ele>
        <time>2010-07-06T10:46:58Z</time>
      </trkpt>
      <trkpt lat="44.85113" lon="6.67473">
        <ele>2515.9074707031</ele>
        <time>2010-07-06T10:47:12Z</time>
      </trkpt>
      <trkpt lat="44.85121" lon="6.67467">
        <ele>2516.8688964844</ele>
        <time>2010-07-06T10:47:21Z</time>
      </trkpt>
      <trkpt lat="44.8513" lon="6.67471">
        <ele>2514.9462890625</ele>
        <time>2010-07-06T10:47:28Z</time>
      </trkpt>
      <trkpt lat="44.85132" lon="6.67473">
        <ele>2515.9074707031</ele>
        <time>2010-07-06T10:47:29Z</time>
      </trkpt>
      <trkpt lat="44.85132" lon="6.67473">
        <ele>2514.4655761719</ele>
        <time>2010-07-06T10:47:32Z</time>
      </trkpt>
      <trkpt lat="44.85136" lon="6.67471">
        <ele>2514.9462890625</ele>
        <time>2010-07-06T10:48:07Z</time>
      </trkpt>
      <trkpt lat="44.85141" lon="6.67467">
        <ele>2514.9462890625</ele>
        <time>2010-07-06T10:48:14Z</time>
      </trkpt>
      <trkpt lat="44.85147" lon="6.67467">
        <ele>2511.5817871094</ele>
        <time>2010-07-06T10:48:26Z</time>
      </trkpt>
      <trkpt lat="44.85147" lon="6.67469">
        <ele>2513.0236816406</ele>
        <time>2010-07-06T10:48:45Z</time>
      </trkpt>
      <trkpt lat="44.85147" lon="6.67469">
        <ele>2512.54296875</ele>
        <time>2010-07-06T10:49:14Z</time>
      </trkpt>
      <trkpt lat="44.85153" lon="6.67456">
        <ele>2509.1784667969</ele>
        <time>2010-07-06T10:49:20Z</time>
      </trkpt>
      <trkpt lat="44.85156" lon="6.67449">
        <ele>2505.8134765625</ele>
        <time>2010-07-06T10:49:24Z</time>
      </trkpt>
      <trkpt lat="44.8516" lon="6.67441">
        <ele>2501.4877929688</ele>
        <time>2010-07-06T10:49:27Z</time>
      </trkpt>
      <trkpt lat="44.85166" lon="6.67428">
        <ele>2497.1618652344</ele>
        <time>2010-07-06T10:49:31Z</time>
      </trkpt>
      <trkpt lat="44.85168" lon="6.67424">
        <ele>2495.7199707031</ele>
        <time>2010-07-06T10:49:33Z</time>
      </trkpt>
      <trkpt lat="44.85175" lon="6.67409">
        <ele>2491.8745117188</ele>
        <time>2010-07-06T10:49:37Z</time>
      </trkpt>
      <trkpt lat="44.85177" lon="6.67407">
        <ele>2491.8745117188</ele>
        <time>2010-07-06T10:49:38Z</time>
      </trkpt>
      <trkpt lat="44.85183" lon="6.67407">
        <ele>2488.5100097656</ele>
        <time>2010-07-06T10:49:43Z</time>
      </trkpt>
      <trkpt lat="44.85179" lon="6.67407">
        <ele>2488.5100097656</ele>
        <time>2010-07-06T10:51:37Z</time>
      </trkpt>
      <trkpt lat="44.85183" lon="6.674">
        <ele>2488.029296875</ele>
        <time>2010-07-06T10:51:41Z</time>
      </trkpt>
      <trkpt lat="44.85207" lon="6.67374">
        <ele>2485.1452636719</ele>
        <time>2010-07-06T10:51:52Z</time>
      </trkpt>
      <trkpt lat="44.85226" lon="6.67366">
        <ele>2483.7033691406</ele>
        <time>2010-07-06T10:51:59Z</time>
      </trkpt>
      <trkpt lat="44.85239" lon="6.67357">
        <ele>2480.3388671875</ele>
        <time>2010-07-06T10:52:05Z</time>
      </trkpt>
      <trkpt lat="44.85246" lon="6.67355">
        <ele>2476.9743652344</ele>
        <time>2010-07-06T10:52:08Z</time>
      </trkpt>
      <trkpt lat="44.85248" lon="6.67357">
        <ele>2476.9743652344</ele>
        <time>2010-07-06T10:52:09Z</time>
      </trkpt>
      <trkpt lat="44.85259" lon="6.67357">
        <ele>2474.0900878906</ele>
        <time>2010-07-06T10:52:14Z</time>
      </trkpt>
      <trkpt lat="44.85276" lon="6.67357">
        <ele>2470.7255859375</ele>
        <time>2010-07-06T10:52:19Z</time>
      </trkpt>
      <trkpt lat="44.85278" lon="6.67357">
        <ele>2469.2836914062</ele>
        <time>2010-07-06T10:52:20Z</time>
      </trkpt>
      <trkpt lat="44.85289" lon="6.67357">
        <ele>2466.8803710938</ele>
        <time>2010-07-06T10:52:22Z</time>
      </trkpt>
      <trkpt lat="44.85299" lon="6.67357">
        <ele>2466.8803710938</ele>
        <time>2010-07-06T10:52:25Z</time>
      </trkpt>
      <trkpt lat="44.85301" lon="6.67357">
        <ele>2465.9189453125</ele>
        <time>2010-07-06T10:52:37Z</time>
      </trkpt>
      <trkpt lat="44.85301" lon="6.67357">
        <ele>2465.9189453125</ele>
        <time>2010-07-06T10:52:42Z</time>
      </trkpt>
      <trkpt lat="44.85308" lon="6.67346">
        <ele>2465.4384765625</ele>
        <time>2010-07-06T10:52:46Z</time>
      </trkpt>
      <trkpt lat="44.85347" lon="6.67334">
        <ele>2462.0737304688</ele>
        <time>2010-07-06T10:52:55Z</time>
      </trkpt>
      <trkpt lat="44.85349" lon="6.67334">
        <ele>2462.0737304688</ele>
        <time>2010-07-06T10:52:56Z</time>
      </trkpt>
      <trkpt lat="44.85368" lon="6.67338">
        <ele>2460.6318359375</ele>
        <time>2010-07-06T10:53:04Z</time>
      </trkpt>
      <trkpt lat="44.85377" lon="6.6734">
        <ele>2457.2670898438</ele>
        <time>2010-07-06T10:53:08Z</time>
      </trkpt>
      <trkpt lat="44.85383" lon="6.67342">
        <ele>2456.7863769531</ele>
        <time>2010-07-06T10:53:10Z</time>
      </trkpt>
      <trkpt lat="44.85392" lon="6.67342">
        <ele>2457.2670898438</ele>
        <time>2010-07-06T10:53:12Z</time>
      </trkpt>
      <trkpt lat="44.85413" lon="6.67346">
        <ele>2457.2670898438</ele>
        <time>2010-07-06T10:53:21Z</time>
      </trkpt>
      <trkpt lat="44.85422" lon="6.67342">
        <ele>2457.2670898438</ele>
        <time>2010-07-06T10:53:26Z</time>
      </trkpt>
      <trkpt lat="44.8543" lon="6.67338">
        <ele>2456.3056640625</ele>
        <time>2010-07-06T10:53:37Z</time>
      </trkpt>
      <trkpt lat="44.8543" lon="6.67336">
        <ele>2455.3444824219</ele>
        <time>2010-07-06T10:53:41Z</time>
      </trkpt>
      <trkpt lat="44.8543" lon="6.67334">
        <ele>2453.9025878906</ele>
        <time>2010-07-06T10:53:43Z</time>
      </trkpt>
      <trkpt lat="44.85435" lon="6.67329">
        <ele>2450.5378417969</ele>
        <time>2010-07-06T10:53:47Z</time>
      </trkpt>
      <trkpt lat="44.85435" lon="6.67329">
        <ele>2450.5378417969</ele>
        <time>2010-07-06T10:53:49Z</time>
      </trkpt>
      <trkpt lat="44.85439" lon="6.67327">
        <ele>2451.0185546875</ele>
        <time>2010-07-06T10:53:51Z</time>
      </trkpt>
      <trkpt lat="44.85443" lon="6.67327">
        <ele>2450.0573730469</ele>
        <time>2010-07-06T10:53:55Z</time>
      </trkpt>
      <trkpt lat="44.85469" lon="6.67319">
        <ele>2450.0573730469</ele>
        <time>2010-07-06T10:54:11Z</time>
      </trkpt>
      <trkpt lat="44.85499" lon="6.67291">
        <ele>2449.0959472656</ele>
        <time>2010-07-06T10:54:22Z</time>
      </trkpt>
      <trkpt lat="44.8575" lon="6.67241">
        <ele>2437.0793457031</ele>
        <time>2010-07-06T10:56:20Z</time>
      </trkpt>
      <trkpt lat="44.8575" lon="6.67243">
        <ele>2437.5600585938</ele>
        <time>2010-07-06T10:56:31Z</time>
      </trkpt>
      <trkpt lat="44.85759" lon="6.67252">
        <ele>2437.0793457031</ele>
        <time>2010-07-06T10:56:37Z</time>
      </trkpt>
      <trkpt lat="44.85793" lon="6.67274">
        <ele>2437.5600585938</ele>
        <time>2010-07-06T10:56:53Z</time>
      </trkpt>
      <trkpt lat="44.85829" lon="6.67256">
        <ele>2434.1955566406</ele>
        <time>2010-07-06T10:57:02Z</time>
      </trkpt>
      <trkpt lat="44.85853" lon="6.67246">
        <ele>2432.7534179688</ele>
        <time>2010-07-06T10:57:06Z</time>
      </trkpt>
      <trkpt lat="44.85868" lon="6.67243">
        <ele>2430.8310546875</ele>
        <time>2010-07-06T10:57:08Z</time>
      </trkpt>
      <trkpt lat="44.85896" lon="6.67235">
        <ele>2429.3889160156</ele>
        <time>2010-07-06T10:57:12Z</time>
      </trkpt>
      <trkpt lat="44.85952" lon="6.67228">
        <ele>2425.5434570312</ele>
        <time>2010-07-06T10:57:19Z</time>
      </trkpt>
      <trkpt lat="44.85967" lon="6.67226">
        <ele>2424.5822753906</ele>
        <time>2010-07-06T10:57:21Z</time>
      </trkpt>
      <trkpt lat="44.86005" lon="6.67226">
        <ele>2422.1789550781</ele>
        <time>2010-07-06T10:57:26Z</time>
      </trkpt>
      <trkpt lat="44.86031" lon="6.67237">
        <ele>2418.814453125</ele>
        <time>2010-07-06T10:57:29Z</time>
      </trkpt>
      <trkpt lat="44.86065" lon="6.67239">
        <ele>2414.9692382812</ele>
        <time>2010-07-06T10:57:33Z</time>
      </trkpt>
      <trkpt lat="44.86076" lon="6.67239">
        <ele>2414.9692382812</ele>
        <time>2010-07-06T10:57:34Z</time>
      </trkpt>
      <trkpt lat="44.86095" lon="6.67239">
        <ele>2414.0078125</ele>
        <time>2010-07-06T10:57:36Z</time>
      </trkpt>
      <trkpt lat="44.86136" lon="6.67222">
        <ele>2411.1237792969</ele>
        <time>2010-07-06T10:57:40Z</time>
      </trkpt>
      <trkpt lat="44.86181" lon="6.67192">
        <ele>2404.8752441406</ele>
        <time>2010-07-06T10:57:46Z</time>
      </trkpt>
      <trkpt lat="44.86224" lon="6.67171">
        <ele>2403.4333496094</ele>
        <time>2010-07-06T10:57:52Z</time>
      </trkpt>
      <trkpt lat="44.86228" lon="6.67166">
        <ele>2403.4333496094</ele>
        <time>2010-07-06T10:57:53Z</time>
      </trkpt>
      <trkpt lat="44.86286" lon="6.67123">
        <ele>2400.5493164062</ele>
        <time>2010-07-06T10:58:06Z</time>
      </trkpt>
      <trkpt lat="44.86327" lon="6.67123">
        <ele>2400.0688476562</ele>
        <time>2010-07-06T10:58:19Z</time>
      </trkpt>
      <trkpt lat="44.86362" lon="6.67125">
        <ele>2399.107421875</ele>
        <time>2010-07-06T10:58:28Z</time>
      </trkpt>
      <trkpt lat="44.86377" lon="6.67115">
        <ele>2399.5881347656</ele>
        <time>2010-07-06T10:58:33Z</time>
      </trkpt>
      <trkpt lat="44.86396" lon="6.67089">
        <ele>2402.4719238281</ele>
        <time>2010-07-06T10:58:46Z</time>
      </trkpt>
      <trkpt lat="44.86415" lon="6.67055">
        <ele>2404.8752441406</ele>
        <time>2010-07-06T10:59:05Z</time>
      </trkpt>
      <trkpt lat="44.8643" lon="6.67037">
        <ele>2407.2785644531</ele>
        <time>2010-07-06T10:59:20Z</time>
      </trkpt>
      <trkpt lat="44.86449" lon="6.67025">
        <ele>2408.7204589844</ele>
        <time>2010-07-06T10:59:36Z</time>
      </trkpt>
      <trkpt lat="44.86469" lon="6.67005">
        <ele>2410.6430664062</ele>
        <time>2010-07-06T10:59:53Z</time>
      </trkpt>
      <trkpt lat="44.86469" lon="6.67014">
        <ele>2411.6044921875</ele>
        <time>2010-07-06T11:00:00Z</time>
      </trkpt>
      <trkpt lat="44.8646" lon="6.67029">
        <ele>2414.4885253906</ele>
        <time>2010-07-06T11:00:14Z</time>
      </trkpt>
      <trkpt lat="44.86456" lon="6.67035">
        <ele>2416.4111328125</ele>
        <time>2010-07-06T11:00:22Z</time>
      </trkpt>
      <trkpt lat="44.86454" lon="6.67044">
        <ele>2416.8918457031</ele>
        <time>2010-07-06T11:00:31Z</time>
      </trkpt>
      <trkpt lat="44.86454" lon="6.67048">
        <ele>2416.8918457031</ele>
        <time>2010-07-06T11:00:33Z</time>
      </trkpt>
      <trkpt lat="44.86456" lon="6.6705">
        <ele>2418.3337402344</ele>
        <time>2010-07-06T11:00:36Z</time>
      </trkpt>
      <trkpt lat="44.86467" lon="6.67037">
        <ele>2419.7756347656</ele>
        <time>2010-07-06T11:00:53Z</time>
      </trkpt>
      <trkpt lat="44.86469" lon="6.67035">
        <ele>2419.7756347656</ele>
        <time>2010-07-06T11:00:56Z</time>
      </trkpt>
      <trkpt lat="44.86488" lon="6.67029">
        <ele>2422.1789550781</ele>
        <time>2010-07-06T11:01:15Z</time>
      </trkpt>
      <trkpt lat="44.86492" lon="6.67029">
        <ele>2422.1789550781</ele>
        <time>2010-07-06T11:01:18Z</time>
      </trkpt>
      <trkpt lat="44.86499" lon="6.67027">
        <ele>2423.1403808594</ele>
        <time>2010-07-06T11:01:23Z</time>
      </trkpt>
      <trkpt lat="44.86503" lon="6.67031">
        <ele>2423.6208496094</ele>
        <time>2010-07-06T11:01:28Z</time>
      </trkpt>
      <trkpt lat="44.86505" lon="6.67046">
        <ele>2424.5822753906</ele>
        <time>2010-07-06T11:01:37Z</time>
      </trkpt>
      <trkpt lat="44.86507" lon="6.6705">
        <ele>2424.5822753906</ele>
        <time>2010-07-06T11:01:50Z</time>
      </trkpt>
      <trkpt lat="44.86501" lon="6.67048">
        <ele>2424.5822753906</ele>
        <time>2010-07-06T11:11:11Z</time>
      </trkpt>
      <trkpt lat="44.86503" lon="6.67048">
        <ele>2426.0241699219</ele>
        <time>2010-07-06T11:12:05Z</time>
      </trkpt>
      <trkpt lat="44.86495" lon="6.67027">
        <ele>2425.0627441406</ele>
        <time>2010-07-06T11:12:19Z</time>
      </trkpt>
      <trkpt lat="44.86492" lon="6.67027">
        <ele>2424.5822753906</ele>
        <time>2010-07-06T11:12:20Z</time>
      </trkpt>
      <trkpt lat="44.8648" lon="6.67033">
        <ele>2423.1403808594</ele>
        <time>2010-07-06T11:12:26Z</time>
      </trkpt>
      <trkpt lat="44.86475" lon="6.67037">
        <ele>2422.1789550781</ele>
        <time>2010-07-06T11:12:40Z</time>
      </trkpt>
      <trkpt lat="44.86473" lon="6.67037">
        <ele>2424.1015625</ele>
        <time>2010-07-06T11:14:01Z</time>
      </trkpt>
      <trkpt lat="44.86452" lon="6.67053">
        <ele>2421.6982421875</ele>
        <time>2010-07-06T11:14:09Z</time>
      </trkpt>
      <trkpt lat="44.86449" lon="6.6705">
        <ele>2420.7370605469</ele>
        <time>2010-07-06T11:14:11Z</time>
      </trkpt>
      <trkpt lat="44.86449" lon="6.67046">
        <ele>2419.7756347656</ele>
        <time>2010-07-06T11:14:13Z</time>
      </trkpt>
      <trkpt lat="44.86452" lon="6.67044">
        <ele>2420.2563476562</ele>
        <time>2010-07-06T11:14:28Z</time>
      </trkpt>
      <trkpt lat="44.86452" lon="6.67044">
        <ele>2420.2563476562</ele>
        <time>2010-07-06T11:14:34Z</time>
      </trkpt>
      <trkpt lat="44.86456" lon="6.67042">
        <ele>2420.2563476562</ele>
        <time>2010-07-06T11:14:36Z</time>
      </trkpt>
      <trkpt lat="44.86462" lon="6.67027">
        <ele>2416.8918457031</ele>
        <time>2010-07-06T11:14:39Z</time>
      </trkpt>
      <trkpt lat="44.86471" lon="6.67014">
        <ele>2414.0078125</ele>
        <time>2010-07-06T11:14:42Z</time>
      </trkpt>
      <trkpt lat="44.86469" lon="6.6701">
        <ele>2412.5659179688</ele>
        <time>2010-07-06T11:14:45Z</time>
      </trkpt>
      <trkpt lat="44.86465" lon="6.67014">
        <ele>2412.0852050781</ele>
        <time>2010-07-06T11:14:47Z</time>
      </trkpt>
      <trkpt lat="44.86426" lon="6.6704">
        <ele>2409.201171875</ele>
        <time>2010-07-06T11:14:57Z</time>
      </trkpt>
      <trkpt lat="44.86413" lon="6.67057">
        <ele>2407.2785644531</ele>
        <time>2010-07-06T11:15:01Z</time>
      </trkpt>
      <trkpt lat="44.86407" lon="6.67068">
        <ele>2405.8364257812</ele>
        <time>2010-07-06T11:15:04Z</time>
      </trkpt>
      <trkpt lat="44.864" lon="6.67072">
        <ele>2403.9140625</ele>
        <time>2010-07-06T11:15:09Z</time>
      </trkpt>
      <trkpt lat="44.86389" lon="6.67076">
        <ele>2400.5493164062</ele>
        <time>2010-07-06T11:15:14Z</time>
      </trkpt>
      <trkpt lat="44.86372" lon="6.67089">
        <ele>2396.7041015625</ele>
        <time>2010-07-06T11:15:23Z</time>
      </trkpt>
      <trkpt lat="44.86359" lon="6.67089">
        <ele>2392.8586425781</ele>
        <time>2010-07-06T11:15:28Z</time>
      </trkpt>
      <trkpt lat="44.86357" lon="6.67085">
        <ele>2391.4167480469</ele>
        <time>2010-07-06T11:15:31Z</time>
      </trkpt>
      <trkpt lat="44.86342" lon="6.67076">
        <ele>2389.9748535156</ele>
        <time>2010-07-06T11:15:38Z</time>
      </trkpt>
      <trkpt lat="44.86346" lon="6.67063">
        <ele>2388.0522460938</ele>
        <time>2010-07-06T11:15:44Z</time>
      </trkpt>
      <trkpt lat="44.86357" lon="6.67055">
        <ele>2386.6101074219</ele>
        <time>2010-07-06T11:15:51Z</time>
      </trkpt>
      <trkpt lat="44.86359" lon="6.67048">
        <ele>2385.6489257812</ele>
        <time>2010-07-06T11:15:53Z</time>
      </trkpt>
      <trkpt lat="44.86377" lon="6.67003">
        <ele>2382.2844238281</ele>
        <time>2010-07-06T11:16:03Z</time>
      </trkpt>
      <trkpt lat="44.86394" lon="6.66971">
        <ele>2378.4389648438</ele>
        <time>2010-07-06T11:16:10Z</time>
      </trkpt>
      <trkpt lat="44.86396" lon="6.66965">
        <ele>2378.4389648438</ele>
        <time>2010-07-06T11:16:11Z</time>
      </trkpt>
      <trkpt lat="44.86402" lon="6.66954">
        <ele>2377.4775390625</ele>
        <time>2010-07-06T11:16:13Z</time>
      </trkpt>
      <trkpt lat="44.86415" lon="6.66937">
        <ele>2374.1130371094</ele>
        <time>2010-07-06T11:16:17Z</time>
      </trkpt>
      <trkpt lat="44.86432" lon="6.66913">
        <ele>2372.1904296875</ele>
        <time>2010-07-06T11:16:22Z</time>
      </trkpt>
      <trkpt lat="44.86434" lon="6.66909">
        <ele>2370.2678222656</ele>
        <time>2010-07-06T11:16:23Z</time>
      </trkpt>
      <trkpt lat="44.86458" lon="6.66879">
        <ele>2367.3837890625</ele>
        <time>2010-07-06T11:16:30Z</time>
      </trkpt>
      <trkpt lat="44.86449" lon="6.66862">
        <ele>2362.5771484375</ele>
        <time>2010-07-06T11:16:37Z</time>
      </trkpt>
      <trkpt lat="44.86439" lon="6.66853">
        <ele>2358.7319335938</ele>
        <time>2010-07-06T11:16:42Z</time>
      </trkpt>
      <trkpt lat="44.86434" lon="6.66849">
        <ele>2357.2900390625</ele>
        <time>2010-07-06T11:16:45Z</time>
      </trkpt>
      <trkpt lat="44.8643" lon="6.66844">
        <ele>2353.9255371094</ele>
        <time>2010-07-06T11:16:49Z</time>
      </trkpt>
      <trkpt lat="44.86424" lon="6.66844">
        <ele>2350.5607910156</ele>
        <time>2010-07-06T11:16:55Z</time>
      </trkpt>
      <trkpt lat="44.86417" lon="6.66849">
        <ele>2347.1960449219</ele>
        <time>2010-07-06T11:17:03Z</time>
      </trkpt>
      <trkpt lat="44.86417" lon="6.66849">
        <ele>2346.7153320312</ele>
        <time>2010-07-06T11:17:04Z</time>
      </trkpt>
      <trkpt lat="44.86415" lon="6.66849">
        <ele>2346.7153320312</ele>
        <time>2010-07-06T11:17:06Z</time>
      </trkpt>
      <trkpt lat="44.86409" lon="6.66855">
        <ele>2344.7927246094</ele>
        <time>2010-07-06T11:17:11Z</time>
      </trkpt>
      <trkpt lat="44.86398" lon="6.66851">
        <ele>2343.3508300781</ele>
        <time>2010-07-06T11:17:20Z</time>
      </trkpt>
      <trkpt lat="44.864" lon="6.66851">
        <ele>2343.3508300781</ele>
        <time>2010-07-06T11:17:29Z</time>
      </trkpt>
      <trkpt lat="44.86402" lon="6.66855">
        <ele>2343.8315429688</ele>
        <time>2010-07-06T11:17:34Z</time>
      </trkpt>
      <trkpt lat="44.86396" lon="6.66866">
        <ele>2343.8315429688</ele>
        <time>2010-07-06T11:17:39Z</time>
      </trkpt>
      <trkpt lat="44.86392" lon="6.66868">
        <ele>2343.3508300781</ele>
        <time>2010-07-06T11:17:42Z</time>
      </trkpt>
      <trkpt lat="44.86389" lon="6.66879">
        <ele>2342.3896484375</ele>
        <time>2010-07-06T11:17:55Z</time>
      </trkpt>
      <trkpt lat="44.86381" lon="6.66883">
        <ele>2341.9089355469</ele>
        <time>2010-07-06T11:18:00Z</time>
      </trkpt>
      <trkpt lat="44.86379" lon="6.66883">
        <ele>2340.466796875</ele>
        <time>2010-07-06T11:18:02Z</time>
      </trkpt>
      <trkpt lat="44.86364" lon="6.66889">
        <ele>2336.1411132812</ele>
        <time>2010-07-06T11:18:15Z</time>
      </trkpt>
      <trkpt lat="44.86353" lon="6.66889">
        <ele>2332.7763671875</ele>
        <time>2010-07-06T11:18:24Z</time>
      </trkpt>
      <trkpt lat="44.86344" lon="6.66885">
        <ele>2328.9309082031</ele>
        <time>2010-07-06T11:18:34Z</time>
      </trkpt>
      <trkpt lat="44.86344" lon="6.66885">
        <ele>2329.4116210938</ele>
        <time>2010-07-06T11:18:39Z</time>
      </trkpt>
      <trkpt lat="44.86351" lon="6.66877">
        <ele>2327.4890136719</ele>
        <time>2010-07-06T11:18:49Z</time>
      </trkpt>
      <trkpt lat="44.86355" lon="6.66866">
        <ele>2327.0085449219</ele>
        <time>2010-07-06T11:18:56Z</time>
      </trkpt>
      <trkpt lat="44.86353" lon="6.66855">
        <ele>2323.1633300781</ele>
        <time>2010-07-06T11:19:02Z</time>
      </trkpt>
      <trkpt lat="44.86353" lon="6.66847">
        <ele>2321.2404785156</ele>
        <time>2010-07-06T11:19:06Z</time>
      </trkpt>
      <trkpt lat="44.86353" lon="6.66834">
        <ele>2318.3566894531</ele>
        <time>2010-07-06T11:19:15Z</time>
      </trkpt>
      <trkpt lat="44.86353" lon="6.66831">
        <ele>2317.8759765625</ele>
        <time>2010-07-06T11:19:16Z</time>
      </trkpt>
      <trkpt lat="44.86353" lon="6.66821">
        <ele>2315.47265625</ele>
        <time>2010-07-06T11:19:20Z</time>
      </trkpt>
      <trkpt lat="44.86351" lon="6.66806">
        <ele>2312.1079101562</ele>
        <time>2010-07-06T11:19:26Z</time>
      </trkpt>
      <trkpt lat="44.86349" lon="6.66804">
        <ele>2310.1853027344</ele>
        <time>2010-07-06T11:19:28Z</time>
      </trkpt>
      <trkpt lat="44.86344" lon="6.66801">
        <ele>2308.2626953125</ele>
        <time>2010-07-06T11:19:39Z</time>
      </trkpt>
      <trkpt lat="44.8634" lon="6.66806">
        <ele>2306.3400878906</ele>
        <time>2010-07-06T11:19:51Z</time>
      </trkpt>
      <trkpt lat="44.8634" lon="6.66801">
        <ele>2304.4174804688</ele>
        <time>2010-07-06T11:19:55Z</time>
      </trkpt>
      <trkpt lat="44.86342" lon="6.66795">
        <ele>2301.0529785156</ele>
        <time>2010-07-06T11:20:01Z</time>
      </trkpt>
      <trkpt lat="44.8634" lon="6.66793">
        <ele>2298.6494140625</ele>
        <time>2010-07-06T11:20:04Z</time>
      </trkpt>
      <trkpt lat="44.86338" lon="6.66795">
        <ele>2298.6494140625</ele>
        <time>2010-07-06T11:20:11Z</time>
      </trkpt>
      <trkpt lat="44.86321" lon="6.66812">
        <ele>2297.6882324219</ele>
        <time>2010-07-06T11:20:18Z</time>
      </trkpt>
      <trkpt lat="44.86304" lon="6.66823">
        <ele>2295.2849121094</ele>
        <time>2010-07-06T11:20:22Z</time>
      </trkpt>
      <trkpt lat="44.86282" lon="6.66829">
        <ele>2293.3623046875</ele>
        <time>2010-07-06T11:20:26Z</time>
      </trkpt>
      <trkpt lat="44.86259" lon="6.66836">
        <ele>2289.9978027344</ele>
        <time>2010-07-06T11:20:31Z</time>
      </trkpt>
      <trkpt lat="44.86222" lon="6.66842">
        <ele>2286.6330566406</ele>
        <time>2010-07-06T11:20:39Z</time>
      </trkpt>
      <trkpt lat="44.86209" lon="6.66849">
        <ele>2285.671875</ele>
        <time>2010-07-06T11:20:42Z</time>
      </trkpt>
      <trkpt lat="44.8619" lon="6.66864">
        <ele>2281.8264160156</ele>
        <time>2010-07-06T11:20:47Z</time>
      </trkpt>
      <trkpt lat="44.86173" lon="6.66879">
        <ele>2281.345703125</ele>
        <time>2010-07-06T11:20:51Z</time>
      </trkpt>
      <trkpt lat="44.86158" lon="6.66883">
        <ele>2278.9423828125</ele>
        <time>2010-07-06T11:20:54Z</time>
      </trkpt>
      <trkpt lat="44.86136" lon="6.66877">
        <ele>2276.5393066406</ele>
        <time>2010-07-06T11:20:58Z</time>
      </trkpt>
      <trkpt lat="44.86128" lon="6.66872">
        <ele>2275.5778808594</ele>
        <time>2010-07-06T11:21:00Z</time>
      </trkpt>
      <trkpt lat="44.86113" lon="6.66859">
        <ele>2273.6552734375</ele>
        <time>2010-07-06T11:21:03Z</time>
      </trkpt>
      <trkpt lat="44.86102" lon="6.66847">
        <ele>2270.2907714844</ele>
        <time>2010-07-06T11:21:06Z</time>
      </trkpt>
      <trkpt lat="44.86098" lon="6.66844">
        <ele>2269.3295898438</ele>
        <time>2010-07-06T11:21:07Z</time>
      </trkpt>
      <trkpt lat="44.86102" lon="6.66831">
        <ele>2268.8488769531</ele>
        <time>2010-07-06T11:21:11Z</time>
      </trkpt>
      <trkpt lat="44.86123" lon="6.66842">
        <ele>2267.8872070312</ele>
        <time>2010-07-06T11:21:16Z</time>
      </trkpt>
      <trkpt lat="44.86156" lon="6.6684">
        <ele>2263.5612792969</ele>
        <time>2010-07-06T11:21:23Z</time>
      </trkpt>
      <trkpt lat="44.86164" lon="6.66831">
        <ele>2262.1193847656</ele>
        <time>2010-07-06T11:21:25Z</time>
      </trkpt>
      <trkpt lat="44.86175" lon="6.66814">
        <ele>2261.6389160156</ele>
        <time>2010-07-06T11:21:28Z</time>
      </trkpt>
      <trkpt lat="44.86194" lon="6.66769">
        <ele>2256.3515625</ele>
        <time>2010-07-06T11:21:35Z</time>
      </trkpt>
      <trkpt lat="44.86196" lon="6.66763">
        <ele>2256.8322753906</ele>
        <time>2010-07-06T11:21:36Z</time>
      </trkpt>
      <trkpt lat="44.86213" lon="6.66726">
        <ele>2252.5063476562</ele>
        <time>2010-07-06T11:21:42Z</time>
      </trkpt>
      <trkpt lat="44.86231" lon="6.66705">
        <ele>2250.1030273438</ele>
        <time>2010-07-06T11:21:46Z</time>
      </trkpt>
      <trkpt lat="44.86265" lon="6.66696">
        <ele>2248.1801757812</ele>
        <time>2010-07-06T11:21:52Z</time>
      </trkpt>
      <trkpt lat="44.86274" lon="6.6669">
        <ele>2247.6997070312</ele>
        <time>2010-07-06T11:21:54Z</time>
      </trkpt>
      <trkpt lat="44.86291" lon="6.66666">
        <ele>2244.3349609375</ele>
        <time>2010-07-06T11:21:58Z</time>
      </trkpt>
      <trkpt lat="44.8631" lon="6.66636">
        <ele>2243.3737792969</ele>
        <time>2010-07-06T11:22:03Z</time>
      </trkpt>
      <trkpt lat="44.86329" lon="6.666">
        <ele>2240.0092773438</ele>
        <time>2010-07-06T11:22:09Z</time>
      </trkpt>
      <trkpt lat="44.86331" lon="6.66591">
        <ele>2239.5285644531</ele>
        <time>2010-07-06T11:22:10Z</time>
      </trkpt>
      <trkpt lat="44.86344" lon="6.66557">
        <ele>2237.6059570312</ele>
        <time>2010-07-06T11:22:15Z</time>
      </trkpt>
      <trkpt lat="44.86359" lon="6.66514">
        <ele>2235.6831054688</ele>
        <time>2010-07-06T11:22:21Z</time>
      </trkpt>
      <trkpt lat="44.86404" lon="6.66454">
        <ele>2231.837890625</ele>
        <time>2010-07-06T11:22:32Z</time>
      </trkpt>
      <trkpt lat="44.86409" lon="6.6645">
        <ele>2231.3571777344</ele>
        <time>2010-07-06T11:22:33Z</time>
      </trkpt>
      <trkpt lat="44.86428" lon="6.66426">
        <ele>2227.5119628906</ele>
        <time>2010-07-06T11:22:37Z</time>
      </trkpt>
      <trkpt lat="44.86441" lon="6.66411">
        <ele>2224.1474609375</ele>
        <time>2010-07-06T11:22:40Z</time>
      </trkpt>
      <trkpt lat="44.86456" lon="6.66396">
        <ele>2222.7055664062</ele>
        <time>2010-07-06T11:22:43Z</time>
      </trkpt>
      <trkpt lat="44.86469" lon="6.66396">
        <ele>2222.2248535156</ele>
        <time>2010-07-06T11:22:45Z</time>
      </trkpt>
      <trkpt lat="44.86486" lon="6.66396">
        <ele>2220.7829589844</ele>
        <time>2010-07-06T11:22:48Z</time>
      </trkpt>
      <trkpt lat="44.86518" lon="6.66394">
        <ele>2217.41796875</ele>
        <time>2010-07-06T11:22:53Z</time>
      </trkpt>
      <trkpt lat="44.86546" lon="6.66383">
        <ele>2214.0534667969</ele>
        <time>2010-07-06T11:22:58Z</time>
      </trkpt>
      <trkpt lat="44.86574" lon="6.66364">
        <ele>2210.6889648438</ele>
        <time>2010-07-06T11:23:03Z</time>
      </trkpt>
      <trkpt lat="44.8658" lon="6.66351">
        <ele>2210.2082519531</ele>
        <time>2010-07-06T11:23:05Z</time>
      </trkpt>
      <trkpt lat="44.86595" lon="6.66325">
        <ele>2207.3244628906</ele>
        <time>2010-07-06T11:23:09Z</time>
      </trkpt>
      <trkpt lat="44.8661" lon="6.66308">
        <ele>2206.3630371094</ele>
        <time>2010-07-06T11:23:12Z</time>
      </trkpt>
      <trkpt lat="44.86628" lon="6.66286">
        <ele>2204.4404296875</ele>
        <time>2010-07-06T11:23:16Z</time>
      </trkpt>
      <trkpt lat="44.86638" lon="6.66265">
        <ele>2202.517578125</ele>
        <time>2010-07-06T11:23:19Z</time>
      </trkpt>
      <trkpt lat="44.86666" lon="6.66211">
        <ele>2199.1530761719</ele>
        <time>2010-07-06T11:23:27Z</time>
      </trkpt>
      <trkpt lat="44.86692" lon="6.66173">
        <ele>2195.7885742188</ele>
        <time>2010-07-06T11:23:33Z</time>
      </trkpt>
      <trkpt lat="44.86724" lon="6.66136">
        <ele>2192.4240722656</ele>
        <time>2010-07-06T11:23:40Z</time>
      </trkpt>
      <trkpt lat="44.86748" lon="6.66113">
        <ele>2190.0207519531</ele>
        <time>2010-07-06T11:23:45Z</time>
      </trkpt>
      <trkpt lat="44.86771" lon="6.66083">
        <ele>2186.1752929688</ele>
        <time>2010-07-06T11:23:51Z</time>
      </trkpt>
      <trkpt lat="44.86776" lon="6.66078">
        <ele>2186.1752929688</ele>
        <time>2010-07-06T11:23:52Z</time>
      </trkpt>
      <trkpt lat="44.86782" lon="6.6607">
        <ele>2184.7333984375</ele>
        <time>2010-07-06T11:23:54Z</time>
      </trkpt>
      <trkpt lat="44.86799" lon="6.66044">
        <ele>2182.330078125</ele>
        <time>2010-07-06T11:23:59Z</time>
      </trkpt>
      <trkpt lat="44.86823" lon="6.66008">
        <ele>2178.9653320312</ele>
        <time>2010-07-06T11:24:06Z</time>
      </trkpt>
      <trkpt lat="44.86827" lon="6.66003">
        <ele>2178.9653320312</ele>
        <time>2010-07-06T11:24:07Z</time>
      </trkpt>
      <trkpt lat="44.86838" lon="6.65988">
        <ele>2177.04296875</ele>
        <time>2010-07-06T11:24:10Z</time>
      </trkpt>
      <trkpt lat="44.86825" lon="6.6599">
        <ele>2174.6396484375</ele>
        <time>2010-07-06T11:24:13Z</time>
      </trkpt>
      <trkpt lat="44.8663" lon="6.66087">
        <ele>2173.1977539062</ele>
        <time>2010-07-06T11:24:19Z</time>
      </trkpt>
      <trkpt lat="44.86617" lon="6.66087">
        <ele>2170.7941894531</ele>
        <time>2010-07-06T11:24:22Z</time>
      </trkpt>
      <trkpt lat="44.86602" lon="6.66087">
        <ele>2169.8327636719</ele>
        <time>2010-07-06T11:24:24Z</time>
      </trkpt>
      <trkpt lat="44.86598" lon="6.66074">
        <ele>2165.9875488281</ele>
        <time>2010-07-06T11:24:29Z</time>
      </trkpt>
      <trkpt lat="44.86598" lon="6.66068">
        <ele>2165.9875488281</ele>
        <time>2010-07-06T11:24:30Z</time>
      </trkpt>
      <trkpt lat="44.86602" lon="6.66061">
        <ele>2165.0263671875</ele>
        <time>2010-07-06T11:24:32Z</time>
      </trkpt>
      <trkpt lat="44.86595" lon="6.66029">
        <ele>2160.7004394531</ele>
        <time>2010-07-06T11:24:38Z</time>
      </trkpt>
      <trkpt lat="44.86595" lon="6.66025">
        <ele>2161.1811523438</ele>
        <time>2010-07-06T11:24:39Z</time>
      </trkpt>
      <trkpt lat="44.86621" lon="6.66005">
        <ele>2156.3745117188</ele>
        <time>2010-07-06T11:24:50Z</time>
      </trkpt>
      <trkpt lat="44.86643" lon="6.65984">
        <ele>2153.4904785156</ele>
        <time>2010-07-06T11:24:57Z</time>
      </trkpt>
      <trkpt lat="44.86666" lon="6.65952">
        <ele>2149.6452636719</ele>
        <time>2010-07-06T11:25:04Z</time>
      </trkpt>
      <trkpt lat="44.86679" lon="6.65932">
        <ele>2148.6838378906</ele>
        <time>2010-07-06T11:25:08Z</time>
      </trkpt>
      <trkpt lat="44.86686" lon="6.65909">
        <ele>2147.72265625</ele>
        <time>2010-07-06T11:25:12Z</time>
      </trkpt>
      <trkpt lat="44.86703" lon="6.65892">
        <ele>2147.72265625</ele>
        <time>2010-07-06T11:25:19Z</time>
      </trkpt>
      <trkpt lat="44.86707" lon="6.65887">
        <ele>2146.7612304688</ele>
        <time>2010-07-06T11:25:21Z</time>
      </trkpt>
      <trkpt lat="44.8672" lon="6.65836">
        <ele>2142.916015625</ele>
        <time>2010-07-06T11:25:29Z</time>
      </trkpt>
      <trkpt lat="44.86726" lon="6.65823">
        <ele>2141.4741210938</ele>
        <time>2010-07-06T11:25:31Z</time>
      </trkpt>
      <trkpt lat="44.86743" lon="6.65804">
        <ele>2140.0322265625</ele>
        <time>2010-07-06T11:25:35Z</time>
      </trkpt>
      <trkpt lat="44.86754" lon="6.65797">
        <ele>2138.109375</ele>
        <time>2010-07-06T11:25:37Z</time>
      </trkpt>
      <trkpt lat="44.86776" lon="6.65797">
        <ele>2136.1867675781</ele>
        <time>2010-07-06T11:25:41Z</time>
      </trkpt>
      <trkpt lat="44.86804" lon="6.65804">
        <ele>2131.8608398438</ele>
        <time>2010-07-06T11:25:46Z</time>
      </trkpt>
      <trkpt lat="44.86814" lon="6.65808">
        <ele>2131.3801269531</ele>
        <time>2010-07-06T11:25:48Z</time>
      </trkpt>
      <trkpt lat="44.86827" lon="6.6581">
        <ele>2130.4189453125</ele>
        <time>2010-07-06T11:25:50Z</time>
      </trkpt>
      <trkpt lat="44.8684" lon="6.65812">
        <ele>2129.4575195312</ele>
        <time>2010-07-06T11:25:52Z</time>
      </trkpt>
      <trkpt lat="44.86864" lon="6.65821">
        <ele>2128.4963378906</ele>
        <time>2010-07-06T11:25:56Z</time>
      </trkpt>
      <trkpt lat="44.86879" lon="6.65825">
        <ele>2128.4963378906</ele>
        <time>2010-07-06T11:25:59Z</time>
      </trkpt>
      <trkpt lat="44.86876" lon="6.65819">
        <ele>2128.015625</ele>
        <time>2010-07-06T11:26:06Z</time>
      </trkpt>
      <trkpt lat="44.86866" lon="6.65819">
        <ele>2127.5349121094</ele>
        <time>2010-07-06T11:26:08Z</time>
      </trkpt>
      <trkpt lat="44.86857" lon="6.65812">
        <ele>2125.1315917969</ele>
        <time>2010-07-06T11:26:11Z</time>
      </trkpt>
      <trkpt lat="44.86844" lon="6.65802">
        <ele>2123.208984375</ele>
        <time>2010-07-06T11:26:14Z</time>
      </trkpt>
      <trkpt lat="44.86834" lon="6.65795">
        <ele>2121.7668457031</ele>
        <time>2010-07-06T11:26:16Z</time>
      </trkpt>
      <trkpt lat="44.86819" lon="6.6578">
        <ele>2119.3637695312</ele>
        <time>2010-07-06T11:26:20Z</time>
      </trkpt>
      <trkpt lat="44.86754" lon="6.65722">
        <ele>2120.3249511719</ele>
        <time>2010-07-06T11:26:41Z</time>
      </trkpt>
      <trkpt lat="44.86724" lon="6.65716">
        <ele>2122.2475585938</ele>
        <time>2010-07-06T11:26:58Z</time>
      </trkpt>
      <trkpt lat="44.86703" lon="6.6575">
        <ele>2125.6123046875</ele>
        <time>2010-07-06T11:27:15Z</time>
      </trkpt>
      <trkpt lat="44.86686" lon="6.65782">
        <ele>2125.6123046875</ele>
        <time>2010-07-06T11:27:29Z</time>
      </trkpt>
      <trkpt lat="44.86668" lon="6.65844">
        <ele>2124.1704101562</ele>
        <time>2010-07-06T11:27:48Z</time>
      </trkpt>
      <trkpt lat="44.86632" lon="6.65896">
        <ele>2126.0930175781</ele>
        <time>2010-07-06T11:28:17Z</time>
      </trkpt>
      <trkpt lat="44.86634" lon="6.65885">
        <ele>2125.1315917969</ele>
        <time>2010-07-06T11:28:33Z</time>
      </trkpt>
      <trkpt lat="44.86621" lon="6.6589">
        <ele>2124.1704101562</ele>
        <time>2010-07-06T11:29:16Z</time>
      </trkpt>
      <trkpt lat="44.86645" lon="6.65894">
        <ele>2124.1704101562</ele>
        <time>2010-07-06T11:29:54Z</time>
      </trkpt>
      <trkpt lat="44.86643" lon="6.65892">
        <ele>2125.6123046875</ele>
        <time>2010-07-06T11:30:37Z</time>
      </trkpt>
      <trkpt lat="44.86675" lon="6.65868">
        <ele>2126.0930175781</ele>
        <time>2010-07-06T11:30:56Z</time>
      </trkpt>
      <trkpt lat="44.86701" lon="6.6581">
        <ele>2126.0930175781</ele>
        <time>2010-07-06T11:31:10Z</time>
      </trkpt>
      <trkpt lat="44.86728" lon="6.65778">
        <ele>2125.1315917969</ele>
        <time>2010-07-06T11:31:21Z</time>
      </trkpt>
      <trkpt lat="44.86733" lon="6.65776">
        <ele>2124.6511230469</ele>
        <time>2010-07-06T11:31:22Z</time>
      </trkpt>
      <trkpt lat="44.86746" lon="6.65769">
        <ele>2124.6511230469</ele>
        <time>2010-07-06T11:31:25Z</time>
      </trkpt>
      <trkpt lat="44.86763" lon="6.65761">
        <ele>2122.7282714844</ele>
        <time>2010-07-06T11:31:28Z</time>
      </trkpt>
      <trkpt lat="44.86769" lon="6.65756">
        <ele>2122.7282714844</ele>
        <time>2010-07-06T11:31:29Z</time>
      </trkpt>
      <trkpt lat="44.86789" lon="6.65756">
        <ele>2120.8056640625</ele>
        <time>2010-07-06T11:31:33Z</time>
      </trkpt>
      <trkpt lat="44.86838" lon="6.65782">
        <ele>2117.9216308594</ele>
        <time>2010-07-06T11:31:43Z</time>
      </trkpt>
      <trkpt lat="44.86842" lon="6.65784">
        <ele>2117.4409179688</ele>
        <time>2010-07-06T11:31:44Z</time>
      </trkpt>
      <trkpt lat="44.86857" lon="6.65789">
        <ele>2115.9990234375</ele>
        <time>2010-07-06T11:31:47Z</time>
      </trkpt>
      <trkpt lat="44.86889" lon="6.65797">
        <ele>2113.115234375</ele>
        <time>2010-07-06T11:31:53Z</time>
      </trkpt>
      <trkpt lat="44.86919" lon="6.65795">
        <ele>2109.2700195312</ele>
        <time>2010-07-06T11:31:59Z</time>
      </trkpt>
      <trkpt lat="44.86937" lon="6.65789">
        <ele>2106.8664550781</ele>
        <time>2010-07-06T11:32:02Z</time>
      </trkpt>
      <trkpt lat="44.86964" lon="6.6578">
        <ele>2103.501953125</ele>
        <time>2010-07-06T11:32:07Z</time>
      </trkpt>
      <trkpt lat="44.86995" lon="6.65756">
        <ele>2101.0986328125</ele>
        <time>2010-07-06T11:32:14Z</time>
      </trkpt>
      <trkpt lat="44.86964" lon="6.6575">
        <ele>2099.6567382812</ele>
        <time>2010-07-06T11:32:22Z</time>
      </trkpt>
      <trkpt lat="44.86947" lon="6.65754">
        <ele>2096.7727050781</ele>
        <time>2010-07-06T11:32:26Z</time>
      </trkpt>
      <trkpt lat="44.86922" lon="6.65759">
        <ele>2094.3693847656</ele>
        <time>2010-07-06T11:32:31Z</time>
      </trkpt>
      <trkpt lat="44.86902" lon="6.65763">
        <ele>2092.4470214844</ele>
        <time>2010-07-06T11:32:35Z</time>
      </trkpt>
      <trkpt lat="44.86887" lon="6.65769">
        <ele>2090.0434570312</ele>
        <time>2010-07-06T11:32:38Z</time>
      </trkpt>
      <trkpt lat="44.86861" lon="6.65776">
        <ele>2086.6787109375</ele>
        <time>2010-07-06T11:32:43Z</time>
      </trkpt>
      <trkpt lat="44.86838" lon="6.65784">
        <ele>2083.794921875</ele>
        <time>2010-07-06T11:32:48Z</time>
      </trkpt>
      <trkpt lat="44.86784" lon="6.65748">
        <ele>2080.4304199219</ele>
        <time>2010-07-06T11:32:59Z</time>
      </trkpt>
      <trkpt lat="44.86776" lon="6.65744">
        <ele>2079.4689941406</ele>
        <time>2010-07-06T11:33:01Z</time>
      </trkpt>
      <trkpt lat="44.86756" lon="6.65735">
        <ele>2076.5852050781</ele>
        <time>2010-07-06T11:33:05Z</time>
      </trkpt>
      <trkpt lat="44.86746" lon="6.65733">
        <ele>2075.6235351562</ele>
        <time>2010-07-06T11:33:07Z</time>
      </trkpt>
      <trkpt lat="44.86731" lon="6.65729">
        <ele>2074.181640625</ele>
        <time>2010-07-06T11:33:10Z</time>
      </trkpt>
      <trkpt lat="44.86716" lon="6.65726">
        <ele>2072.2590332031</ele>
        <time>2010-07-06T11:33:13Z</time>
      </trkpt>
      <trkpt lat="44.86681" lon="6.65735">
        <ele>2068.89453125</ele>
        <time>2010-07-06T11:33:21Z</time>
      </trkpt>
      <trkpt lat="44.86675" lon="6.65735">
        <ele>2067.9331054688</ele>
        <time>2010-07-06T11:33:23Z</time>
      </trkpt>
      <trkpt lat="44.86647" lon="6.65737">
        <ele>2065.0493164062</ele>
        <time>2010-07-06T11:33:27Z</time>
      </trkpt>
      <trkpt lat="44.86621" lon="6.6575">
        <ele>2063.6071777344</ele>
        <time>2010-07-06T11:33:31Z</time>
      </trkpt>
      <trkpt lat="44.8661" lon="6.65759">
        <ele>2062.1652832031</ele>
        <time>2010-07-06T11:33:33Z</time>
      </trkpt>
      <trkpt lat="44.86604" lon="6.65763">
        <ele>2062.1652832031</ele>
        <time>2010-07-06T11:33:34Z</time>
      </trkpt>
      <trkpt lat="44.86593" lon="6.65769">
        <ele>2060.2426757812</ele>
        <time>2010-07-06T11:33:36Z</time>
      </trkpt>
      <trkpt lat="44.86563" lon="6.65782">
        <ele>2056.8779296875</ele>
        <time>2010-07-06T11:33:41Z</time>
      </trkpt>
      <trkpt lat="44.8655" lon="6.65787">
        <ele>2056.3972167969</ele>
        <time>2010-07-06T11:33:43Z</time>
      </trkpt>
      <trkpt lat="44.86525" lon="6.65793">
        <ele>2053.5134277344</ele>
        <time>2010-07-06T11:33:47Z</time>
      </trkpt>
      <trkpt lat="44.86492" lon="6.65804">
        <ele>2053.0327148438</ele>
        <time>2010-07-06T11:33:57Z</time>
      </trkpt>
      <trkpt lat="44.8649" lon="6.65799">
        <ele>2048.7067871094</ele>
        <time>2010-07-06T11:34:10Z</time>
      </trkpt>
      <trkpt lat="44.86484" lon="6.65799">
        <ele>2044.8615722656</ele>
        <time>2010-07-06T11:34:24Z</time>
      </trkpt>
      <trkpt lat="44.86484" lon="6.65799">
        <ele>2044.8615722656</ele>
        <time>2010-07-06T11:34:25Z</time>
      </trkpt>
      <trkpt lat="44.86475" lon="6.65793">
        <ele>2044.380859375</ele>
        <time>2010-07-06T11:34:31Z</time>
      </trkpt>
      <trkpt lat="44.86469" lon="6.6578">
        <ele>2040.0549316406</ele>
        <time>2010-07-06T11:34:36Z</time>
      </trkpt>
      <trkpt lat="44.86467" lon="6.65778">
        <ele>2038.6130371094</ele>
        <time>2010-07-06T11:34:40Z</time>
      </trkpt>
      <trkpt lat="44.86458" lon="6.6578">
        <ele>2035.2482910156</ele>
        <time>2010-07-06T11:34:45Z</time>
      </trkpt>
      <trkpt lat="44.86449" lon="6.65778">
        <ele>2033.3256835938</ele>
        <time>2010-07-06T11:34:48Z</time>
      </trkpt>
      <trkpt lat="44.86443" lon="6.65767">
        <ele>2030.4418945312</ele>
        <time>2010-07-06T11:34:52Z</time>
      </trkpt>
      <trkpt lat="44.86437" lon="6.65759">
        <ele>2027.5576171875</ele>
        <time>2010-07-06T11:34:55Z</time>
      </trkpt>
      <trkpt lat="44.86434" lon="6.65756">
        <ele>2026.5964355469</ele>
        <time>2010-07-06T11:34:56Z</time>
      </trkpt>
      <trkpt lat="44.86432" lon="6.6575">
        <ele>2025.6350097656</ele>
        <time>2010-07-06T11:34:58Z</time>
      </trkpt>
      <trkpt lat="44.86434" lon="6.65744">
        <ele>2022.2705078125</ele>
        <time>2010-07-06T11:35:00Z</time>
      </trkpt>
      <trkpt lat="44.86428" lon="6.65714">
        <ele>2019.38671875</ele>
        <time>2010-07-06T11:35:05Z</time>
      </trkpt>
      <trkpt lat="44.86424" lon="6.65692">
        <ele>2014.0993652344</ele>
        <time>2010-07-06T11:35:09Z</time>
      </trkpt>
      <trkpt lat="44.86411" lon="6.65675">
        <ele>2011.6960449219</ele>
        <time>2010-07-06T11:35:14Z</time>
      </trkpt>
      <trkpt lat="44.86411" lon="6.65668">
        <ele>2009.2927246094</ele>
        <time>2010-07-06T11:35:25Z</time>
      </trkpt>
      <trkpt lat="44.86409" lon="6.65668">
        <ele>2006.8894042969</ele>
        <time>2010-07-06T11:35:39Z</time>
      </trkpt>
      <trkpt lat="44.864" lon="6.65668">
        <ele>2006.8894042969</ele>
        <time>2010-07-06T11:35:45Z</time>
      </trkpt>
      <trkpt lat="44.86387" lon="6.65668">
        <ele>2004.0056152344</ele>
        <time>2010-07-06T11:35:56Z</time>
      </trkpt>
      <trkpt lat="44.86385" lon="6.65671">
        <ele>2004.4860839844</ele>
        <time>2010-07-06T11:35:58Z</time>
      </trkpt>
      <trkpt lat="44.86379" lon="6.65675">
        <ele>2004.4860839844</ele>
        <time>2010-07-06T11:36:13Z</time>
      </trkpt>
      <trkpt lat="44.86379" lon="6.65679">
        <ele>2004.4860839844</ele>
        <time>2010-07-06T11:36:21Z</time>
      </trkpt>
      <trkpt lat="44.86362" lon="6.65714">
        <ele>2002.5634765625</ele>
        <time>2010-07-06T11:36:31Z</time>
      </trkpt>
      <trkpt lat="44.86357" lon="6.65726">
        <ele>2001.1215820312</ele>
        <time>2010-07-06T11:36:36Z</time>
      </trkpt>
      <trkpt lat="44.86353" lon="6.65746">
        <ele>1999.1989746094</ele>
        <time>2010-07-06T11:36:46Z</time>
      </trkpt>
      <trkpt lat="44.86351" lon="6.6575">
        <ele>1999.1989746094</ele>
        <time>2010-07-06T11:36:47Z</time>
      </trkpt>
      <trkpt lat="44.86327" lon="6.65784">
        <ele>1996.7956542969</ele>
        <time>2010-07-06T11:36:56Z</time>
      </trkpt>
      <trkpt lat="44.86321" lon="6.65791">
        <ele>1995.353515625</ele>
        <time>2010-07-06T11:36:58Z</time>
      </trkpt>
      <trkpt lat="44.8631" lon="6.65806">
        <ele>1992.9501953125</ele>
        <time>2010-07-06T11:37:03Z</time>
      </trkpt>
      <trkpt lat="44.86295" lon="6.65802">
        <ele>1989.5856933594</ele>
        <time>2010-07-06T11:37:13Z</time>
      </trkpt>
      <trkpt lat="44.86286" lon="6.65795">
        <ele>1986.7016601562</ele>
        <time>2010-07-06T11:37:18Z</time>
      </trkpt>
      <trkpt lat="44.86278" lon="6.65793">
        <ele>1982.8564453125</ele>
        <time>2010-07-06T11:37:23Z</time>
      </trkpt>
      <trkpt lat="44.86269" lon="6.65789">
        <ele>1979.9724121094</ele>
        <time>2010-07-06T11:37:28Z</time>
      </trkpt>
      <trkpt lat="44.86256" lon="6.65784">
        <ele>1976.1271972656</ele>
        <time>2010-07-06T11:37:34Z</time>
      </trkpt>
      <trkpt lat="44.8625" lon="6.65782">
        <ele>1974.6853027344</ele>
        <time>2010-07-06T11:37:36Z</time>
      </trkpt>
      <trkpt lat="44.86241" lon="6.65784">
        <ele>1973.7238769531</ele>
        <time>2010-07-06T11:37:38Z</time>
      </trkpt>
      <trkpt lat="44.86235" lon="6.65789">
        <ele>1972.7626953125</ele>
        <time>2010-07-06T11:37:40Z</time>
      </trkpt>
      <trkpt lat="44.86213" lon="6.65778">
        <ele>1971.8012695312</ele>
        <time>2010-07-06T11:37:53Z</time>
      </trkpt>
      <trkpt lat="44.86207" lon="6.65774">
        <ele>1971.3205566406</ele>
        <time>2010-07-06T11:37:59Z</time>
      </trkpt>
      <trkpt lat="44.86194" lon="6.65776">
        <ele>1968.4367675781</ele>
        <time>2010-07-06T11:38:06Z</time>
      </trkpt>
      <trkpt lat="44.86179" lon="6.6578">
        <ele>1966.9948730469</ele>
        <time>2010-07-06T11:38:09Z</time>
      </trkpt>
      <trkpt lat="44.86093" lon="6.65827">
        <ele>1965.072265625</ele>
        <time>2010-07-06T11:38:19Z</time>
      </trkpt>
      <trkpt lat="44.8607" lon="6.65847">
        <ele>1964.1108398438</ele>
        <time>2010-07-06T11:38:29Z</time>
      </trkpt>
      <trkpt lat="44.86046" lon="6.65866">
        <ele>1961.2268066406</ele>
        <time>2010-07-06T11:38:38Z</time>
      </trkpt>
      <trkpt lat="44.86044" lon="6.6587">
        <ele>1960.2653808594</ele>
        <time>2010-07-06T11:38:39Z</time>
      </trkpt>
      <trkpt lat="44.86044" lon="6.65874">
        <ele>1958.3427734375</ele>
        <time>2010-07-06T11:38:46Z</time>
      </trkpt>
      <trkpt lat="44.86046" lon="6.65874">
        <ele>1959.3041992188</ele>
        <time>2010-07-06T11:39:25Z</time>
      </trkpt>
      <trkpt lat="44.86046" lon="6.65877">
        <ele>1958.3427734375</ele>
        <time>2010-07-06T11:39:27Z</time>
      </trkpt>
      <trkpt lat="44.86044" lon="6.65902">
        <ele>1955.939453125</ele>
        <time>2010-07-06T11:39:34Z</time>
      </trkpt>
      <trkpt lat="44.86033" lon="6.65917">
        <ele>1954.0170898438</ele>
        <time>2010-07-06T11:39:38Z</time>
      </trkpt>
      <trkpt lat="44.86016" lon="6.65924">
        <ele>1952.0942382812</ele>
        <time>2010-07-06T11:39:42Z</time>
      </trkpt>
      <trkpt lat="44.8601" lon="6.65926">
        <ele>1950.171875</ele>
        <time>2010-07-06T11:39:51Z</time>
      </trkpt>
      <trkpt lat="44.8601" lon="6.65928">
        <ele>1949.2104492188</ele>
        <time>2010-07-06T11:39:52Z</time>
      </trkpt>
      <trkpt lat="44.86003" lon="6.65932">
        <ele>1948.2490234375</ele>
        <time>2010-07-06T11:39:56Z</time>
      </trkpt>
      <trkpt lat="44.85988" lon="6.65941">
        <ele>1945.3649902344</ele>
        <time>2010-07-06T11:40:03Z</time>
      </trkpt>
      <trkpt lat="44.85977" lon="6.65952">
        <ele>1942.9616699219</ele>
        <time>2010-07-06T11:40:07Z</time>
      </trkpt>
      <trkpt lat="44.85973" lon="6.65958">
        <ele>1941.5197753906</ele>
        <time>2010-07-06T11:40:09Z</time>
      </trkpt>
      <trkpt lat="44.85962" lon="6.6598">
        <ele>1940.0778808594</ele>
        <time>2010-07-06T11:40:18Z</time>
      </trkpt>
      <trkpt lat="44.85965" lon="6.65984">
        <ele>1938.1552734375</ele>
        <time>2010-07-06T11:40:56Z</time>
      </trkpt>
      <trkpt lat="44.85965" lon="6.65988">
        <ele>1937.1938476562</ele>
        <time>2010-07-06T11:40:58Z</time>
      </trkpt>
      <trkpt lat="44.8596" lon="6.65999">
        <ele>1933.3486328125</ele>
        <time>2010-07-06T11:41:01Z</time>
      </trkpt>
      <trkpt lat="44.85956" lon="6.65995">
        <ele>1931.9064941406</ele>
        <time>2010-07-06T11:41:03Z</time>
      </trkpt>
      <trkpt lat="44.85952" lon="6.65992">
        <ele>1930.4645996094</ele>
        <time>2010-07-06T11:41:11Z</time>
      </trkpt>
      <trkpt lat="44.85952" lon="6.65986">
        <ele>1928.0612792969</ele>
        <time>2010-07-06T11:41:26Z</time>
      </trkpt>
      <trkpt lat="44.85952" lon="6.65977">
        <ele>1926.6193847656</ele>
        <time>2010-07-06T11:41:33Z</time>
      </trkpt>
      <trkpt lat="44.85947" lon="6.65965">
        <ele>1924.2160644531</ele>
        <time>2010-07-06T11:41:39Z</time>
      </trkpt>
      <trkpt lat="44.85945" lon="6.65956">
        <ele>1921.33203125</ele>
        <time>2010-07-06T11:41:42Z</time>
      </trkpt>
      <trkpt lat="44.85945" lon="6.65954">
        <ele>1921.33203125</ele>
        <time>2010-07-06T11:41:43Z</time>
      </trkpt>
      <trkpt lat="44.85939" lon="6.65943">
        <ele>1920.3708496094</ele>
        <time>2010-07-06T11:41:45Z</time>
      </trkpt>
      <trkpt lat="44.85924" lon="6.65922">
        <ele>1918.4482421875</ele>
        <time>2010-07-06T11:41:50Z</time>
      </trkpt>
      <trkpt lat="44.85911" lon="6.65915">
        <ele>1917.0063476562</ele>
        <time>2010-07-06T11:42:04Z</time>
      </trkpt>
      <trkpt lat="44.85911" lon="6.65915">
        <ele>1917.0063476562</ele>
        <time>2010-07-06T11:42:29Z</time>
      </trkpt>
      <trkpt lat="44.85915" lon="6.65915">
        <ele>1916.044921875</ele>
        <time>2010-07-06T11:42:32Z</time>
      </trkpt>
      <trkpt lat="44.85919" lon="6.65913">
        <ele>1913.1608886719</ele>
        <time>2010-07-06T11:42:35Z</time>
      </trkpt>
      <trkpt lat="44.85917" lon="6.65898">
        <ele>1909.3156738281</ele>
        <time>2010-07-06T11:42:40Z</time>
      </trkpt>
      <trkpt lat="44.85907" lon="6.65872">
        <ele>1905.4704589844</ele>
        <time>2010-07-06T11:42:45Z</time>
      </trkpt>
      <trkpt lat="44.85898" lon="6.65862">
        <ele>1903.5478515625</ele>
        <time>2010-07-06T11:42:55Z</time>
      </trkpt>
      <trkpt lat="44.85892" lon="6.65859">
        <ele>1902.5864257812</ele>
        <time>2010-07-06T11:43:22Z</time>
      </trkpt>
      <trkpt lat="44.85683" lon="6.65808">
        <ele>1860.2883300781</ele>
        <time>2010-07-06T11:44:50Z</time>
      </trkpt>
      <trkpt lat="44.85694" lon="6.65808">
        <ele>1859.8076171875</ele>
        <time>2010-07-06T11:44:56Z</time>
      </trkpt>
      <trkpt lat="44.85677" lon="6.65776">
        <ele>1857.4045410156</ele>
        <time>2010-07-06T11:45:13Z</time>
      </trkpt>
      <trkpt lat="44.85673" lon="6.65778">
        <ele>1853.5593261719</ele>
        <time>2010-07-06T11:45:17Z</time>
      </trkpt>
      <trkpt lat="44.85662" lon="6.65774">
        <ele>1850.1945800781</ele>
        <time>2010-07-06T11:45:22Z</time>
      </trkpt>
      <trkpt lat="44.8566" lon="6.65771">
        <ele>1850.1945800781</ele>
        <time>2010-07-06T11:45:23Z</time>
      </trkpt>
      <trkpt lat="44.85636" lon="6.65759">
        <ele>1846.3493652344</ele>
        <time>2010-07-06T11:45:31Z</time>
      </trkpt>
      <trkpt lat="44.85626" lon="6.65752">
        <ele>1842.5041503906</ele>
        <time>2010-07-06T11:45:37Z</time>
      </trkpt>
      <trkpt lat="44.85623" lon="6.6575">
        <ele>1842.5041503906</ele>
        <time>2010-07-06T11:45:38Z</time>
      </trkpt>
      <trkpt lat="44.85617" lon="6.65748">
        <ele>1839.1394042969</ele>
        <time>2010-07-06T11:45:42Z</time>
      </trkpt>
      <trkpt lat="44.8561" lon="6.65741">
        <ele>1837.216796875</ele>
        <time>2010-07-06T11:45:46Z</time>
      </trkpt>
      <trkpt lat="44.8561" lon="6.65729">
        <ele>1837.216796875</ele>
        <time>2010-07-06T11:46:01Z</time>
      </trkpt>
      <trkpt lat="44.8561" lon="6.65724">
        <ele>1839.1394042969</ele>
        <time>2010-07-06T11:46:10Z</time>
      </trkpt>
      <trkpt lat="44.85608" lon="6.65726">
        <ele>1835.7746582031</ele>
        <time>2010-07-06T11:46:20Z</time>
      </trkpt>
      <trkpt lat="44.85608" lon="6.65726">
        <ele>1833.3713378906</ele>
        <time>2010-07-06T11:46:23Z</time>
      </trkpt>
      <trkpt lat="44.85606" lon="6.65726">
        <ele>1831.9294433594</ele>
        <time>2010-07-06T11:46:26Z</time>
      </trkpt>
      <trkpt lat="44.85604" lon="6.65729">
        <ele>1828.5649414062</ele>
        <time>2010-07-06T11:46:33Z</time>
      </trkpt>
      <trkpt lat="44.85604" lon="6.65729">
        <ele>1825.6809082031</ele>
        <time>2010-07-06T11:46:37Z</time>
      </trkpt>
      <trkpt lat="44.85604" lon="6.65729">
        <ele>1825.2001953125</ele>
        <time>2010-07-06T11:46:38Z</time>
      </trkpt>
      <trkpt lat="44.85602" lon="6.65729">
        <ele>1823.2778320312</ele>
        <time>2010-07-06T11:46:44Z</time>
      </trkpt>
      <trkpt lat="44.856" lon="6.65729">
        <ele>1818.9516601562</ele>
        <time>2010-07-06T11:46:49Z</time>
      </trkpt>
      <trkpt lat="44.856" lon="6.65729">
        <ele>1818.9516601562</ele>
        <time>2010-07-06T11:46:50Z</time>
      </trkpt>
      <trkpt lat="44.85598" lon="6.65731">
        <ele>1815.5871582031</ele>
        <time>2010-07-06T11:46:56Z</time>
      </trkpt>
      <trkpt lat="44.85598" lon="6.65729">
        <ele>1812.703125</ele>
        <time>2010-07-06T11:47:00Z</time>
      </trkpt>
      <trkpt lat="44.85598" lon="6.65729">
        <ele>1812.703125</ele>
        <time>2010-07-06T11:47:01Z</time>
      </trkpt>
      <trkpt lat="44.85598" lon="6.65729">
        <ele>1810.7805175781</ele>
        <time>2010-07-06T11:47:04Z</time>
      </trkpt>
      <trkpt lat="44.85595" lon="6.65729">
        <ele>1808.3771972656</ele>
        <time>2010-07-06T11:47:08Z</time>
      </trkpt>
      <trkpt lat="44.85593" lon="6.65726">
        <ele>1806.9353027344</ele>
        <time>2010-07-06T11:47:11Z</time>
      </trkpt>
      <trkpt lat="44.85589" lon="6.65726">
        <ele>1803.5705566406</ele>
        <time>2010-07-06T11:47:14Z</time>
      </trkpt>
      <trkpt lat="44.85555" lon="6.65737">
        <ele>1801.1672363281</ele>
        <time>2010-07-06T11:47:42Z</time>
      </trkpt>
      <trkpt lat="44.85548" lon="6.65739">
        <ele>1799.2446289062</ele>
        <time>2010-07-06T11:47:58Z</time>
      </trkpt>
      <trkpt lat="44.85546" lon="6.65735">
        <ele>1798.7639160156</ele>
        <time>2010-07-06T11:48:01Z</time>
      </trkpt>
      <trkpt lat="44.8554" lon="6.65739">
        <ele>1797.3220214844</ele>
        <time>2010-07-06T11:48:17Z</time>
      </trkpt>
      <trkpt lat="44.85538" lon="6.65735">
        <ele>1794.4379882812</ele>
        <time>2010-07-06T11:48:39Z</time>
      </trkpt>
      <trkpt lat="44.85542" lon="6.65729">
        <ele>1791.0734863281</ele>
        <time>2010-07-06T11:48:46Z</time>
      </trkpt>
      <trkpt lat="44.85542" lon="6.65729">
        <ele>1791.0734863281</ele>
        <time>2010-07-06T11:48:47Z</time>
      </trkpt>
      <trkpt lat="44.85548" lon="6.65718">
        <ele>1787.7087402344</ele>
        <time>2010-07-06T11:49:00Z</time>
      </trkpt>
      <trkpt lat="44.85548" lon="6.65716">
        <ele>1785.7861328125</ele>
        <time>2010-07-06T11:49:03Z</time>
      </trkpt>
      <trkpt lat="44.85542" lon="6.65711">
        <ele>1782.9020996094</ele>
        <time>2010-07-06T11:49:13Z</time>
      </trkpt>
      <trkpt lat="44.8554" lon="6.65709">
        <ele>1781.4602050781</ele>
        <time>2010-07-06T11:49:16Z</time>
      </trkpt>
      <trkpt lat="44.85535" lon="6.65705">
        <ele>1778.5764160156</ele>
        <time>2010-07-06T11:49:22Z</time>
      </trkpt>
      <trkpt lat="44.85533" lon="6.65703">
        <ele>1777.6149902344</ele>
        <time>2010-07-06T11:49:24Z</time>
      </trkpt>
      <trkpt lat="44.85527" lon="6.65703">
        <ele>1774.7312011719</ele>
        <time>2010-07-06T11:49:30Z</time>
      </trkpt>
      <trkpt lat="44.85516" lon="6.65703">
        <ele>1770.8857421875</ele>
        <time>2010-07-06T11:49:39Z</time>
      </trkpt>
      <trkpt lat="44.85514" lon="6.65703">
        <ele>1768.482421875</ele>
        <time>2010-07-06T11:49:52Z</time>
      </trkpt>
      <trkpt lat="44.85512" lon="6.65703">
        <ele>1765.1179199219</ele>
        <time>2010-07-06T11:50:02Z</time>
      </trkpt>
      <trkpt lat="44.85488" lon="6.65711">
        <ele>1767.0405273438</ele>
        <time>2010-07-06T11:50:26Z</time>
      </trkpt>
      <trkpt lat="44.85462" lon="6.65729">
        <ele>1763.1953125</ele>
        <time>2010-07-06T11:51:39Z</time>
      </trkpt>
      <trkpt lat="44.8546" lon="6.65729">
        <ele>1763.1953125</ele>
        <time>2010-07-06T11:51:40Z</time>
      </trkpt>
      <trkpt lat="44.85458" lon="6.65731">
        <ele>1758.8693847656</ele>
        <time>2010-07-06T11:51:44Z</time>
      </trkpt>
      <trkpt lat="44.8545" lon="6.65731">
        <ele>1755.9851074219</ele>
        <time>2010-07-06T11:51:51Z</time>
      </trkpt>
      <trkpt lat="44.8545" lon="6.65731">
        <ele>1755.5046386719</ele>
        <time>2010-07-06T11:51:52Z</time>
      </trkpt>
      <trkpt lat="44.85437" lon="6.65726">
        <ele>1753.58203125</ele>
        <time>2010-07-06T11:52:05Z</time>
      </trkpt>
      <trkpt lat="44.85424" lon="6.65714">
        <ele>1750.6979980469</ele>
        <time>2010-07-06T11:52:13Z</time>
      </trkpt>
      <trkpt lat="44.85411" lon="6.65707">
        <ele>1747.8142089844</ele>
        <time>2010-07-06T11:52:19Z</time>
      </trkpt>
      <trkpt lat="44.85402" lon="6.65701">
        <ele>1744.9301757812</ele>
        <time>2010-07-06T11:52:23Z</time>
      </trkpt>
      <trkpt lat="44.85396" lon="6.65696">
        <ele>1743.9689941406</ele>
        <time>2010-07-06T11:52:26Z</time>
      </trkpt>
      <trkpt lat="44.85394" lon="6.6569">
        <ele>1742.0463867188</ele>
        <time>2010-07-06T11:52:30Z</time>
      </trkpt>
      <trkpt lat="44.85396" lon="6.65684">
        <ele>1738.2009277344</ele>
        <time>2010-07-06T11:52:35Z</time>
      </trkpt>
      <trkpt lat="44.85398" lon="6.65681">
        <ele>1738.681640625</ele>
        <time>2010-07-06T11:52:36Z</time>
      </trkpt>
      <trkpt lat="44.854" lon="6.65675">
        <ele>1734.8364257812</ele>
        <time>2010-07-06T11:52:40Z</time>
      </trkpt>
      <trkpt lat="44.854" lon="6.65668">
        <ele>1733.3942871094</ele>
        <time>2010-07-06T11:52:43Z</time>
      </trkpt>
      <trkpt lat="44.85398" lon="6.6566">
        <ele>1730.0297851562</ele>
        <time>2010-07-06T11:52:49Z</time>
      </trkpt>
      <trkpt lat="44.85396" lon="6.65656">
        <ele>1727.1459960938</ele>
        <time>2010-07-06T11:52:52Z</time>
      </trkpt>
      <trkpt lat="44.85389" lon="6.65649">
        <ele>1723.3005371094</ele>
        <time>2010-07-06T11:52:57Z</time>
      </trkpt>
      <trkpt lat="44.85387" lon="6.65645">
        <ele>1721.8583984375</ele>
        <time>2010-07-06T11:53:00Z</time>
      </trkpt>
      <trkpt lat="44.85383" lon="6.65632">
        <ele>1718.0131835938</ele>
        <time>2010-07-06T11:53:07Z</time>
      </trkpt>
      <trkpt lat="44.85383" lon="6.65628">
        <ele>1716.5712890625</ele>
        <time>2010-07-06T11:53:09Z</time>
      </trkpt>
      <trkpt lat="44.85381" lon="6.65623">
        <ele>1715.1293945312</ele>
        <time>2010-07-06T11:53:12Z</time>
      </trkpt>
      <trkpt lat="44.85383" lon="6.65621">
        <ele>1714.16796875</ele>
        <time>2010-07-06T11:53:14Z</time>
      </trkpt>
      <trkpt lat="44.85387" lon="6.65617">
        <ele>1713.6872558594</ele>
        <time>2010-07-06T11:53:36Z</time>
      </trkpt>
      <trkpt lat="44.85398" lon="6.65619">
        <ele>1710.3227539062</ele>
        <time>2010-07-06T11:54:01Z</time>
      </trkpt>
      <trkpt lat="44.85396" lon="6.65617">
        <ele>1706.9580078125</ele>
        <time>2010-07-06T11:54:05Z</time>
      </trkpt>
      <trkpt lat="44.85392" lon="6.65615">
        <ele>1703.5935058594</ele>
        <time>2010-07-06T11:54:08Z</time>
      </trkpt>
      <trkpt lat="44.85385" lon="6.65608">
        <ele>1699.7482910156</ele>
        <time>2010-07-06T11:54:15Z</time>
      </trkpt>
      <trkpt lat="44.85379" lon="6.65606">
        <ele>1697.8256835938</ele>
        <time>2010-07-06T11:54:18Z</time>
      </trkpt>
      <trkpt lat="44.85362" lon="6.656">
        <ele>1694.4609375</ele>
        <time>2010-07-06T11:54:25Z</time>
      </trkpt>
      <trkpt lat="44.85312" lon="6.65572">
        <ele>1694.4609375</ele>
        <time>2010-07-06T11:54:51Z</time>
      </trkpt>
      <trkpt lat="44.85299" lon="6.65557">
        <ele>1697.3449707031</ele>
        <time>2010-07-06T11:55:06Z</time>
      </trkpt>
      <trkpt lat="44.85289" lon="6.65533">
        <ele>1699.7482910156</ele>
        <time>2010-07-06T11:55:23Z</time>
      </trkpt>
      <trkpt lat="44.85282" lon="6.65512">
        <ele>1702.1513671875</ele>
        <time>2010-07-06T11:55:39Z</time>
      </trkpt>
      <trkpt lat="44.85252" lon="6.6549">
        <ele>1688.6931152344</ele>
        <time>2010-07-06T12:29:43Z</time>
      </trkpt>
      <trkpt lat="44.85216" lon="6.65508">
        <ele>1690.1350097656</ele>
        <time>2010-07-06T12:29:54Z</time>
      </trkpt>
      <trkpt lat="44.85181" lon="6.65503">
        <ele>1691.0961914062</ele>
        <time>2010-07-06T12:30:06Z</time>
      </trkpt>
      <trkpt lat="44.8513" lon="6.65488">
        <ele>1694.4609375</ele>
        <time>2010-07-06T12:30:25Z</time>
      </trkpt>
      <trkpt lat="44.85093" lon="6.65499">
        <ele>1697.3449707031</ele>
        <time>2010-07-06T12:30:38Z</time>
      </trkpt>
      <trkpt lat="44.85033" lon="6.65533">
        <ele>1700.2290039062</ele>
        <time>2010-07-06T12:31:03Z</time>
      </trkpt>
      <trkpt lat="44.84999" lon="6.65555">
        <ele>1703.1127929688</ele>
        <time>2010-07-06T12:31:18Z</time>
      </trkpt>
      <trkpt lat="44.84995" lon="6.65557">
        <ele>1704.07421875</ele>
        <time>2010-07-06T12:31:20Z</time>
      </trkpt>
      <trkpt lat="44.84958" lon="6.656">
        <ele>1705.9965820312</ele>
        <time>2010-07-06T12:31:37Z</time>
      </trkpt>
      <trkpt lat="44.84922" lon="6.65649">
        <ele>1708.880859375</ele>
        <time>2010-07-06T12:31:56Z</time>
      </trkpt>
      <trkpt lat="44.84874" lon="6.65692">
        <ele>1711.2841796875</ele>
        <time>2010-07-06T12:32:17Z</time>
      </trkpt>
      <trkpt lat="44.8487" lon="6.65694">
        <ele>1712.2453613281</ele>
        <time>2010-07-06T12:32:19Z</time>
      </trkpt>
      <trkpt lat="44.84829" lon="6.65703">
        <ele>1715.1293945312</ele>
        <time>2010-07-06T12:32:34Z</time>
      </trkpt>
      <trkpt lat="44.84784" lon="6.6572">
        <ele>1717.5324707031</ele>
        <time>2010-07-06T12:32:51Z</time>
      </trkpt>
      <trkpt lat="44.84776" lon="6.65724">
        <ele>1718.4938964844</ele>
        <time>2010-07-06T12:32:55Z</time>
      </trkpt>
      <trkpt lat="44.84722" lon="6.65748">
        <ele>1720.4165039062</ele>
        <time>2010-07-06T12:33:17Z</time>
      </trkpt>
      <trkpt lat="44.84703" lon="6.6575">
        <ele>1721.8583984375</ele>
        <time>2010-07-06T12:33:24Z</time>
      </trkpt>
      <trkpt lat="44.84671" lon="6.65759">
        <ele>1725.2231445312</ele>
        <time>2010-07-06T12:33:38Z</time>
      </trkpt>
      <trkpt lat="44.84651" lon="6.65774">
        <ele>1728.1071777344</ele>
        <time>2010-07-06T12:33:49Z</time>
      </trkpt>
      <trkpt lat="44.84649" lon="6.65776">
        <ele>1728.1071777344</ele>
        <time>2010-07-06T12:33:50Z</time>
      </trkpt>
      <trkpt lat="44.84626" lon="6.65804">
        <ele>1730.9912109375</ele>
        <time>2010-07-06T12:34:09Z</time>
      </trkpt>
      <trkpt lat="44.84602" lon="6.6584">
        <ele>1733.3942871094</ele>
        <time>2010-07-06T12:34:30Z</time>
      </trkpt>
      <trkpt lat="44.84581" lon="6.65859">
        <ele>1735.3168945312</ele>
        <time>2010-07-06T12:34:44Z</time>
      </trkpt>
      <trkpt lat="44.84557" lon="6.65887">
        <ele>1737.7202148438</ele>
        <time>2010-07-06T12:34:57Z</time>
      </trkpt>
      <trkpt lat="44.84518" lon="6.659">
        <ele>1740.6042480469</ele>
        <time>2010-07-06T12:35:13Z</time>
      </trkpt>
      <trkpt lat="44.84495" lon="6.65939">
        <ele>1742.5270996094</ele>
        <time>2010-07-06T12:35:28Z</time>
      </trkpt>
      <trkpt lat="44.84475" lon="6.65952">
        <ele>1744.4494628906</ele>
        <time>2010-07-06T12:35:38Z</time>
      </trkpt>
      <trkpt lat="44.84452" lon="6.65967">
        <ele>1746.8527832031</ele>
        <time>2010-07-06T12:35:51Z</time>
      </trkpt>
      <trkpt lat="44.8445" lon="6.65967">
        <ele>1747.3334960938</ele>
        <time>2010-07-06T12:35:53Z</time>
      </trkpt>
      <trkpt lat="44.84424" lon="6.65982">
        <ele>1749.7368164062</ele>
        <time>2010-07-06T12:36:07Z</time>
      </trkpt>
      <trkpt lat="44.84407" lon="6.65995">
        <ele>1752.1398925781</ele>
        <time>2010-07-06T12:36:18Z</time>
      </trkpt>
      <trkpt lat="44.84385" lon="6.66008">
        <ele>1753.1013183594</ele>
        <time>2010-07-06T12:36:31Z</time>
      </trkpt>
      <trkpt lat="44.84366" lon="6.66018">
        <ele>1754.0627441406</ele>
        <time>2010-07-06T12:36:44Z</time>
      </trkpt>
      <trkpt lat="44.84368" lon="6.66023">
        <ele>1753.58203125</ele>
        <time>2010-07-06T12:37:05Z</time>
      </trkpt>
      <trkpt lat="44.8434" lon="6.66029">
        <ele>1753.58203125</ele>
        <time>2010-07-06T12:37:18Z</time>
      </trkpt>
      <trkpt lat="44.84314" lon="6.66025">
        <ele>1755.5046386719</ele>
        <time>2010-07-06T12:37:29Z</time>
      </trkpt>
      <trkpt lat="44.84302" lon="6.66016">
        <ele>1755.9851074219</ele>
        <time>2010-07-06T12:37:34Z</time>
      </trkpt>
      <trkpt lat="44.84295" lon="6.66016">
        <ele>1757.4274902344</ele>
        <time>2010-07-06T12:37:37Z</time>
      </trkpt>
      <trkpt lat="44.8428" lon="6.6601">
        <ele>1758.388671875</ele>
        <time>2010-07-06T12:37:45Z</time>
      </trkpt>
      <trkpt lat="44.8428" lon="6.66001">
        <ele>1760.3112792969</ele>
        <time>2010-07-06T12:37:56Z</time>
      </trkpt>
      <trkpt lat="44.84282" lon="6.66001">
        <ele>1758.8693847656</ele>
        <time>2010-07-06T12:37:57Z</time>
      </trkpt>
      <trkpt lat="44.84284" lon="6.65999">
        <ele>1757.908203125</ele>
        <time>2010-07-06T12:38:35Z</time>
      </trkpt>
      <trkpt lat="44.84302" lon="6.65995">
        <ele>1757.908203125</ele>
        <time>2010-07-06T12:39:45Z</time>
      </trkpt>
      <trkpt lat="44.84278" lon="6.66012">
        <ele>1756.4660644531</ele>
        <time>2010-07-06T12:39:50Z</time>
      </trkpt>
      <trkpt lat="44.84274" lon="6.66023">
        <ele>1756.4660644531</ele>
        <time>2010-07-06T12:39:57Z</time>
      </trkpt>
      <trkpt lat="44.84241" lon="6.66014">
        <ele>1756.9467773438</ele>
        <time>2010-07-06T12:40:15Z</time>
      </trkpt>
      <trkpt lat="44.84218" lon="6.66016">
        <ele>1757.4274902344</ele>
        <time>2010-07-06T12:40:31Z</time>
      </trkpt>
      <trkpt lat="44.84201" lon="6.66023">
        <ele>1758.8693847656</ele>
        <time>2010-07-06T12:40:42Z</time>
      </trkpt>
      <trkpt lat="44.84192" lon="6.66025">
        <ele>1758.8693847656</ele>
        <time>2010-07-06T12:40:47Z</time>
      </trkpt>
      <trkpt lat="44.84171" lon="6.66027">
        <ele>1761.2727050781</ele>
        <time>2010-07-06T12:41:00Z</time>
      </trkpt>
      <trkpt lat="44.84145" lon="6.66029">
        <ele>1762.7145996094</ele>
        <time>2010-07-06T12:41:14Z</time>
      </trkpt>
      <trkpt lat="44.84117" lon="6.66042">
        <ele>1764.6372070312</ele>
        <time>2010-07-06T12:41:31Z</time>
      </trkpt>
      <trkpt lat="44.84078" lon="6.66046">
        <ele>1767.0405273438</ele>
        <time>2010-07-06T12:41:53Z</time>
      </trkpt>
      <trkpt lat="44.84072" lon="6.66044">
        <ele>1768.482421875</ele>
        <time>2010-07-06T12:41:57Z</time>
      </trkpt>
      <trkpt lat="44.84044" lon="6.66031">
        <ele>1771.3662109375</ele>
        <time>2010-07-06T12:42:13Z</time>
      </trkpt>
      <trkpt lat="44.84014" lon="6.66018">
        <ele>1774.2504882812</ele>
        <time>2010-07-06T12:42:31Z</time>
      </trkpt>
      <trkpt lat="44.83971" lon="6.66014">
        <ele>1777.6149902344</ele>
        <time>2010-07-06T12:42:56Z</time>
      </trkpt>
      <trkpt lat="44.83967" lon="6.66012">
        <ele>1778.095703125</ele>
        <time>2010-07-06T12:42:59Z</time>
      </trkpt>
      <trkpt lat="44.83963" lon="6.66001">
        <ele>1778.095703125</ele>
        <time>2010-07-06T12:43:03Z</time>
      </trkpt>
      <trkpt lat="44.83971" lon="6.6596">
        <ele>1779.5375976562</ele>
        <time>2010-07-06T12:43:17Z</time>
      </trkpt>
      <trkpt lat="44.83975" lon="6.65958">
        <ele>1779.5375976562</ele>
        <time>2010-07-06T12:43:19Z</time>
      </trkpt>
      <trkpt lat="44.8401" lon="6.65958">
        <ele>1781.9409179688</ele>
        <time>2010-07-06T12:43:34Z</time>
      </trkpt>
      <trkpt lat="44.84048" lon="6.6592">
        <ele>1784.8249511719</ele>
        <time>2010-07-06T12:43:56Z</time>
      </trkpt>
      <trkpt lat="44.84063" lon="6.65892">
        <ele>1786.2668457031</ele>
        <time>2010-07-06T12:44:17Z</time>
      </trkpt>
      <trkpt lat="44.84063" lon="6.65887">
        <ele>1786.2668457031</ele>
        <time>2010-07-06T12:44:28Z</time>
      </trkpt>
      <trkpt lat="44.84096" lon="6.65896">
        <ele>1783.3828125</ele>
        <time>2010-07-06T12:44:50Z</time>
      </trkpt>
      <trkpt lat="44.84222" lon="6.65896">
        <ele>1780.0183105469</ele>
        <time>2010-07-06T12:45:26Z</time>
      </trkpt>
      <trkpt lat="44.84263" lon="6.65894">
        <ele>1778.5764160156</ele>
        <time>2010-07-06T12:45:47Z</time>
      </trkpt>
      <trkpt lat="44.84302" lon="6.65885">
        <ele>1778.095703125</ele>
        <time>2010-07-06T12:46:02Z</time>
      </trkpt>
      <trkpt lat="44.84329" lon="6.65862">
        <ele>1777.1345214844</ele>
        <time>2010-07-06T12:46:26Z</time>
      </trkpt>
      <trkpt lat="44.84366" lon="6.65847">
        <ele>1777.1345214844</ele>
        <time>2010-07-06T12:46:38Z</time>
      </trkpt>
      <trkpt lat="44.84415" lon="6.65819">
        <ele>1773.7697753906</ele>
        <time>2010-07-06T12:46:53Z</time>
      </trkpt>
      <trkpt lat="44.84482" lon="6.65789">
        <ele>1770.4050292969</ele>
        <time>2010-07-06T12:47:10Z</time>
      </trkpt>
      <trkpt lat="44.84486" lon="6.65787">
        <ele>1769.9243164062</ele>
        <time>2010-07-06T12:47:11Z</time>
      </trkpt>
      <trkpt lat="44.84499" lon="6.65778">
        <ele>1769.9243164062</ele>
        <time>2010-07-06T12:47:14Z</time>
      </trkpt>
      <trkpt lat="44.84542" lon="6.6575">
        <ele>1769.4438476562</ele>
        <time>2010-07-06T12:47:24Z</time>
      </trkpt>
      <trkpt lat="44.84589" lon="6.65716">
        <ele>1768.0017089844</ele>
        <time>2010-07-06T12:47:33Z</time>
      </trkpt>
      <trkpt lat="44.84684" lon="6.65615">
        <ele>1765.5986328125</ele>
        <time>2010-07-06T12:47:54Z</time>
      </trkpt>
      <trkpt lat="44.84776" lon="6.65516">
        <ele>1762.7145996094</ele>
        <time>2010-07-06T12:48:18Z</time>
      </trkpt>
      <trkpt lat="44.84829" lon="6.65465">
        <ele>1759.8305664062</ele>
        <time>2010-07-06T12:48:31Z</time>
      </trkpt>
      <trkpt lat="44.84836" lon="6.6546">
        <ele>1759.8305664062</ele>
        <time>2010-07-06T12:48:32Z</time>
      </trkpt>
      <trkpt lat="44.84879" lon="6.65415">
        <ele>1757.4274902344</ele>
        <time>2010-07-06T12:48:42Z</time>
      </trkpt>
      <trkpt lat="44.84984" lon="6.65295">
        <ele>1755.5046386719</ele>
        <time>2010-07-06T12:49:07Z</time>
      </trkpt>
      <trkpt lat="44.84986" lon="6.65289">
        <ele>1755.0239257812</ele>
        <time>2010-07-06T12:49:19Z</time>
      </trkpt>
      <trkpt lat="44.84995" lon="6.65278">
        <ele>1754.5432128906</ele>
        <time>2010-07-06T12:49:50Z</time>
      </trkpt>
      <trkpt lat="44.84995" lon="6.65272">
        <ele>1755.0239257812</ele>
        <time>2010-07-06T12:49:53Z</time>
      </trkpt>
      <trkpt lat="44.84999" lon="6.65267">
        <ele>1754.0627441406</ele>
        <time>2010-07-06T12:49:57Z</time>
      </trkpt>
      <trkpt lat="44.85035" lon="6.65222">
        <ele>1754.0627441406</ele>
        <time>2010-07-06T12:50:15Z</time>
      </trkpt>
      <trkpt lat="44.85089" lon="6.65175">
        <ele>1754.5432128906</ele>
        <time>2010-07-06T12:50:35Z</time>
      </trkpt>
      <trkpt lat="44.85108" lon="6.65162">
        <ele>1755.9851074219</ele>
        <time>2010-07-06T12:50:42Z</time>
      </trkpt>
      <trkpt lat="44.85128" lon="6.65194">
        <ele>1758.388671875</ele>
        <time>2010-07-06T12:50:57Z</time>
      </trkpt>
      <trkpt lat="44.85145" lon="6.65218">
        <ele>1760.7919921875</ele>
        <time>2010-07-06T12:51:10Z</time>
      </trkpt>
      <trkpt lat="44.85175" lon="6.6522">
        <ele>1764.1564941406</ele>
        <time>2010-07-06T12:51:27Z</time>
      </trkpt>
      <trkpt lat="44.85207" lon="6.65209">
        <ele>1767.5209960938</ele>
        <time>2010-07-06T12:51:48Z</time>
      </trkpt>
      <trkpt lat="44.85231" lon="6.65186">
        <ele>1770.4050292969</ele>
        <time>2010-07-06T12:52:06Z</time>
      </trkpt>
      <trkpt lat="44.85259" lon="6.65145">
        <ele>1772.3278808594</ele>
        <time>2010-07-06T12:52:33Z</time>
      </trkpt>
      <trkpt lat="44.8528" lon="6.65117">
        <ele>1775.6923828125</ele>
        <time>2010-07-06T12:52:50Z</time>
      </trkpt>
      <trkpt lat="44.85293" lon="6.65111">
        <ele>1776.6538085938</ele>
        <time>2010-07-06T12:52:58Z</time>
      </trkpt>
      <trkpt lat="44.8531" lon="6.65061">
        <ele>1779.5375976562</ele>
        <time>2010-07-06T12:53:19Z</time>
      </trkpt>
      <trkpt lat="44.8531" lon="6.65055">
        <ele>1780.4990234375</ele>
        <time>2010-07-06T12:53:22Z</time>
      </trkpt>
      <trkpt lat="44.85321" lon="6.65051">
        <ele>1781.9409179688</ele>
        <time>2010-07-06T12:53:29Z</time>
      </trkpt>
      <trkpt lat="44.85334" lon="6.65044">
        <ele>1782.9020996094</ele>
        <time>2010-07-06T12:53:48Z</time>
      </trkpt>
      <trkpt lat="44.85334" lon="6.65033">
        <ele>1784.3442382812</ele>
        <time>2010-07-06T12:54:57Z</time>
      </trkpt>
      <trkpt lat="44.85336" lon="6.65029">
        <ele>1785.3054199219</ele>
        <time>2010-07-06T12:55:02Z</time>
      </trkpt>
      <trkpt lat="44.85364" lon="6.64999">
        <ele>1789.6315917969</ele>
        <time>2010-07-06T12:55:28Z</time>
      </trkpt>
      <trkpt lat="44.85392" lon="6.64986">
        <ele>1792.515625</ele>
        <time>2010-07-06T12:55:44Z</time>
      </trkpt>
      <trkpt lat="44.85413" lon="6.64954">
        <ele>1795.8801269531</ele>
        <time>2010-07-06T12:56:03Z</time>
      </trkpt>
      <trkpt lat="44.85415" lon="6.64913">
        <ele>1797.3220214844</ele>
        <time>2010-07-06T12:56:21Z</time>
      </trkpt>
      <trkpt lat="44.85409" lon="6.649">
        <ele>1798.283203125</ele>
        <time>2010-07-06T12:56:27Z</time>
      </trkpt>
      <trkpt lat="44.85411" lon="6.64907">
        <ele>1798.283203125</ele>
        <time>2010-07-06T12:56:31Z</time>
      </trkpt>
      <trkpt lat="44.85411" lon="6.64911">
        <ele>1798.283203125</ele>
        <time>2010-07-06T12:56:33Z</time>
      </trkpt>
      <trkpt lat="44.85404" lon="6.64932">
        <ele>1799.7253417969</ele>
        <time>2010-07-06T12:56:41Z</time>
      </trkpt>
      <trkpt lat="44.8537" lon="6.6496">
        <ele>1802.6091308594</ele>
        <time>2010-07-06T12:57:02Z</time>
      </trkpt>
      <trkpt lat="44.85359" lon="6.64965">
        <ele>1804.5319824219</ele>
        <time>2010-07-06T12:57:09Z</time>
      </trkpt>
      <trkpt lat="44.85336" lon="6.64984">
        <ele>1807.416015625</ele>
        <time>2010-07-06T12:57:25Z</time>
      </trkpt>
      <trkpt lat="44.85297" lon="6.64997">
        <ele>1810.7805175781</ele>
        <time>2010-07-06T12:57:50Z</time>
      </trkpt>
      <trkpt lat="44.85256" lon="6.65012">
        <ele>1813.6643066406</ele>
        <time>2010-07-06T12:58:13Z</time>
      </trkpt>
      <trkpt lat="44.85231" lon="6.65033">
        <ele>1817.0290527344</ele>
        <time>2010-07-06T12:58:31Z</time>
      </trkpt>
      <trkpt lat="44.85229" lon="6.65035">
        <ele>1817.0290527344</ele>
        <time>2010-07-06T12:58:33Z</time>
      </trkpt>
      <trkpt lat="44.85222" lon="6.65038">
        <ele>1817.0290527344</ele>
        <time>2010-07-06T12:58:36Z</time>
      </trkpt>
      <trkpt lat="44.85216" lon="6.65025">
        <ele>1817.5095214844</ele>
        <time>2010-07-06T12:58:43Z</time>
      </trkpt>
      <trkpt lat="44.85218" lon="6.65016">
        <ele>1818.4709472656</ele>
        <time>2010-07-06T12:58:47Z</time>
      </trkpt>
      <trkpt lat="44.85252" lon="6.64993">
        <ele>1821.8356933594</ele>
        <time>2010-07-06T12:59:09Z</time>
      </trkpt>
      <trkpt lat="44.85282" lon="6.64958">
        <ele>1825.2001953125</ele>
        <time>2010-07-06T12:59:32Z</time>
      </trkpt>
      <trkpt lat="44.85308" lon="6.64928">
        <ele>1828.5649414062</ele>
        <time>2010-07-06T12:59:55Z</time>
      </trkpt>
      <trkpt lat="44.85336" lon="6.64894">
        <ele>1832.890625</ele>
        <time>2010-07-06T13:00:18Z</time>
      </trkpt>
      <trkpt lat="44.85364" lon="6.64879">
        <ele>1835.7746582031</ele>
        <time>2010-07-06T13:00:38Z</time>
      </trkpt>
      <trkpt lat="44.85389" lon="6.64862">
        <ele>1837.6975097656</ele>
        <time>2010-07-06T13:00:59Z</time>
      </trkpt>
      <trkpt lat="44.85415" lon="6.64808">
        <ele>1840.5812988281</ele>
        <time>2010-07-06T13:01:30Z</time>
      </trkpt>
      <trkpt lat="44.85432" lon="6.64767">
        <ele>1844.4265136719</ele>
        <time>2010-07-06T13:01:52Z</time>
      </trkpt>
      <trkpt lat="44.85462" lon="6.6475">
        <ele>1847.7912597656</ele>
        <time>2010-07-06T13:02:12Z</time>
      </trkpt>
      <trkpt lat="44.85486" lon="6.64735">
        <ele>1849.7138671875</ele>
        <time>2010-07-06T13:02:28Z</time>
      </trkpt>
      <trkpt lat="44.85503" lon="6.64707">
        <ele>1853.0786132812</ele>
        <time>2010-07-06T13:02:44Z</time>
      </trkpt>
      <trkpt lat="44.85501" lon="6.64664">
        <ele>1855.9624023438</ele>
        <time>2010-07-06T13:03:02Z</time>
      </trkpt>
      <trkpt lat="44.85512" lon="6.64626">
        <ele>1858.8464355469</ele>
        <time>2010-07-06T13:03:23Z</time>
      </trkpt>
      <trkpt lat="44.85518" lon="6.64591">
        <ele>1862.2109375</ele>
        <time>2010-07-06T13:03:43Z</time>
      </trkpt>
      <trkpt lat="44.85531" lon="6.64542">
        <ele>1866.0561523438</ele>
        <time>2010-07-06T13:04:09Z</time>
      </trkpt>
      <trkpt lat="44.8554" lon="6.64508">
        <ele>1868.9404296875</ele>
        <time>2010-07-06T13:04:24Z</time>
      </trkpt>
      <trkpt lat="44.85557" lon="6.64471">
        <ele>1871.3435058594</ele>
        <time>2010-07-06T13:04:45Z</time>
      </trkpt>
      <trkpt lat="44.85565" lon="6.64435">
        <ele>1874.2275390625</ele>
        <time>2010-07-06T13:05:03Z</time>
      </trkpt>
      <trkpt lat="44.85568" lon="6.64433">
        <ele>1874.7082519531</ele>
        <time>2010-07-06T13:05:04Z</time>
      </trkpt>
      <trkpt lat="44.85572" lon="6.64424">
        <ele>1876.1501464844</ele>
        <time>2010-07-06T13:05:09Z</time>
      </trkpt>
      <trkpt lat="44.856" lon="6.64411">
        <ele>1879.0339355469</ele>
        <time>2010-07-06T13:05:32Z</time>
      </trkpt>
      <trkpt lat="44.85617" lon="6.6442">
        <ele>1880.4760742188</ele>
        <time>2010-07-06T13:05:43Z</time>
      </trkpt>
      <trkpt lat="44.85621" lon="6.64422">
        <ele>1880.9567871094</ele>
        <time>2010-07-06T13:05:57Z</time>
      </trkpt>
      <trkpt lat="44.8563" lon="6.6443">
        <ele>1881.4372558594</ele>
        <time>2010-07-06T13:06:33Z</time>
      </trkpt>
      <trkpt lat="44.85638" lon="6.6442">
        <ele>1882.3986816406</ele>
        <time>2010-07-06T13:06:39Z</time>
      </trkpt>
      <trkpt lat="44.85664" lon="6.64394">
        <ele>1884.8022460938</ele>
        <time>2010-07-06T13:06:55Z</time>
      </trkpt>
      <trkpt lat="44.85683" lon="6.64377">
        <ele>1886.244140625</ele>
        <time>2010-07-06T13:07:09Z</time>
      </trkpt>
      <trkpt lat="44.85696" lon="6.64357">
        <ele>1887.6860351562</ele>
        <time>2010-07-06T13:07:24Z</time>
      </trkpt>
      <trkpt lat="44.85724" lon="6.64321">
        <ele>1888.6474609375</ele>
        <time>2010-07-06T13:07:43Z</time>
      </trkpt>
      <trkpt lat="44.85761" lon="6.64293">
        <ele>1889.6086425781</ele>
        <time>2010-07-06T13:08:00Z</time>
      </trkpt>
      <trkpt lat="44.85763" lon="6.64287">
        <ele>1888.6474609375</ele>
        <time>2010-07-06T13:08:12Z</time>
      </trkpt>
      <trkpt lat="44.85767" lon="6.64284">
        <ele>1889.1279296875</ele>
        <time>2010-07-06T13:08:41Z</time>
      </trkpt>
      <trkpt lat="44.85789" lon="6.64257">
        <ele>1888.6474609375</ele>
        <time>2010-07-06T13:08:54Z</time>
      </trkpt>
      <trkpt lat="44.85806" lon="6.64227">
        <ele>1892.0119628906</ele>
        <time>2010-07-06T13:09:07Z</time>
      </trkpt>
      <trkpt lat="44.85799" lon="6.64181">
        <ele>1893.4538574219</ele>
        <time>2010-07-06T13:09:21Z</time>
      </trkpt>
      <trkpt lat="44.85793" lon="6.64117">
        <ele>1892.9731445312</ele>
        <time>2010-07-06T13:09:36Z</time>
      </trkpt>
      <trkpt lat="44.85793" lon="6.6407">
        <ele>1894.8957519531</ele>
        <time>2010-07-06T13:09:49Z</time>
      </trkpt>
      <trkpt lat="44.85791" lon="6.64057">
        <ele>1894.8957519531</ele>
        <time>2010-07-06T13:10:01Z</time>
      </trkpt>
      <trkpt lat="44.85791" lon="6.64059">
        <ele>1894.4150390625</ele>
        <time>2010-07-06T13:10:14Z</time>
      </trkpt>
      <trkpt lat="44.85791" lon="6.64061">
        <ele>1894.4150390625</ele>
        <time>2010-07-06T13:10:16Z</time>
      </trkpt>
      <trkpt lat="44.85795" lon="6.64066">
        <ele>1892.0119628906</ele>
        <time>2010-07-06T13:10:29Z</time>
      </trkpt>
      <trkpt lat="44.85795" lon="6.64066">
        <ele>1895.3764648438</ele>
        <time>2010-07-06T13:10:30Z</time>
      </trkpt>
      <trkpt lat="44.85795" lon="6.64063">
        <ele>1892.9731445312</ele>
        <time>2010-07-06T13:10:44Z</time>
      </trkpt>
      <trkpt lat="44.85795" lon="6.64057">
        <ele>1893.4538574219</ele>
        <time>2010-07-06T13:10:48Z</time>
      </trkpt>
      <trkpt lat="44.85793" lon="6.64053">
        <ele>1893.4538574219</ele>
        <time>2010-07-06T13:11:04Z</time>
      </trkpt>
      <trkpt lat="44.85793" lon="6.64053">
        <ele>1893.9345703125</ele>
        <time>2010-07-06T13:11:58Z</time>
      </trkpt>
      <trkpt lat="44.85793" lon="6.64051">
        <ele>1894.4150390625</ele>
        <time>2010-07-06T13:12:16Z</time>
      </trkpt>
      <trkpt lat="44.85795" lon="6.64059">
        <ele>1892.9731445312</ele>
        <time>2010-07-06T13:21:18Z</time>
      </trkpt>
      <trkpt lat="44.85806" lon="6.64055">
        <ele>1892.0119628906</ele>
        <time>2010-07-06T13:21:25Z</time>
      </trkpt>
      <trkpt lat="44.85816" lon="6.64048">
        <ele>1892.0119628906</ele>
        <time>2010-07-06T13:21:29Z</time>
      </trkpt>
      <trkpt lat="44.85816" lon="6.64042">
        <ele>1891.53125</ele>
        <time>2010-07-06T13:21:31Z</time>
      </trkpt>
      <trkpt lat="44.85819" lon="6.64021">
        <ele>1888.1667480469</ele>
        <time>2010-07-06T13:21:36Z</time>
      </trkpt>
      <trkpt lat="44.85821" lon="6.64018">
        <ele>1887.6860351562</ele>
        <time>2010-07-06T13:21:37Z</time>
      </trkpt>
      <trkpt lat="44.85831" lon="6.64008">
        <ele>1885.2827148438</ele>
        <time>2010-07-06T13:21:41Z</time>
      </trkpt>
      <trkpt lat="44.85842" lon="6.63993">
        <ele>1881.91796875</ele>
        <time>2010-07-06T13:21:45Z</time>
      </trkpt>
      <trkpt lat="44.85851" lon="6.63975">
        <ele>1877.1115722656</ele>
        <time>2010-07-06T13:21:50Z</time>
      </trkpt>
      <trkpt lat="44.85851" lon="6.63975">
        <ele>1879.0339355469</ele>
        <time>2010-07-06T13:21:51Z</time>
      </trkpt>
      <trkpt lat="44.85853" lon="6.63975">
        <ele>1879.5146484375</ele>
        <time>2010-07-06T13:21:56Z</time>
      </trkpt>
      <trkpt lat="44.85864" lon="6.63965">
        <ele>1876.1501464844</ele>
        <time>2010-07-06T13:22:04Z</time>
      </trkpt>
      <trkpt lat="44.8587" lon="6.6396">
        <ele>1874.7082519531</ele>
        <time>2010-07-06T13:22:06Z</time>
      </trkpt>
      <trkpt lat="44.85874" lon="6.63952">
        <ele>1872.3049316406</ele>
        <time>2010-07-06T13:22:09Z</time>
      </trkpt>
      <trkpt lat="44.85885" lon="6.6395">
        <ele>1871.3435058594</ele>
        <time>2010-07-06T13:22:23Z</time>
      </trkpt>
      <trkpt lat="44.85894" lon="6.63945">
        <ele>1867.9787597656</ele>
        <time>2010-07-06T13:22:28Z</time>
      </trkpt>
      <trkpt lat="44.85902" lon="6.63945">
        <ele>1864.6142578125</ele>
        <time>2010-07-06T13:22:44Z</time>
      </trkpt>
      <trkpt lat="44.85902" lon="6.63945">
        <ele>1864.6142578125</ele>
        <time>2010-07-06T13:22:45Z</time>
      </trkpt>
      <trkpt lat="44.85907" lon="6.63958">
        <ele>1861.73046875</ele>
        <time>2010-07-06T13:22:56Z</time>
      </trkpt>
      <trkpt lat="44.85904" lon="6.63963">
        <ele>1860.7690429688</ele>
        <time>2010-07-06T13:23:00Z</time>
      </trkpt>
      <trkpt lat="44.85904" lon="6.63978">
        <ele>1856.923828125</ele>
        <time>2010-07-06T13:23:10Z</time>
      </trkpt>
      <trkpt lat="44.85898" lon="6.63997">
        <ele>1854.5205078125</ele>
        <time>2010-07-06T13:23:16Z</time>
      </trkpt>
      <trkpt lat="44.85896" lon="6.64016">
        <ele>1851.1557617188</ele>
        <time>2010-07-06T13:23:22Z</time>
      </trkpt>
      <trkpt lat="44.85894" lon="6.64051">
        <ele>1847.7912597656</ele>
        <time>2010-07-06T13:23:32Z</time>
      </trkpt>
      <trkpt lat="44.85894" lon="6.64053">
        <ele>1847.7912597656</ele>
        <time>2010-07-06T13:23:33Z</time>
      </trkpt>
      <trkpt lat="44.85894" lon="6.64059">
        <ele>1846.3493652344</ele>
        <time>2010-07-06T13:23:36Z</time>
      </trkpt>
      <trkpt lat="44.85896" lon="6.64068">
        <ele>1842.9846191406</ele>
        <time>2010-07-06T13:23:43Z</time>
      </trkpt>
      <trkpt lat="44.85898" lon="6.64078">
        <ele>1839.1394042969</ele>
        <time>2010-07-06T13:23:53Z</time>
      </trkpt>
      <trkpt lat="44.85902" lon="6.64083">
        <ele>1836.7360839844</ele>
        <time>2010-07-06T13:24:00Z</time>
      </trkpt>
      <trkpt lat="44.859" lon="6.64091">
        <ele>1832.890625</ele>
        <time>2010-07-06T13:24:05Z</time>
      </trkpt>
      <trkpt lat="44.85902" lon="6.64104">
        <ele>1829.5261230469</ele>
        <time>2010-07-06T13:24:13Z</time>
      </trkpt>
      <trkpt lat="44.85902" lon="6.64104">
        <ele>1829.0454101562</ele>
        <time>2010-07-06T13:24:14Z</time>
      </trkpt>
      <trkpt lat="44.85902" lon="6.64106">
        <ele>1828.0842285156</ele>
        <time>2010-07-06T13:24:17Z</time>
      </trkpt>
      <trkpt lat="44.85922" lon="6.64081">
        <ele>1829.5261230469</ele>
        <time>2010-07-06T13:24:38Z</time>
      </trkpt>
      <trkpt lat="44.85919" lon="6.64083">
        <ele>1828.5649414062</ele>
        <time>2010-07-06T13:24:41Z</time>
      </trkpt>
      <trkpt lat="44.85913" lon="6.64089">
        <ele>1824.7197265625</ele>
        <time>2010-07-06T13:24:58Z</time>
      </trkpt>
      <trkpt lat="44.85915" lon="6.64106">
        <ele>1820.8745117188</ele>
        <time>2010-07-06T13:25:23Z</time>
      </trkpt>
      <trkpt lat="44.85917" lon="6.64106">
        <ele>1821.3549804688</ele>
        <time>2010-07-06T13:25:24Z</time>
      </trkpt>
      <trkpt lat="44.85926" lon="6.64111">
        <ele>1818.9516601562</ele>
        <time>2010-07-06T13:25:32Z</time>
      </trkpt>
      <trkpt lat="44.8593" lon="6.64109">
        <ele>1817.5095214844</ele>
        <time>2010-07-06T13:25:35Z</time>
      </trkpt>
      <trkpt lat="44.85937" lon="6.64121">
        <ele>1814.6257324219</ele>
        <time>2010-07-06T13:25:50Z</time>
      </trkpt>
      <trkpt lat="44.85937" lon="6.64126">
        <ele>1810.7805175781</ele>
        <time>2010-07-06T13:25:57Z</time>
      </trkpt>
      <trkpt lat="44.85937" lon="6.64126">
        <ele>1810.7805175781</ele>
        <time>2010-07-06T13:25:58Z</time>
      </trkpt>
      <trkpt lat="44.85943" lon="6.6413">
        <ele>1806.9353027344</ele>
        <time>2010-07-06T13:26:08Z</time>
      </trkpt>
      <trkpt lat="44.85954" lon="6.6413">
        <ele>1805.0126953125</ele>
        <time>2010-07-06T13:26:18Z</time>
      </trkpt>
      <trkpt lat="44.85958" lon="6.64126">
        <ele>1803.08984375</ele>
        <time>2010-07-06T13:26:21Z</time>
      </trkpt>
      <trkpt lat="44.85969" lon="6.64126">
        <ele>1800.6865234375</ele>
        <time>2010-07-06T13:26:27Z</time>
      </trkpt>
      <trkpt lat="44.8598" lon="6.64124">
        <ele>1799.2446289062</ele>
        <time>2010-07-06T13:26:34Z</time>
      </trkpt>
      <trkpt lat="44.85984" lon="6.64121">
        <ele>1798.283203125</ele>
        <time>2010-07-06T13:26:36Z</time>
      </trkpt>
      <trkpt lat="44.85992" lon="6.64115">
        <ele>1796.3608398438</ele>
        <time>2010-07-06T13:26:40Z</time>
      </trkpt>
      <trkpt lat="44.86014" lon="6.641">
        <ele>1792.99609375</ele>
        <time>2010-07-06T13:26:50Z</time>
      </trkpt>
      <trkpt lat="44.86027" lon="6.64081">
        <ele>1793.9575195312</ele>
        <time>2010-07-06T13:27:09Z</time>
      </trkpt>
      <trkpt lat="44.86046" lon="6.64063">
        <ele>1793.4768066406</ele>
        <time>2010-07-06T13:27:42Z</time>
      </trkpt>
      <trkpt lat="44.86057" lon="6.64059">
        <ele>1790.1123046875</ele>
        <time>2010-07-06T13:27:53Z</time>
      </trkpt>
      <trkpt lat="44.86063" lon="6.64057">
        <ele>1786.7473144531</ele>
        <time>2010-07-06T13:27:56Z</time>
      </trkpt>
      <trkpt lat="44.86078" lon="6.64053">
        <ele>1781.9409179688</ele>
        <time>2010-07-06T13:28:03Z</time>
      </trkpt>
      <trkpt lat="44.86089" lon="6.64051">
        <ele>1780.0183105469</ele>
        <time>2010-07-06T13:28:06Z</time>
      </trkpt>
      <trkpt lat="44.86093" lon="6.64051">
        <ele>1779.0568847656</ele>
        <time>2010-07-06T13:28:08Z</time>
      </trkpt>
      <trkpt lat="44.8611" lon="6.64046">
        <ele>1778.5764160156</ele>
        <time>2010-07-06T13:28:21Z</time>
      </trkpt>
      <trkpt lat="44.86123" lon="6.6404">
        <ele>1779.5375976562</ele>
        <time>2010-07-06T13:29:03Z</time>
      </trkpt>
      <trkpt lat="44.86123" lon="6.64048">
        <ele>1775.6923828125</ele>
        <time>2010-07-06T13:29:27Z</time>
      </trkpt>
      <trkpt lat="44.86123" lon="6.64051">
        <ele>1775.2116699219</ele>
        <time>2010-07-06T13:29:28Z</time>
      </trkpt>
      <trkpt lat="44.86119" lon="6.64057">
        <ele>1775.2116699219</ele>
        <time>2010-07-06T13:29:32Z</time>
      </trkpt>
      <trkpt lat="44.86136" lon="6.64053">
        <ele>1770.8857421875</ele>
        <time>2010-07-06T13:29:39Z</time>
      </trkpt>
      <trkpt lat="44.8614" lon="6.64048">
        <ele>1769.9243164062</ele>
        <time>2010-07-06T13:29:41Z</time>
      </trkpt>
      <trkpt lat="44.86158" lon="6.64027">
        <ele>1767.0405273438</ele>
        <time>2010-07-06T13:29:52Z</time>
      </trkpt>
      <trkpt lat="44.86166" lon="6.64021">
        <ele>1765.1179199219</ele>
        <time>2010-07-06T13:29:58Z</time>
      </trkpt>
      <trkpt lat="44.86171" lon="6.64027">
        <ele>1763.67578125</ele>
        <time>2010-07-06T13:30:04Z</time>
      </trkpt>
      <trkpt lat="44.86168" lon="6.64036">
        <ele>1763.1953125</ele>
        <time>2010-07-06T13:30:08Z</time>
      </trkpt>
      <trkpt lat="44.86175" lon="6.64046">
        <ele>1760.7919921875</ele>
        <time>2010-07-06T13:30:16Z</time>
      </trkpt>
      <trkpt lat="44.86181" lon="6.64055">
        <ele>1757.908203125</ele>
        <time>2010-07-06T13:30:25Z</time>
      </trkpt>
      <trkpt lat="44.86179" lon="6.64083">
        <ele>1754.0627441406</ele>
        <time>2010-07-06T13:30:35Z</time>
      </trkpt>
      <trkpt lat="44.86179" lon="6.64085">
        <ele>1754.0627441406</ele>
        <time>2010-07-06T13:30:36Z</time>
      </trkpt>
      <trkpt lat="44.86179" lon="6.64091">
        <ele>1752.6206054688</ele>
        <time>2010-07-06T13:30:38Z</time>
      </trkpt>
      <trkpt lat="44.86177" lon="6.64098">
        <ele>1752.1398925781</ele>
        <time>2010-07-06T13:30:41Z</time>
      </trkpt>
      <trkpt lat="44.86168" lon="6.64089">
        <ele>1750.2175292969</ele>
        <time>2010-07-06T13:30:47Z</time>
      </trkpt>
      <trkpt lat="44.86158" lon="6.64089">
        <ele>1746.3723144531</ele>
        <time>2010-07-06T13:30:57Z</time>
      </trkpt>
      <trkpt lat="44.8614" lon="6.64106">
        <ele>1742.0463867188</ele>
        <time>2010-07-06T13:31:06Z</time>
      </trkpt>
      <trkpt lat="44.8614" lon="6.64106">
        <ele>1742.5270996094</ele>
        <time>2010-07-06T13:31:07Z</time>
      </trkpt>
      <trkpt lat="44.86134" lon="6.64113">
        <ele>1738.681640625</ele>
        <time>2010-07-06T13:31:11Z</time>
      </trkpt>
      <trkpt lat="44.86134" lon="6.64117">
        <ele>1737.7202148438</ele>
        <time>2010-07-06T13:31:13Z</time>
      </trkpt>
      <trkpt lat="44.86132" lon="6.64119">
        <ele>1734.3557128906</ele>
        <time>2010-07-06T13:31:17Z</time>
      </trkpt>
      <trkpt lat="44.8613" lon="6.64121">
        <ele>1734.3557128906</ele>
        <time>2010-07-06T13:31:18Z</time>
      </trkpt>
      <trkpt lat="44.86134" lon="6.6413">
        <ele>1730.9912109375</ele>
        <time>2010-07-06T13:31:23Z</time>
      </trkpt>
      <trkpt lat="44.86149" lon="6.64151">
        <ele>1727.6264648438</ele>
        <time>2010-07-06T13:31:32Z</time>
      </trkpt>
      <trkpt lat="44.86153" lon="6.64177">
        <ele>1725.2231445312</ele>
        <time>2010-07-06T13:31:50Z</time>
      </trkpt>
      <trkpt lat="44.86153" lon="6.64188">
        <ele>1721.8583984375</ele>
        <time>2010-07-06T13:31:55Z</time>
      </trkpt>
      <trkpt lat="44.86156" lon="6.64205">
        <ele>1718.4938964844</ele>
        <time>2010-07-06T13:32:02Z</time>
      </trkpt>
      <trkpt lat="44.86162" lon="6.64224">
        <ele>1715.1293945312</ele>
        <time>2010-07-06T13:32:12Z</time>
      </trkpt>
      <trkpt lat="44.86162" lon="6.64229">
        <ele>1714.16796875</ele>
        <time>2010-07-06T13:32:14Z</time>
      </trkpt>
      <trkpt lat="44.86171" lon="6.64244">
        <ele>1710.8034667969</ele>
        <time>2010-07-06T13:32:22Z</time>
      </trkpt>
      <trkpt lat="44.86175" lon="6.64257">
        <ele>1707.9194335938</ele>
        <time>2010-07-06T13:32:28Z</time>
      </trkpt>
      <trkpt lat="44.86265" lon="6.64246">
        <ele>1708.880859375</ele>
        <time>2010-07-06T13:32:51Z</time>
      </trkpt>
      <trkpt lat="44.86263" lon="6.64248">
        <ele>1705.5161132812</ele>
        <time>2010-07-06T13:32:55Z</time>
      </trkpt>
      <trkpt lat="44.86263" lon="6.64246">
        <ele>1704.07421875</ele>
        <time>2010-07-06T13:32:57Z</time>
      </trkpt>
      <trkpt lat="44.86265" lon="6.64244">
        <ele>1700.7094726562</ele>
        <time>2010-07-06T13:33:01Z</time>
      </trkpt>
      <trkpt lat="44.86269" lon="6.64239">
        <ele>1699.7482910156</ele>
        <time>2010-07-06T13:33:04Z</time>
      </trkpt>
      <trkpt lat="44.86269" lon="6.64239">
        <ele>1698.3061523438</ele>
        <time>2010-07-06T13:33:05Z</time>
      </trkpt>
      <trkpt lat="44.86271" lon="6.64237">
        <ele>1697.3449707031</ele>
        <time>2010-07-06T13:33:07Z</time>
      </trkpt>
      <trkpt lat="44.86282" lon="6.64227">
        <ele>1693.98046875</ele>
        <time>2010-07-06T13:33:14Z</time>
      </trkpt>
      <trkpt lat="44.86291" lon="6.64214">
        <ele>1690.1350097656</ele>
        <time>2010-07-06T13:33:19Z</time>
      </trkpt>
      <trkpt lat="44.86301" lon="6.64205">
        <ele>1685.8090820312</ele>
        <time>2010-07-06T13:33:23Z</time>
      </trkpt>
      <trkpt lat="44.86306" lon="6.64199">
        <ele>1685.3283691406</ele>
        <time>2010-07-06T13:33:25Z</time>
      </trkpt>
      <trkpt lat="44.86321" lon="6.64181">
        <ele>1681.9638671875</ele>
        <time>2010-07-06T13:33:31Z</time>
      </trkpt>
      <trkpt lat="44.86329" lon="6.64169">
        <ele>1677.6379394531</ele>
        <time>2010-07-06T13:33:36Z</time>
      </trkpt>
      <trkpt lat="44.86338" lon="6.6416">
        <ele>1675.7150878906</ele>
        <time>2010-07-06T13:33:38Z</time>
      </trkpt>
      <trkpt lat="44.86349" lon="6.64149">
        <ele>1673.3120117188</ele>
        <time>2010-07-06T13:33:41Z</time>
      </trkpt>
      <trkpt lat="44.86366" lon="6.64126">
        <ele>1668.9860839844</ele>
        <time>2010-07-06T13:33:47Z</time>
      </trkpt>
      <trkpt lat="44.86377" lon="6.64111">
        <ele>1667.5439453125</ele>
        <time>2010-07-06T13:33:50Z</time>
      </trkpt>
      <trkpt lat="44.86394" lon="6.64087">
        <ele>1664.1794433594</ele>
        <time>2010-07-06T13:33:54Z</time>
      </trkpt>
      <trkpt lat="44.864" lon="6.64076">
        <ele>1662.2568359375</ele>
        <time>2010-07-06T13:33:57Z</time>
      </trkpt>
      <trkpt lat="44.86402" lon="6.64074">
        <ele>1662.2568359375</ele>
        <time>2010-07-06T13:33:59Z</time>
      </trkpt>
      <trkpt lat="44.86398" lon="6.64072">
        <ele>1661.2956542969</ele>
        <time>2010-07-06T13:34:05Z</time>
      </trkpt>
      <trkpt lat="44.864" lon="6.64066">
        <ele>1659.3728027344</ele>
        <time>2010-07-06T13:34:09Z</time>
      </trkpt>
      <trkpt lat="44.86407" lon="6.64055">
        <ele>1657.4501953125</ele>
        <time>2010-07-06T13:34:12Z</time>
      </trkpt>
      <trkpt lat="44.86419" lon="6.64023">
        <ele>1654.0856933594</ele>
        <time>2010-07-06T13:34:20Z</time>
      </trkpt>
      <trkpt lat="44.86422" lon="6.64014">
        <ele>1653.1242675781</ele>
        <time>2010-07-06T13:34:22Z</time>
      </trkpt>
      <trkpt lat="44.86426" lon="6.63975">
        <ele>1648.7983398438</ele>
        <time>2010-07-06T13:34:30Z</time>
      </trkpt>
      <trkpt lat="44.8643" lon="6.6395">
        <ele>1645.9145507812</ele>
        <time>2010-07-06T13:34:35Z</time>
      </trkpt>
      <trkpt lat="44.86439" lon="6.6392">
        <ele>1642.5498046875</ele>
        <time>2010-07-06T13:34:42Z</time>
      </trkpt>
      <trkpt lat="44.86445" lon="6.63888">
        <ele>1639.1850585938</ele>
        <time>2010-07-06T13:34:50Z</time>
      </trkpt>
      <trkpt lat="44.86447" lon="6.63883">
        <ele>1639.6657714844</ele>
        <time>2010-07-06T13:34:51Z</time>
      </trkpt>
      <trkpt lat="44.86452" lon="6.6387">
        <ele>1635.8205566406</ele>
        <time>2010-07-06T13:34:55Z</time>
      </trkpt>
      <trkpt lat="44.86452" lon="6.63864">
        <ele>1634.859375</ele>
        <time>2010-07-06T13:34:57Z</time>
      </trkpt>
      <trkpt lat="44.86465" lon="6.63847">
        <ele>1631.4946289062</ele>
        <time>2010-07-06T13:35:05Z</time>
      </trkpt>
      <trkpt lat="44.86471" lon="6.63842">
        <ele>1630.052734375</ele>
        <time>2010-07-06T13:35:18Z</time>
      </trkpt>
      <trkpt lat="44.86482" lon="6.63864">
        <ele>1628.6108398438</ele>
        <time>2010-07-06T13:36:01Z</time>
      </trkpt>
      <trkpt lat="44.86484" lon="6.6387">
        <ele>1626.6879882812</ele>
        <time>2010-07-06T13:36:04Z</time>
      </trkpt>
      <trkpt lat="44.86486" lon="6.63877">
        <ele>1625.7265625</ele>
        <time>2010-07-06T13:36:06Z</time>
      </trkpt>
      <trkpt lat="44.86505" lon="6.63903">
        <ele>1621.4006347656</ele>
        <time>2010-07-06T13:36:16Z</time>
      </trkpt>
      <trkpt lat="44.86514" lon="6.63913">
        <ele>1617.5554199219</ele>
        <time>2010-07-06T13:36:21Z</time>
      </trkpt>
      <trkpt lat="44.86516" lon="6.63915">
        <ele>1617.5554199219</ele>
        <time>2010-07-06T13:36:22Z</time>
      </trkpt>
      <trkpt lat="44.86525" lon="6.63924">
        <ele>1616.1135253906</ele>
        <time>2010-07-06T13:36:26Z</time>
      </trkpt>
      <trkpt lat="44.86525" lon="6.63924">
        <ele>1616.1135253906</ele>
        <time>2010-07-06T13:36:28Z</time>
      </trkpt>
      <trkpt lat="44.86525" lon="6.63911">
        <ele>1613.7102050781</ele>
        <time>2010-07-06T13:36:33Z</time>
      </trkpt>
      <trkpt lat="44.86527" lon="6.63909">
        <ele>1611.7875976562</ele>
        <time>2010-07-06T13:36:43Z</time>
      </trkpt>
      <trkpt lat="44.86527" lon="6.63911">
        <ele>1611.3068847656</ele>
        <time>2010-07-06T13:36:44Z</time>
      </trkpt>
      <trkpt lat="44.86529" lon="6.63915">
        <ele>1609.8647460938</ele>
        <time>2010-07-06T13:36:47Z</time>
      </trkpt>
      <trkpt lat="44.86531" lon="6.63926">
        <ele>1609.3842773438</ele>
        <time>2010-07-06T13:37:01Z</time>
      </trkpt>
      <trkpt lat="44.86531" lon="6.63926">
        <ele>1607.4616699219</ele>
        <time>2010-07-06T13:37:14Z</time>
      </trkpt>
      <trkpt lat="44.86531" lon="6.63915">
        <ele>1604.0971679688</ele>
        <time>2010-07-06T13:37:22Z</time>
      </trkpt>
      <trkpt lat="44.86533" lon="6.63915">
        <ele>1603.6164550781</ele>
        <time>2010-07-06T13:37:23Z</time>
      </trkpt>
      <trkpt lat="44.86535" lon="6.63909">
        <ele>1602.1743164062</ele>
        <time>2010-07-06T13:37:26Z</time>
      </trkpt>
      <trkpt lat="44.8654" lon="6.63894">
        <ele>1598.8098144531</ele>
        <time>2010-07-06T13:37:33Z</time>
      </trkpt>
      <trkpt lat="44.8654" lon="6.63892">
        <ele>1598.8098144531</ele>
        <time>2010-07-06T13:37:34Z</time>
      </trkpt>
      <trkpt lat="44.8655" lon="6.63881">
        <ele>1595.4450683594</ele>
        <time>2010-07-06T13:37:42Z</time>
      </trkpt>
      <trkpt lat="44.86555" lon="6.63879">
        <ele>1594.0031738281</ele>
        <time>2010-07-06T13:37:45Z</time>
      </trkpt>
      <trkpt lat="44.86561" lon="6.63877">
        <ele>1593.5224609375</ele>
        <time>2010-07-06T13:37:48Z</time>
      </trkpt>
      <trkpt lat="44.86563" lon="6.6387">
        <ele>1592.5612792969</ele>
        <time>2010-07-06T13:37:58Z</time>
      </trkpt>
      <trkpt lat="44.8657" lon="6.63881">
        <ele>1589.1965332031</ele>
        <time>2010-07-06T13:38:20Z</time>
      </trkpt>
      <trkpt lat="44.86574" lon="6.63883">
        <ele>1586.3127441406</ele>
        <time>2010-07-06T13:38:34Z</time>
      </trkpt>
      <trkpt lat="44.86574" lon="6.63881">
        <ele>1585.3513183594</ele>
        <time>2010-07-06T13:38:36Z</time>
      </trkpt>
      <trkpt lat="44.86585" lon="6.6387">
        <ele>1581.5061035156</ele>
        <time>2010-07-06T13:38:47Z</time>
      </trkpt>
      <trkpt lat="44.86593" lon="6.63857">
        <ele>1578.1413574219</ele>
        <time>2010-07-06T13:38:58Z</time>
      </trkpt>
      <trkpt lat="44.86593" lon="6.63857">
        <ele>1578.1413574219</ele>
        <time>2010-07-06T13:38:59Z</time>
      </trkpt>
      <trkpt lat="44.86604" lon="6.63851">
        <ele>1575.7380371094</ele>
        <time>2010-07-06T13:39:06Z</time>
      </trkpt>
      <trkpt lat="44.86617" lon="6.63851">
        <ele>1572.3735351562</ele>
        <time>2010-07-06T13:39:16Z</time>
      </trkpt>
      <trkpt lat="44.86621" lon="6.63851">
        <ele>1569.9702148438</ele>
        <time>2010-07-06T13:39:20Z</time>
      </trkpt>
      <trkpt lat="44.8663" lon="6.63836">
        <ele>1566.125</ele>
        <time>2010-07-06T13:39:35Z</time>
      </trkpt>
      <trkpt lat="44.8663" lon="6.63812">
        <ele>1563.2409667969</ele>
        <time>2010-07-06T13:39:45Z</time>
      </trkpt>
      <trkpt lat="44.86623" lon="6.63795">
        <ele>1559.8762207031</ele>
        <time>2010-07-06T13:39:53Z</time>
      </trkpt>
      <trkpt lat="44.86623" lon="6.63791">
        <ele>1558.4343261719</ele>
        <time>2010-07-06T13:39:55Z</time>
      </trkpt>
      <trkpt lat="44.86623" lon="6.63785">
        <ele>1556.9924316406</ele>
        <time>2010-07-06T13:39:57Z</time>
      </trkpt>
      <trkpt lat="44.86647" lon="6.63759">
        <ele>1553.1472167969</ele>
        <time>2010-07-06T13:40:06Z</time>
      </trkpt>
      <trkpt lat="44.86651" lon="6.63748">
        <ele>1550.7438964844</ele>
        <time>2010-07-06T13:40:09Z</time>
      </trkpt>
      <trkpt lat="44.86653" lon="6.63737">
        <ele>1547.3791503906</ele>
        <time>2010-07-06T13:40:12Z</time>
      </trkpt>
      <trkpt lat="44.86658" lon="6.6372">
        <ele>1544.9758300781</ele>
        <time>2010-07-06T13:40:16Z</time>
      </trkpt>
      <trkpt lat="44.86658" lon="6.63709">
        <ele>1542.0920410156</ele>
        <time>2010-07-06T13:40:19Z</time>
      </trkpt>
      <trkpt lat="44.8666" lon="6.63705">
        <ele>1542.0920410156</ele>
        <time>2010-07-06T13:40:20Z</time>
      </trkpt>
      <trkpt lat="44.86662" lon="6.63692">
        <ele>1540.1694335938</ele>
        <time>2010-07-06T13:40:23Z</time>
      </trkpt>
      <trkpt lat="44.8666" lon="6.6366">
        <ele>1540.1694335938</ele>
        <time>2010-07-06T13:40:41Z</time>
      </trkpt>
      <trkpt lat="44.8666" lon="6.63662">
        <ele>1538.2468261719</ele>
        <time>2010-07-06T13:40:46Z</time>
      </trkpt>
      <trkpt lat="44.86662" lon="6.63662">
        <ele>1536.32421875</ele>
        <time>2010-07-06T13:40:51Z</time>
      </trkpt>
      <trkpt lat="44.86666" lon="6.63662">
        <ele>1534.4016113281</ele>
        <time>2010-07-06T13:40:55Z</time>
      </trkpt>
      <trkpt lat="44.86681" lon="6.63656">
        <ele>1531.5173339844</ele>
        <time>2010-07-06T13:41:00Z</time>
      </trkpt>
      <trkpt lat="44.86692" lon="6.63654">
        <ele>1530.0754394531</ele>
        <time>2010-07-06T13:41:03Z</time>
      </trkpt>
      <trkpt lat="44.86707" lon="6.63656">
        <ele>1526.2302246094</ele>
        <time>2010-07-06T13:41:10Z</time>
      </trkpt>
      <trkpt lat="44.86743" lon="6.63654">
        <ele>1522.8657226562</ele>
        <time>2010-07-06T13:41:25Z</time>
      </trkpt>
      <trkpt lat="44.8675" lon="6.63651">
        <ele>1520.9431152344</ele>
        <time>2010-07-06T13:41:29Z</time>
      </trkpt>
      <trkpt lat="44.86761" lon="6.63649">
        <ele>1519.5012207031</ele>
        <time>2010-07-06T13:41:33Z</time>
      </trkpt>
      <trkpt lat="44.86786" lon="6.63643">
        <ele>1516.6171875</ele>
        <time>2010-07-06T13:41:47Z</time>
      </trkpt>
      <trkpt lat="44.86797" lon="6.63636">
        <ele>1514.6943359375</ele>
        <time>2010-07-06T13:41:53Z</time>
      </trkpt>
      <trkpt lat="44.86799" lon="6.63641">
        <ele>1513.2524414062</ele>
        <time>2010-07-06T13:41:55Z</time>
      </trkpt>
      <trkpt lat="44.86806" lon="6.63643">
        <ele>1510.3684082031</ele>
        <time>2010-07-06T13:42:01Z</time>
      </trkpt>
      <trkpt lat="44.86806" lon="6.63643">
        <ele>1510.3684082031</ele>
        <time>2010-07-06T13:42:02Z</time>
      </trkpt>
      <trkpt lat="44.86808" lon="6.63651">
        <ele>1507.4846191406</ele>
        <time>2010-07-06T13:42:06Z</time>
      </trkpt>
      <trkpt lat="44.86808" lon="6.63654">
        <ele>1506.0424804688</ele>
        <time>2010-07-06T13:42:09Z</time>
      </trkpt>
      <trkpt lat="44.86806" lon="6.63671">
        <ele>1505.5620117188</ele>
        <time>2010-07-06T13:42:26Z</time>
      </trkpt>
      <trkpt lat="44.86827" lon="6.63662">
        <ele>1501.716796875</ele>
        <time>2010-07-06T13:42:45Z</time>
      </trkpt>
      <trkpt lat="44.86834" lon="6.63662">
        <ele>1498.8325195312</ele>
        <time>2010-07-06T13:42:49Z</time>
      </trkpt>
      <trkpt lat="44.86853" lon="6.63656">
        <ele>1495.4680175781</ele>
        <time>2010-07-06T13:43:00Z</time>
      </trkpt>
      <trkpt lat="44.86855" lon="6.63656">
        <ele>1495.4680175781</ele>
        <time>2010-07-06T13:43:01Z</time>
      </trkpt>
      <trkpt lat="44.86864" lon="6.63656">
        <ele>1494.0261230469</ele>
        <time>2010-07-06T13:43:05Z</time>
      </trkpt>
      <trkpt lat="44.8687" lon="6.63656">
        <ele>1490.6613769531</ele>
        <time>2010-07-06T13:43:09Z</time>
      </trkpt>
      <trkpt lat="44.86872" lon="6.63654">
        <ele>1491.6228027344</ele>
        <time>2010-07-06T13:43:10Z</time>
      </trkpt>
      <trkpt lat="44.86883" lon="6.63651">
        <ele>1489.7001953125</ele>
        <time>2010-07-06T13:43:15Z</time>
      </trkpt>
      <trkpt lat="44.86874" lon="6.63636">
        <ele>1487.296875</ele>
        <time>2010-07-06T13:43:18Z</time>
      </trkpt>
      <trkpt lat="44.8684" lon="6.63619">
        <ele>1484.4130859375</ele>
        <time>2010-07-06T13:43:24Z</time>
      </trkpt>
      <trkpt lat="44.86836" lon="6.63609">
        <ele>1481.0483398438</ele>
        <time>2010-07-06T13:43:33Z</time>
      </trkpt>
      <trkpt lat="44.86838" lon="6.63609">
        <ele>1480.0869140625</ele>
        <time>2010-07-06T13:43:35Z</time>
      </trkpt>
      <trkpt lat="44.86844" lon="6.636">
        <ele>1478.1643066406</ele>
        <time>2010-07-06T13:43:39Z</time>
      </trkpt>
      <trkpt lat="44.86849" lon="6.63596">
        <ele>1475.7609863281</ele>
        <time>2010-07-06T13:43:42Z</time>
      </trkpt>
      <trkpt lat="44.86866" lon="6.63579">
        <ele>1472.396484375</ele>
        <time>2010-07-06T13:43:49Z</time>
      </trkpt>
      <trkpt lat="44.86883" lon="6.63581">
        <ele>1469.0319824219</ele>
        <time>2010-07-06T13:43:56Z</time>
      </trkpt>
      <trkpt lat="44.86894" lon="6.63583">
        <ele>1466.1477050781</ele>
        <time>2010-07-06T13:44:00Z</time>
      </trkpt>
      <trkpt lat="44.869" lon="6.63589">
        <ele>1462.783203125</ele>
        <time>2010-07-06T13:44:08Z</time>
      </trkpt>
      <trkpt lat="44.869" lon="6.63589">
        <ele>1462.3024902344</ele>
        <time>2010-07-06T13:44:09Z</time>
      </trkpt>
      <trkpt lat="44.86909" lon="6.63604">
        <ele>1460.3798828125</ele>
        <time>2010-07-06T13:44:29Z</time>
      </trkpt>
      <trkpt lat="44.86909" lon="6.63617">
        <ele>1457.9768066406</ele>
        <time>2010-07-06T13:44:43Z</time>
      </trkpt>
      <trkpt lat="44.86909" lon="6.63619">
        <ele>1456.0539550781</ele>
        <time>2010-07-06T13:44:46Z</time>
      </trkpt>
      <trkpt lat="44.86909" lon="6.63624">
        <ele>1454.6120605469</ele>
        <time>2010-07-06T13:44:49Z</time>
      </trkpt>
      <trkpt lat="44.86909" lon="6.63654">
        <ele>1452.2087402344</ele>
        <time>2010-07-06T13:45:01Z</time>
      </trkpt>
      <trkpt lat="44.86907" lon="6.63673">
        <ele>1448.8439941406</ele>
        <time>2010-07-06T13:45:06Z</time>
      </trkpt>
      <trkpt lat="44.86904" lon="6.63688">
        <ele>1445.9602050781</ele>
        <time>2010-07-06T13:45:09Z</time>
      </trkpt>
      <trkpt lat="44.86904" lon="6.63697">
        <ele>1443.076171875</ele>
        <time>2010-07-06T13:45:15Z</time>
      </trkpt>
      <trkpt lat="44.86924" lon="6.6372">
        <ele>1440.6728515625</ele>
        <time>2010-07-06T13:45:28Z</time>
      </trkpt>
      <trkpt lat="44.8693" lon="6.63718">
        <ele>1439.2309570312</ele>
        <time>2010-07-06T13:45:32Z</time>
      </trkpt>
      <trkpt lat="44.86952" lon="6.63709">
        <ele>1436.3471679688</ele>
        <time>2010-07-06T13:45:44Z</time>
      </trkpt>
      <trkpt lat="44.86958" lon="6.63707">
        <ele>1435.8662109375</ele>
        <time>2010-07-06T13:45:46Z</time>
      </trkpt>
      <trkpt lat="44.86982" lon="6.63709">
        <ele>1432.5017089844</ele>
        <time>2010-07-06T13:45:57Z</time>
      </trkpt>
      <trkpt lat="44.86982" lon="6.63707">
        <ele>1432.0209960938</ele>
        <time>2010-07-06T13:46:00Z</time>
      </trkpt>
      <trkpt lat="44.86982" lon="6.63703">
        <ele>1431.0598144531</ele>
        <time>2010-07-06T13:46:04Z</time>
      </trkpt>
      <trkpt lat="44.86982" lon="6.63697">
        <ele>1429.1369628906</ele>
        <time>2010-07-06T13:46:08Z</time>
      </trkpt>
      <trkpt lat="44.86982" lon="6.63684">
        <ele>1427.6950683594</ele>
        <time>2010-07-06T13:46:12Z</time>
      </trkpt>
      <trkpt lat="44.86986" lon="6.63639">
        <ele>1424.3305664062</ele>
        <time>2010-07-06T13:46:22Z</time>
      </trkpt>
      <trkpt lat="44.86999" lon="6.63596">
        <ele>1420.4853515625</ele>
        <time>2010-07-06T13:46:29Z</time>
      </trkpt>
      <trkpt lat="44.86999" lon="6.63591">
        <ele>1420.0046386719</ele>
        <time>2010-07-06T13:46:30Z</time>
      </trkpt>
      <trkpt lat="44.87001" lon="6.63585">
        <ele>1419.5239257812</ele>
        <time>2010-07-06T13:46:31Z</time>
      </trkpt>
      <trkpt lat="44.87005" lon="6.63583">
        <ele>1418.5625</ele>
        <time>2010-07-06T13:46:40Z</time>
      </trkpt>
      <trkpt lat="44.87007" lon="6.63581">
        <ele>1418.0817871094</ele>
        <time>2010-07-06T13:47:10Z</time>
      </trkpt>
      <trkpt lat="44.87007" lon="6.63572">
        <ele>1417.6010742188</ele>
        <time>2010-07-06T13:47:32Z</time>
      </trkpt>
      <trkpt lat="44.87007" lon="6.63574">
        <ele>1417.1206054688</ele>
        <time>2010-07-06T13:47:33Z</time>
      </trkpt>
      <trkpt lat="44.87014" lon="6.63609">
        <ele>1413.755859375</ele>
        <time>2010-07-06T13:47:46Z</time>
      </trkpt>
      <trkpt lat="44.87014" lon="6.63615">
        <ele>1413.275390625</ele>
        <time>2010-07-06T13:47:47Z</time>
      </trkpt>
      <trkpt lat="44.87018" lon="6.63647">
        <ele>1411.3527832031</ele>
        <time>2010-07-06T13:47:52Z</time>
      </trkpt>
      <trkpt lat="44.87029" lon="6.63673">
        <ele>1408.9494628906</ele>
        <time>2010-07-06T13:47:56Z</time>
      </trkpt>
      <trkpt lat="44.87035" lon="6.63688">
        <ele>1407.5075683594</ele>
        <time>2010-07-06T13:47:58Z</time>
      </trkpt>
      <trkpt lat="44.87046" lon="6.63694">
        <ele>1406.0654296875</ele>
        <time>2010-07-06T13:48:00Z</time>
      </trkpt>
      <trkpt lat="44.8705" lon="6.63682">
        <ele>1404.6235351562</ele>
        <time>2010-07-06T13:48:03Z</time>
      </trkpt>
      <trkpt lat="44.87052" lon="6.63664">
        <ele>1401.7395019531</ele>
        <time>2010-07-06T13:48:05Z</time>
      </trkpt>
      <trkpt lat="44.87057" lon="6.63645">
        <ele>1400.2976074219</ele>
        <time>2010-07-06T13:48:07Z</time>
      </trkpt>
      <trkpt lat="44.87059" lon="6.63628">
        <ele>1398.3747558594</ele>
        <time>2010-07-06T13:48:09Z</time>
      </trkpt>
      <trkpt lat="44.87059" lon="6.63604">
        <ele>1396.4523925781</ele>
        <time>2010-07-06T13:48:12Z</time>
      </trkpt>
      <trkpt lat="44.87061" lon="6.63591">
        <ele>1394.5295410156</ele>
        <time>2010-07-06T13:48:14Z</time>
      </trkpt>
      <trkpt lat="44.8707" lon="6.63572">
        <ele>1392.1264648438</ele>
        <time>2010-07-06T13:48:17Z</time>
      </trkpt>
      <trkpt lat="44.87085" lon="6.63551">
        <ele>1389.7231445312</ele>
        <time>2010-07-06T13:48:21Z</time>
      </trkpt>
      <trkpt lat="44.87102" lon="6.63516">
        <ele>1386.8388671875</ele>
        <time>2010-07-06T13:48:27Z</time>
      </trkpt>
      <trkpt lat="44.87102" lon="6.63512">
        <ele>1386.3583984375</ele>
        <time>2010-07-06T13:48:28Z</time>
      </trkpt>
      <trkpt lat="44.87115" lon="6.63469">
        <ele>1382.9936523438</ele>
        <time>2010-07-06T13:48:37Z</time>
      </trkpt>
      <trkpt lat="44.87121" lon="6.6345">
        <ele>1379.6291503906</ele>
        <time>2010-07-06T13:48:41Z</time>
      </trkpt>
      <trkpt lat="44.8713" lon="6.63428">
        <ele>1375.7839355469</ele>
        <time>2010-07-06T13:48:45Z</time>
      </trkpt>
      <trkpt lat="44.87138" lon="6.63398">
        <ele>1372.4194335938</ele>
        <time>2010-07-06T13:48:53Z</time>
      </trkpt>
      <trkpt lat="44.87143" lon="6.63385">
        <ele>1371.9384765625</ele>
        <time>2010-07-06T13:48:56Z</time>
      </trkpt>
      <trkpt lat="44.87153" lon="6.63362">
        <ele>1368.5739746094</ele>
        <time>2010-07-06T13:49:00Z</time>
      </trkpt>
      <trkpt lat="44.8716" lon="6.63336">
        <ele>1367.1320800781</ele>
        <time>2010-07-06T13:49:05Z</time>
      </trkpt>
      <trkpt lat="44.8716" lon="6.63323">
        <ele>1366.6513671875</ele>
        <time>2010-07-06T13:49:07Z</time>
      </trkpt>
      <trkpt lat="44.87162" lon="6.63302">
        <ele>1363.2868652344</ele>
        <time>2010-07-06T13:49:11Z</time>
      </trkpt>
      <trkpt lat="44.87179" lon="6.6328">
        <ele>1360.8835449219</ele>
        <time>2010-07-06T13:49:17Z</time>
      </trkpt>
      <trkpt lat="44.87194" lon="6.63278">
        <ele>1358.4802246094</ele>
        <time>2010-07-06T13:49:20Z</time>
      </trkpt>
      <trkpt lat="44.87203" lon="6.63274">
        <ele>1357.0383300781</ele>
        <time>2010-07-06T13:49:22Z</time>
      </trkpt>
      <trkpt lat="44.87216" lon="6.63263">
        <ele>1354.634765625</ele>
        <time>2010-07-06T13:49:31Z</time>
      </trkpt>
      <trkpt lat="44.8722" lon="6.63267">
        <ele>1354.634765625</ele>
        <time>2010-07-06T13:49:47Z</time>
      </trkpt>
      <trkpt lat="44.87224" lon="6.63265">
        <ele>1353.1928710938</ele>
        <time>2010-07-06T13:49:50Z</time>
      </trkpt>
      <trkpt lat="44.87235" lon="6.63263">
        <ele>1350.3090820312</ele>
        <time>2010-07-06T13:49:54Z</time>
      </trkpt>
      <trkpt lat="44.87241" lon="6.63263">
        <ele>1348.8669433594</ele>
        <time>2010-07-06T13:49:56Z</time>
      </trkpt>
      <trkpt lat="44.87252" lon="6.63267">
        <ele>1345.9831542969</ele>
        <time>2010-07-06T13:50:00Z</time>
      </trkpt>
      <trkpt lat="44.87258" lon="6.63267">
        <ele>1345.0217285156</ele>
        <time>2010-07-06T13:50:02Z</time>
      </trkpt>
      <trkpt lat="44.87269" lon="6.63274">
        <ele>1341.1765136719</ele>
        <time>2010-07-06T13:50:06Z</time>
      </trkpt>
      <trkpt lat="44.87276" lon="6.63276">
        <ele>1340.6958007812</ele>
        <time>2010-07-06T13:50:08Z</time>
      </trkpt>
      <trkpt lat="44.87291" lon="6.63282">
        <ele>1336.8503417969</ele>
        <time>2010-07-06T13:50:13Z</time>
      </trkpt>
      <trkpt lat="44.87297" lon="6.63285">
        <ele>1335.4084472656</ele>
        <time>2010-07-06T13:50:15Z</time>
      </trkpt>
      <trkpt lat="44.87323" lon="6.63308">
        <ele>1332.0439453125</ele>
        <time>2010-07-06T13:50:22Z</time>
      </trkpt>
      <trkpt lat="44.87334" lon="6.63327">
        <ele>1329.1599121094</ele>
        <time>2010-07-06T13:50:26Z</time>
      </trkpt>
      <trkpt lat="44.8734" lon="6.6334">
        <ele>1324.8342285156</ele>
        <time>2010-07-06T13:50:29Z</time>
      </trkpt>
      <trkpt lat="44.87353" lon="6.63355">
        <ele>1322.9113769531</ele>
        <time>2010-07-06T13:50:33Z</time>
      </trkpt>
      <trkpt lat="44.87357" lon="6.6336">
        <ele>1322.4306640625</ele>
        <time>2010-07-06T13:50:41Z</time>
      </trkpt>
      <trkpt lat="44.87366" lon="6.63364">
        <ele>1321.9499511719</ele>
        <time>2010-07-06T13:50:46Z</time>
      </trkpt>
      <trkpt lat="44.874" lon="6.63385">
        <ele>1319.546875</ele>
        <time>2010-07-06T13:50:52Z</time>
      </trkpt>
      <trkpt lat="44.87464" lon="6.634">
        <ele>1320.02734375</ele>
        <time>2010-07-06T13:51:02Z</time>
      </trkpt>
      <trkpt lat="44.87499" lon="6.63375">
        <ele>1320.02734375</ele>
        <time>2010-07-06T13:51:12Z</time>
      </trkpt>
      <trkpt lat="44.87507" lon="6.63366">
        <ele>1319.546875</ele>
        <time>2010-07-06T13:51:22Z</time>
      </trkpt>
      <trkpt lat="44.87509" lon="6.63351">
        <ele>1318.5854492188</ele>
        <time>2010-07-06T13:51:54Z</time>
      </trkpt>
      <trkpt lat="44.8754" lon="6.63334">
        <ele>1316.6628417969</ele>
        <time>2010-07-06T13:52:02Z</time>
      </trkpt>
      <trkpt lat="44.87578" lon="6.63323">
        <ele>1313.2983398438</ele>
        <time>2010-07-06T13:52:07Z</time>
      </trkpt>
      <trkpt lat="44.87595" lon="6.63319">
        <ele>1312.3369140625</ele>
        <time>2010-07-06T13:52:09Z</time>
      </trkpt>
      <trkpt lat="44.87625" lon="6.63315">
        <ele>1309.93359375</ele>
        <time>2010-07-06T13:52:12Z</time>
      </trkpt>
      <trkpt lat="44.87653" lon="6.63312">
        <ele>1306.0881347656</ele>
        <time>2010-07-06T13:52:15Z</time>
      </trkpt>
      <trkpt lat="44.87677" lon="6.63327">
        <ele>1305.126953125</ele>
        <time>2010-07-06T13:52:19Z</time>
      </trkpt>
      <trkpt lat="44.87754" lon="6.63336">
        <ele>1303.6850585938</ele>
        <time>2010-07-06T13:52:30Z</time>
      </trkpt>
      <trkpt lat="44.87799" lon="6.63332">
        <ele>1302.2429199219</ele>
        <time>2010-07-06T13:52:37Z</time>
      </trkpt>
      <trkpt lat="44.87836" lon="6.63353">
        <ele>1301.7624511719</ele>
        <time>2010-07-06T13:52:44Z</time>
      </trkpt>
      <trkpt lat="44.87917" lon="6.63405">
        <ele>1300.3205566406</ele>
        <time>2010-07-06T13:53:02Z</time>
      </trkpt>
      <trkpt lat="44.8793" lon="6.634">
        <ele>1299.83984375</ele>
        <time>2010-07-06T13:53:05Z</time>
      </trkpt>
      <trkpt lat="44.87945" lon="6.6339">
        <ele>1300.3205566406</ele>
        <time>2010-07-06T13:53:09Z</time>
      </trkpt>
      <trkpt lat="44.8799" lon="6.63345">
        <ele>1297.9172363281</ele>
        <time>2010-07-06T13:53:20Z</time>
      </trkpt>
      <trkpt lat="44.8802" lon="6.63334">
        <ele>1296.9558105469</ele>
        <time>2010-07-06T13:53:25Z</time>
      </trkpt>
      <trkpt lat="44.88093" lon="6.63327">
        <ele>1293.1105957031</ele>
        <time>2010-07-06T13:53:36Z</time>
      </trkpt>
      <trkpt lat="44.881" lon="6.63325">
        <ele>1292.6301269531</ele>
        <time>2010-07-06T13:53:38Z</time>
      </trkpt>
      <trkpt lat="44.88125" lon="6.63319">
        <ele>1290.70703125</ele>
        <time>2010-07-06T13:53:44Z</time>
      </trkpt>
      <trkpt lat="44.8816" lon="6.63319">
        <ele>1289.2651367188</ele>
        <time>2010-07-06T13:53:51Z</time>
      </trkpt>
      <trkpt lat="44.88218" lon="6.63373">
        <ele>1285.419921875</ele>
        <time>2010-07-06T13:54:01Z</time>
      </trkpt>
      <trkpt lat="44.88222" lon="6.63377">
        <ele>1283.9780273438</ele>
        <time>2010-07-06T13:54:02Z</time>
      </trkpt>
      <trkpt lat="44.88254" lon="6.63396">
        <ele>1283.4973144531</ele>
        <time>2010-07-06T13:54:10Z</time>
      </trkpt>
      <trkpt lat="44.88254" lon="6.63388">
        <ele>1283.0166015625</ele>
        <time>2010-07-06T13:54:11Z</time>
      </trkpt>
      <trkpt lat="44.88267" lon="6.63347">
        <ele>1281.0942382812</ele>
        <time>2010-07-06T13:54:16Z</time>
      </trkpt>
      <trkpt lat="44.88271" lon="6.63321">
        <ele>1280.1328125</ele>
        <time>2010-07-06T13:54:19Z</time>
      </trkpt>
      <trkpt lat="44.88312" lon="6.63291">
        <ele>1277.2490234375</ele>
        <time>2010-07-06T13:54:26Z</time>
      </trkpt>
      <trkpt lat="44.88364" lon="6.63291">
        <ele>1273.4035644531</ele>
        <time>2010-07-06T13:54:33Z</time>
      </trkpt>
      <trkpt lat="44.88443" lon="6.63295">
        <ele>1271.0002441406</ele>
        <time>2010-07-06T13:54:45Z</time>
      </trkpt>
      <trkpt lat="44.88456" lon="6.633">
        <ele>1270.51953125</ele>
        <time>2010-07-06T13:54:47Z</time>
      </trkpt>
      <trkpt lat="44.88477" lon="6.63315">
        <ele>1269.0776367188</ele>
        <time>2010-07-06T13:54:52Z</time>
      </trkpt>
      <trkpt lat="44.88486" lon="6.63332">
        <ele>1268.5969238281</ele>
        <time>2010-07-06T13:54:55Z</time>
      </trkpt>
      <trkpt lat="44.88492" lon="6.63355">
        <ele>1267.1550292969</ele>
        <time>2010-07-06T13:54:59Z</time>
      </trkpt>
      <trkpt lat="44.88509" lon="6.63377">
        <ele>1266.1936035156</ele>
        <time>2010-07-06T13:55:03Z</time>
      </trkpt>
      <trkpt lat="44.88527" lon="6.63388">
        <ele>1265.7131347656</ele>
        <time>2010-07-06T13:55:06Z</time>
      </trkpt>
      <trkpt lat="44.88574" lon="6.63433">
        <ele>1266.1936035156</ele>
        <time>2010-07-06T13:55:16Z</time>
      </trkpt>
      <trkpt lat="44.88593" lon="6.63443">
        <ele>1265.232421875</ele>
        <time>2010-07-06T13:55:20Z</time>
      </trkpt>
      <trkpt lat="44.8866" lon="6.63411">
        <ele>1268.1162109375</ele>
        <time>2010-07-06T13:55:32Z</time>
      </trkpt>
      <trkpt lat="44.88703" lon="6.63383">
        <ele>1270.51953125</ele>
        <time>2010-07-06T13:55:44Z</time>
      </trkpt>
      <trkpt lat="44.88741" lon="6.63373">
        <ele>1270.0388183594</ele>
        <time>2010-07-06T13:55:55Z</time>
      </trkpt>
      <trkpt lat="44.8876" lon="6.63377">
        <ele>1268.1162109375</ele>
        <time>2010-07-06T13:55:59Z</time>
      </trkpt>
      <trkpt lat="44.88803" lon="6.6339">
        <ele>1265.232421875</ele>
        <time>2010-07-06T13:56:07Z</time>
      </trkpt>
      <trkpt lat="44.88859" lon="6.63413">
        <ele>1261.8679199219</ele>
        <time>2010-07-06T13:56:17Z</time>
      </trkpt>
      <trkpt lat="44.8887" lon="6.63418">
        <ele>1260.42578125</ele>
        <time>2010-07-06T13:56:19Z</time>
      </trkpt>
      <trkpt lat="44.88911" lon="6.63437">
        <ele>1257.0610351562</ele>
        <time>2010-07-06T13:56:27Z</time>
      </trkpt>
      <trkpt lat="44.88917" lon="6.63439">
        <ele>1257.0610351562</ele>
        <time>2010-07-06T13:56:28Z</time>
      </trkpt>
      <trkpt lat="44.88928" lon="6.6343">
        <ele>1256.5803222656</ele>
        <time>2010-07-06T13:56:32Z</time>
      </trkpt>
      <trkpt lat="44.88939" lon="6.63362">
        <ele>1257.0610351562</ele>
        <time>2010-07-06T13:56:42Z</time>
      </trkpt>
      <trkpt lat="44.88943" lon="6.63349">
        <ele>1256.5803222656</ele>
        <time>2010-07-06T13:56:44Z</time>
      </trkpt>
      <trkpt lat="44.88932" lon="6.63321">
        <ele>1256.099609375</ele>
        <time>2010-07-06T13:56:50Z</time>
      </trkpt>
      <trkpt lat="44.88921" lon="6.63312">
        <ele>1256.099609375</ele>
        <time>2010-07-06T13:56:53Z</time>
      </trkpt>
      <trkpt lat="44.88909" lon="6.63308">
        <ele>1256.5803222656</ele>
        <time>2010-07-06T13:56:56Z</time>
      </trkpt>
      <trkpt lat="44.88855" lon="6.6328">
        <ele>1256.099609375</ele>
        <time>2010-07-06T13:57:11Z</time>
      </trkpt>
      <trkpt lat="44.88853" lon="6.63287">
        <ele>1256.5803222656</ele>
        <time>2010-07-06T13:57:17Z</time>
      </trkpt>
      <trkpt lat="44.88853" lon="6.63287">
        <ele>1256.099609375</ele>
        <time>2010-07-06T13:57:29Z</time>
      </trkpt>
      <trkpt lat="44.88855" lon="6.63287">
        <ele>1249.8513183594</ele>
        <time>2010-07-06T13:57:35Z</time>
      </trkpt>
      <trkpt lat="44.88855" lon="6.63287">
        <ele>1254.6577148438</ele>
        <time>2010-07-06T13:57:36Z</time>
      </trkpt>
      <trkpt lat="44.88857" lon="6.63287">
        <ele>1253.2158203125</ele>
        <time>2010-07-06T13:58:53Z</time>
      </trkpt>
      <trkpt lat="44.88857" lon="6.63287">
        <ele>1251.2932128906</ele>
        <time>2010-07-06T14:00:37Z</time>
      </trkpt>
      <trkpt lat="44.88853" lon="6.63291">
        <ele>1251.2932128906</ele>
        <time>2010-07-06T14:00:54Z</time>
      </trkpt>
      <trkpt lat="44.88855" lon="6.63289">
        <ele>1252.2543945312</ele>
        <time>2010-07-06T14:01:04Z</time>
      </trkpt>
    </trkseg>
  </trk>
</gpx>